<?xml version="1.0" encoding="UTF-8" standalone="no" ?>
<gpx xmlns="http://www.topografix.com/GPX/1/1" xmlns:xsi="http://www.w3.org/2001/XMLSchema-instance" xsi:schemaLocation="http://www.topografix.com/GPX/1/1 http://www.topografix.com/GPX/1/1/gpx.xsd" version="1.1" creator="VisuGPX - https://www.visugpx.com">
  <metadata>
    <name>Mercredi 23 février 2022 (avec Chris)</name>
    <desc><![CDATA[Temps un peu frais mais ensoleillé
Heure de départ: 16:01  Heure d'arrivée: 17:30  
Distance: 14,7 km (01:29) Temps déplacement: 01:13
Christine, ayant fait le tour du lac, à pied le matin, a décidé de m'accompagner en VTT l'après midi. Elle n'en avait pas fait depuis 4 mois mais elle s'est comportée vaillamment. Le parcours, avec 3 côtes, a été choisi dans le but d'éviter la boue au maximum ... 
NB : L'enregistrement GPS est un peu fantaisiste du km 0,5 au km 2, c'est la première fois que ça m'arrive (pas comme Christian !)
]]></desc>
  </metadata>
  <wpt lat="47.64439" lon="6.18298">
    <ele>223.5</ele>
    <name><![CDATA[0000432]]></name>
    <type><![CDATA[Point de départ]]></type>
  </wpt>
  <wpt lat="47.64453" lon="6.18331">
    <ele>227.3</ele>
    <name><![CDATA[0000433]]></name>
    <desc><![CDATA[<p><br /><h3>Nom: Segment: 1</h3><br />Heure de départ: 02/23/2022 16:01<br/>Heure d'arrivée: 02/23/2022 17:30<br/>Distance: 14,7km (01:29)<br/>Temps déplacement: 01:13<br/>Vitesse moyenne: 9,89 km/h<br/>Vitesse moyenne mouv.: 11,9 km/h<br/>Vitesse Max.: 42,19 km/h<br/>Altitude minimale: 180 m<br/>Altitude maximale: 331 m<br/>Vitesse de montée: 811,8 m/h<br/>Vitesse de descente: -1731,4 m/h<br/>Gain d'altitude: 666 m<br/>Perte d'altitude: -767 m<br/>Temps de montée: 00:49<br/>Temps de descente: 00:26<br/></p>]]></desc>
    <type><![CDATA[Point d'arrivée]]></type>
  </wpt>
  <trk>
    <name><![CDATA[2022-02-23 16:00]]></name>
    <desc><![CDATA[<p>Heure de départ: 02/23/2022 16:01<br/>Heure d'arrivée: 02/23/2022 17:30<br/>Distance: 14,7 km (01:29)<br/>Temps déplacement: 01:13<br/>Vitesse moyenne: 9,89 km/h<br/>Vitesse moyenne mouv.: 11,96 km/h<br/>Vitesse Max.: 42,19 km/h<br/>Altitude minimale: 180 m<br/>Altitude maximale: 331 m<br/>Vitesse de montée: 320 m/h<br/>Vitesse de descente: -556,2 m/h<br/>Gain d'altitude: 269 m<br/>Perte d'altitude: -290 m<br/>Temps de montée: 00:50<br/>Temps de descente: 00:31<br/></p><hr align="center" width="480" style="height: 2px; width: 517px"/>]]></desc>
    <trkseg>
      <trkpt lat="47.64439" lon="6.18298">
        <ele>223.5</ele>
        <time>2022-02-23T15:01:01Z</time>
      </trkpt>
      <trkpt lat="47.64456" lon="6.18311">
        <ele>226.1</ele>
        <time>2022-02-23T15:01:02Z</time>
      </trkpt>
      <trkpt lat="47.64456" lon="6.18304">
        <ele>225.6</ele>
        <time>2022-02-23T15:01:17Z</time>
      </trkpt>
      <trkpt lat="47.64445" lon="6.18299">
        <ele>223.8</ele>
        <time>2022-02-23T15:01:20Z</time>
      </trkpt>
      <trkpt lat="47.64441" lon="6.18303">
        <ele>223.8</ele>
        <time>2022-02-23T15:01:28Z</time>
      </trkpt>
      <trkpt lat="47.64447" lon="6.18299">
        <ele>224</ele>
        <time>2022-02-23T15:01:37Z</time>
      </trkpt>
      <trkpt lat="47.6445" lon="6.18293">
        <ele>224.1</ele>
        <time>2022-02-23T15:01:39Z</time>
      </trkpt>
      <trkpt lat="47.64453" lon="6.18286">
        <ele>224.1</ele>
        <time>2022-02-23T15:01:41Z</time>
      </trkpt>
      <trkpt lat="47.64457" lon="6.1828">
        <ele>224.1</ele>
        <time>2022-02-23T15:01:43Z</time>
      </trkpt>
      <trkpt lat="47.64461" lon="6.18274">
        <ele>224</ele>
        <time>2022-02-23T15:01:49Z</time>
      </trkpt>
      <trkpt lat="47.64465" lon="6.18267">
        <ele>223.9</ele>
        <time>2022-02-23T15:01:52Z</time>
      </trkpt>
      <trkpt lat="47.64469" lon="6.18262">
        <ele>223.7</ele>
        <time>2022-02-23T15:01:53Z</time>
      </trkpt>
      <trkpt lat="47.64479" lon="6.18245">
        <ele>224.4</ele>
        <time>2022-02-23T15:01:57Z</time>
      </trkpt>
      <trkpt lat="47.64485" lon="6.18236">
        <ele>225</ele>
        <time>2022-02-23T15:01:59Z</time>
      </trkpt>
      <trkpt lat="47.64492" lon="6.18221">
        <ele>225.1</ele>
        <time>2022-02-23T15:01:59Z</time>
      </trkpt>
      <trkpt lat="47.64495" lon="6.18215">
        <ele>225</ele>
        <time>2022-02-23T15:02:01Z</time>
      </trkpt>
      <trkpt lat="47.64498" lon="6.18207">
        <ele>224.8</ele>
        <time>2022-02-23T15:02:07Z</time>
      </trkpt>
      <trkpt lat="47.645" lon="6.182">
        <ele>224.5</ele>
        <time>2022-02-23T15:02:08Z</time>
      </trkpt>
      <trkpt lat="47.64502" lon="6.18191">
        <ele>224.5</ele>
        <time>2022-02-23T15:02:10Z</time>
      </trkpt>
      <trkpt lat="47.645" lon="6.1817">
        <ele>223.1</ele>
        <time>2022-02-23T15:02:14Z</time>
      </trkpt>
      <trkpt lat="47.64497" lon="6.18159">
        <ele>222.9</ele>
        <time>2022-02-23T15:02:16Z</time>
      </trkpt>
      <trkpt lat="47.64495" lon="6.18133">
        <ele>223</ele>
        <time>2022-02-23T15:02:20Z</time>
      </trkpt>
      <trkpt lat="47.64496" lon="6.18125">
        <ele>222.9</ele>
        <time>2022-02-23T15:02:21Z</time>
      </trkpt>
      <trkpt lat="47.64497" lon="6.18118">
        <ele>222.9</ele>
        <time>2022-02-23T15:02:23Z</time>
      </trkpt>
      <trkpt lat="47.64501" lon="6.18099">
        <ele>223.2</ele>
        <time>2022-02-23T15:02:26Z</time>
      </trkpt>
      <trkpt lat="47.64504" lon="6.18089">
        <ele>223.6</ele>
        <time>2022-02-23T15:02:29Z</time>
      </trkpt>
      <trkpt lat="47.64508" lon="6.18073">
        <ele>224.3</ele>
        <time>2022-02-23T15:02:29Z</time>
      </trkpt>
      <trkpt lat="47.6451" lon="6.18063">
        <ele>224.7</ele>
        <time>2022-02-23T15:02:35Z</time>
      </trkpt>
      <trkpt lat="47.64517" lon="6.1805">
        <ele>225</ele>
        <time>2022-02-23T15:02:40Z</time>
      </trkpt>
      <trkpt lat="47.64526" lon="6.18039">
        <ele>225.3</ele>
        <time>2022-02-23T15:02:45Z</time>
      </trkpt>
      <trkpt lat="47.64531" lon="6.18033">
        <ele>225.7</ele>
        <time>2022-02-23T15:02:48Z</time>
      </trkpt>
      <trkpt lat="47.64538" lon="6.18023">
        <ele>226.4</ele>
        <time>2022-02-23T15:02:52Z</time>
      </trkpt>
      <trkpt lat="47.64545" lon="6.18008">
        <ele>227</ele>
        <time>2022-02-23T15:02:57Z</time>
      </trkpt>
      <trkpt lat="47.64547" lon="6.18">
        <ele>227.1</ele>
        <time>2022-02-23T15:03:00Z</time>
      </trkpt>
      <trkpt lat="47.64551" lon="6.17987">
        <ele>226.7</ele>
        <time>2022-02-23T15:03:00Z</time>
      </trkpt>
      <trkpt lat="47.64554" lon="6.17982">
        <ele>226.5</ele>
        <time>2022-02-23T15:03:03Z</time>
      </trkpt>
      <trkpt lat="47.64555" lon="6.17974">
        <ele>226</ele>
        <time>2022-02-23T15:03:09Z</time>
      </trkpt>
      <trkpt lat="47.64554" lon="6.1798">
        <ele>226.4</ele>
        <time>2022-02-23T15:03:13Z</time>
      </trkpt>
      <trkpt lat="47.64555" lon="6.17973">
        <ele>226</ele>
        <time>2022-02-23T15:03:38Z</time>
      </trkpt>
      <trkpt lat="47.6456" lon="6.17949">
        <ele>225.5</ele>
        <time>2022-02-23T15:03:38Z</time>
      </trkpt>
      <trkpt lat="47.64562" lon="6.17943">
        <ele>225.1</ele>
        <time>2022-02-23T15:03:39Z</time>
      </trkpt>
      <trkpt lat="47.64566" lon="6.17931">
        <ele>224.1</ele>
        <time>2022-02-23T15:03:41Z</time>
      </trkpt>
      <trkpt lat="47.64569" lon="6.17925">
        <ele>223.7</ele>
        <time>2022-02-23T15:03:42Z</time>
      </trkpt>
      <trkpt lat="47.64577" lon="6.17915">
        <ele>223.4</ele>
        <time>2022-02-23T15:03:44Z</time>
      </trkpt>
      <trkpt lat="47.64582" lon="6.17909">
        <ele>223.4</ele>
        <time>2022-02-23T15:03:45Z</time>
      </trkpt>
      <trkpt lat="47.64586" lon="6.17903">
        <ele>223.1</ele>
        <time>2022-02-23T15:03:46Z</time>
      </trkpt>
      <trkpt lat="47.64591" lon="6.17898">
        <ele>222.8</ele>
        <time>2022-02-23T15:03:47Z</time>
      </trkpt>
      <trkpt lat="47.64597" lon="6.17893">
        <ele>222.7</ele>
        <time>2022-02-23T15:03:48Z</time>
      </trkpt>
      <trkpt lat="47.64603" lon="6.1789">
        <ele>222.8</ele>
        <time>2022-02-23T15:03:49Z</time>
      </trkpt>
      <trkpt lat="47.64608" lon="6.17888">
        <ele>222.9</ele>
        <time>2022-02-23T15:03:50Z</time>
      </trkpt>
      <trkpt lat="47.64614" lon="6.17887">
        <ele>223</ele>
        <time>2022-02-23T15:03:51Z</time>
      </trkpt>
      <trkpt lat="47.6462" lon="6.17887">
        <ele>223</ele>
        <time>2022-02-23T15:03:52Z</time>
      </trkpt>
      <trkpt lat="47.64625" lon="6.17888">
        <ele>223</ele>
        <time>2022-02-23T15:03:53Z</time>
      </trkpt>
      <trkpt lat="47.6463" lon="6.1789">
        <ele>223.1</ele>
        <time>2022-02-23T15:03:54Z</time>
      </trkpt>
      <trkpt lat="47.64634" lon="6.17893">
        <ele>223.2</ele>
        <time>2022-02-23T15:03:55Z</time>
      </trkpt>
      <trkpt lat="47.64638" lon="6.17897">
        <ele>223.3</ele>
        <time>2022-02-23T15:03:56Z</time>
      </trkpt>
      <trkpt lat="47.64644" lon="6.17902">
        <ele>223.4</ele>
        <time>2022-02-23T15:03:58Z</time>
      </trkpt>
      <trkpt lat="47.6465" lon="6.17908">
        <ele>223.4</ele>
        <time>2022-02-23T15:04:00Z</time>
      </trkpt>
      <trkpt lat="47.64655" lon="6.17913">
        <ele>223.4</ele>
        <time>2022-02-23T15:04:02Z</time>
      </trkpt>
      <trkpt lat="47.64657" lon="6.17921">
        <ele>223.9</ele>
        <time>2022-02-23T15:04:09Z</time>
      </trkpt>
      <trkpt lat="47.64665" lon="6.1793">
        <ele>224.5</ele>
        <time>2022-02-23T15:04:11Z</time>
      </trkpt>
      <trkpt lat="47.64668" lon="6.17935">
        <ele>224.9</ele>
        <time>2022-02-23T15:04:13Z</time>
      </trkpt>
      <trkpt lat="47.64671" lon="6.17942">
        <ele>225.3</ele>
        <time>2022-02-23T15:04:14Z</time>
      </trkpt>
      <trkpt lat="47.64673" lon="6.1795">
        <ele>226.2</ele>
        <time>2022-02-23T15:04:16Z</time>
      </trkpt>
      <trkpt lat="47.64675" lon="6.17958">
        <ele>227.2</ele>
        <time>2022-02-23T15:04:17Z</time>
      </trkpt>
      <trkpt lat="47.64682" lon="6.17976">
        <ele>229.2</ele>
        <time>2022-02-23T15:04:17Z</time>
      </trkpt>
      <trkpt lat="47.64685" lon="6.17985">
        <ele>230.8</ele>
        <time>2022-02-23T15:04:22Z</time>
      </trkpt>
      <trkpt lat="47.64686" lon="6.18003">
        <ele>235</ele>
        <time>2022-02-23T15:04:25Z</time>
      </trkpt>
      <trkpt lat="47.64686" lon="6.18011">
        <ele>237.2</ele>
        <time>2022-02-23T15:04:27Z</time>
      </trkpt>
      <trkpt lat="47.64688" lon="6.18031">
        <ele>242.2</ele>
        <time>2022-02-23T15:04:31Z</time>
      </trkpt>
      <trkpt lat="47.64691" lon="6.18049">
        <ele>245.9</ele>
        <time>2022-02-23T15:04:31Z</time>
      </trkpt>
      <trkpt lat="47.64693" lon="6.18059">
        <ele>247.7</ele>
        <time>2022-02-23T15:04:33Z</time>
      </trkpt>
      <trkpt lat="47.64698" lon="6.18069">
        <ele>248</ele>
        <time>2022-02-23T15:04:35Z</time>
      </trkpt>
      <trkpt lat="47.64699" lon="6.1808">
        <ele>249.3</ele>
        <time>2022-02-23T15:04:41Z</time>
      </trkpt>
      <trkpt lat="47.64704" lon="6.1808">
        <ele>248</ele>
        <time>2022-02-23T15:04:42Z</time>
      </trkpt>
      <trkpt lat="47.64711" lon="6.18085">
        <ele>247.1</ele>
        <time>2022-02-23T15:04:44Z</time>
      </trkpt>
      <trkpt lat="47.64722" lon="6.18093">
        <ele>246.2</ele>
        <time>2022-02-23T15:04:46Z</time>
      </trkpt>
      <trkpt lat="47.64727" lon="6.18098">
        <ele>245.6</ele>
        <time>2022-02-23T15:04:48Z</time>
      </trkpt>
      <trkpt lat="47.64732" lon="6.18102">
        <ele>245</ele>
        <time>2022-02-23T15:04:49Z</time>
      </trkpt>
      <trkpt lat="47.64738" lon="6.18104">
        <ele>243.9</ele>
        <time>2022-02-23T15:04:51Z</time>
      </trkpt>
      <trkpt lat="47.64754" lon="6.1811">
        <ele>240.7</ele>
        <time>2022-02-23T15:04:55Z</time>
      </trkpt>
      <trkpt lat="47.64773" lon="6.1811">
        <ele>235</ele>
        <time>2022-02-23T15:05:00Z</time>
      </trkpt>
      <trkpt lat="47.64778" lon="6.18112">
        <ele>234.1</ele>
        <time>2022-02-23T15:05:01Z</time>
      </trkpt>
      <trkpt lat="47.64788" lon="6.1812">
        <ele>233.9</ele>
        <time>2022-02-23T15:05:06Z</time>
      </trkpt>
      <trkpt lat="47.64793" lon="6.18124">
        <ele>234</ele>
        <time>2022-02-23T15:05:09Z</time>
      </trkpt>
      <trkpt lat="47.64798" lon="6.18128">
        <ele>234</ele>
        <time>2022-02-23T15:05:12Z</time>
      </trkpt>
      <trkpt lat="47.64803" lon="6.1813">
        <ele>233.5</ele>
        <time>2022-02-23T15:05:14Z</time>
      </trkpt>
      <trkpt lat="47.64813" lon="6.18138">
        <ele>234</ele>
        <time>2022-02-23T15:05:19Z</time>
      </trkpt>
      <trkpt lat="47.64825" lon="6.18132">
        <ele>231.8</ele>
        <time>2022-02-23T15:05:22Z</time>
      </trkpt>
      <trkpt lat="47.64828" lon="6.18138">
        <ele>232.4</ele>
        <time>2022-02-23T15:05:24Z</time>
      </trkpt>
      <trkpt lat="47.6483" lon="6.18144">
        <ele>233.1</ele>
        <time>2022-02-23T15:05:27Z</time>
      </trkpt>
      <trkpt lat="47.64839" lon="6.1814">
        <ele>231.8</ele>
        <time>2022-02-23T15:05:28Z</time>
      </trkpt>
      <trkpt lat="47.64844" lon="6.18136">
        <ele>230.8</ele>
        <time>2022-02-23T15:05:29Z</time>
      </trkpt>
      <trkpt lat="47.6485" lon="6.18133">
        <ele>230.2</ele>
        <time>2022-02-23T15:05:31Z</time>
      </trkpt>
      <trkpt lat="47.64855" lon="6.18131">
        <ele>229.8</ele>
        <time>2022-02-23T15:05:31Z</time>
      </trkpt>
      <trkpt lat="47.64859" lon="6.18132">
        <ele>229.6</ele>
        <time>2022-02-23T15:05:38Z</time>
      </trkpt>
      <trkpt lat="47.64863" lon="6.18136">
        <ele>229.8</ele>
        <time>2022-02-23T15:05:40Z</time>
      </trkpt>
      <trkpt lat="47.64873" lon="6.18147">
        <ele>231.2</ele>
        <time>2022-02-23T15:05:45Z</time>
      </trkpt>
      <trkpt lat="47.64885" lon="6.18145">
        <ele>230.9</ele>
        <time>2022-02-23T15:05:48Z</time>
      </trkpt>
      <trkpt lat="47.649" lon="6.18142">
        <ele>231.2</ele>
        <time>2022-02-23T15:05:51Z</time>
      </trkpt>
      <trkpt lat="47.64909" lon="6.18146">
        <ele>232.5</ele>
        <time>2022-02-23T15:05:54Z</time>
      </trkpt>
      <trkpt lat="47.64919" lon="6.18148">
        <ele>233.5</ele>
        <time>2022-02-23T15:05:57Z</time>
      </trkpt>
      <trkpt lat="47.64926" lon="6.18149">
        <ele>234</ele>
        <time>2022-02-23T15:05:59Z</time>
      </trkpt>
      <trkpt lat="47.64939" lon="6.18151">
        <ele>235.2</ele>
        <time>2022-02-23T15:06:03Z</time>
      </trkpt>
      <trkpt lat="47.64943" lon="6.18151">
        <ele>235.5</ele>
        <time>2022-02-23T15:06:04Z</time>
      </trkpt>
      <trkpt lat="47.6495" lon="6.18151">
        <ele>236.4</ele>
        <time>2022-02-23T15:06:06Z</time>
      </trkpt>
      <trkpt lat="47.64956" lon="6.18151">
        <ele>237.4</ele>
        <time>2022-02-23T15:06:09Z</time>
      </trkpt>
      <trkpt lat="47.64962" lon="6.18151">
        <ele>238.4</ele>
        <time>2022-02-23T15:06:11Z</time>
      </trkpt>
      <trkpt lat="47.64967" lon="6.18149">
        <ele>238.8</ele>
        <time>2022-02-23T15:06:12Z</time>
      </trkpt>
      <trkpt lat="47.64977" lon="6.18142">
        <ele>238</ele>
        <time>2022-02-23T15:06:16Z</time>
      </trkpt>
      <trkpt lat="47.64983" lon="6.18138">
        <ele>237.1</ele>
        <time>2022-02-23T15:06:18Z</time>
      </trkpt>
      <trkpt lat="47.64994" lon="6.18131">
        <ele>235.1</ele>
        <time>2022-02-23T15:06:21Z</time>
      </trkpt>
      <trkpt lat="47.64999" lon="6.18127">
        <ele>234</ele>
        <time>2022-02-23T15:06:23Z</time>
      </trkpt>
      <trkpt lat="47.65012" lon="6.18119">
        <ele>230.5</ele>
        <time>2022-02-23T15:06:27Z</time>
      </trkpt>
      <trkpt lat="47.6503" lon="6.18108">
        <ele>226.7</ele>
        <time>2022-02-23T15:06:28Z</time>
      </trkpt>
      <trkpt lat="47.65034" lon="6.18102">
        <ele>226.1</ele>
        <time>2022-02-23T15:06:29Z</time>
      </trkpt>
      <trkpt lat="47.65039" lon="6.18095">
        <ele>225.4</ele>
        <time>2022-02-23T15:06:31Z</time>
      </trkpt>
      <trkpt lat="47.65044" lon="6.1809">
        <ele>224.9</ele>
        <time>2022-02-23T15:06:33Z</time>
      </trkpt>
      <trkpt lat="47.65052" lon="6.1808">
        <ele>223.9</ele>
        <time>2022-02-23T15:06:33Z</time>
      </trkpt>
      <trkpt lat="47.65055" lon="6.18074">
        <ele>223.7</ele>
        <time>2022-02-23T15:06:39Z</time>
      </trkpt>
      <trkpt lat="47.65059" lon="6.18069">
        <ele>223.5</ele>
        <time>2022-02-23T15:06:41Z</time>
      </trkpt>
      <trkpt lat="47.65063" lon="6.18063">
        <ele>223.3</ele>
        <time>2022-02-23T15:06:44Z</time>
      </trkpt>
      <trkpt lat="47.65065" lon="6.18057">
        <ele>223</ele>
        <time>2022-02-23T15:06:47Z</time>
      </trkpt>
      <trkpt lat="47.65067" lon="6.18051">
        <ele>223.2</ele>
        <time>2022-02-23T15:06:48Z</time>
      </trkpt>
      <trkpt lat="47.65069" lon="6.18043">
        <ele>223.5</ele>
        <time>2022-02-23T15:06:50Z</time>
      </trkpt>
      <trkpt lat="47.65072" lon="6.18036">
        <ele>223.7</ele>
        <time>2022-02-23T15:06:52Z</time>
      </trkpt>
      <trkpt lat="47.65076" lon="6.18027">
        <ele>224.1</ele>
        <time>2022-02-23T15:06:55Z</time>
      </trkpt>
      <trkpt lat="47.65079" lon="6.18021">
        <ele>224.5</ele>
        <time>2022-02-23T15:06:57Z</time>
      </trkpt>
      <trkpt lat="47.65089" lon="6.18014">
        <ele>224.9</ele>
        <time>2022-02-23T15:07:00Z</time>
      </trkpt>
      <trkpt lat="47.65094" lon="6.18013">
        <ele>224.8</ele>
        <time>2022-02-23T15:07:03Z</time>
      </trkpt>
      <trkpt lat="47.65102" lon="6.18023">
        <ele>224.2</ele>
        <time>2022-02-23T15:07:09Z</time>
      </trkpt>
      <trkpt lat="47.65105" lon="6.18029">
        <ele>224</ele>
        <time>2022-02-23T15:07:12Z</time>
      </trkpt>
      <trkpt lat="47.65109" lon="6.18036">
        <ele>223.7</ele>
        <time>2022-02-23T15:07:13Z</time>
      </trkpt>
      <trkpt lat="47.65111" lon="6.18043">
        <ele>223.5</ele>
        <time>2022-02-23T15:07:17Z</time>
      </trkpt>
      <trkpt lat="47.65111" lon="6.1805">
        <ele>223.2</ele>
        <time>2022-02-23T15:07:21Z</time>
      </trkpt>
      <trkpt lat="47.65111" lon="6.18058">
        <ele>223.1</ele>
        <time>2022-02-23T15:07:24Z</time>
      </trkpt>
      <trkpt lat="47.65112" lon="6.18065">
        <ele>223.3</ele>
        <time>2022-02-23T15:07:24Z</time>
      </trkpt>
      <trkpt lat="47.65113" lon="6.18075">
        <ele>223.7</ele>
        <time>2022-02-23T15:07:30Z</time>
      </trkpt>
      <trkpt lat="47.65114" lon="6.18083">
        <ele>224</ele>
        <time>2022-02-23T15:07:31Z</time>
      </trkpt>
      <trkpt lat="47.65114" lon="6.18093">
        <ele>224.8</ele>
        <time>2022-02-23T15:07:38Z</time>
      </trkpt>
      <trkpt lat="47.65114" lon="6.18103">
        <ele>225.6</ele>
        <time>2022-02-23T15:07:39Z</time>
      </trkpt>
      <trkpt lat="47.65114" lon="6.18115">
        <ele>227.8</ele>
        <time>2022-02-23T15:07:40Z</time>
      </trkpt>
      <trkpt lat="47.65113" lon="6.18126">
        <ele>231.6</ele>
        <time>2022-02-23T15:07:41Z</time>
      </trkpt>
      <trkpt lat="47.65113" lon="6.18139">
        <ele>236.4</ele>
        <time>2022-02-23T15:07:42Z</time>
      </trkpt>
      <trkpt lat="47.65113" lon="6.18147">
        <ele>239.6</ele>
        <time>2022-02-23T15:07:43Z</time>
      </trkpt>
      <trkpt lat="47.65113" lon="6.18157">
        <ele>244</ele>
        <time>2022-02-23T15:07:44Z</time>
      </trkpt>
      <trkpt lat="47.65114" lon="6.18166">
        <ele>248</ele>
        <time>2022-02-23T15:07:45Z</time>
      </trkpt>
      <trkpt lat="47.65114" lon="6.18173">
        <ele>249.9</ele>
        <time>2022-02-23T15:07:46Z</time>
      </trkpt>
      <trkpt lat="47.65117" lon="6.18191">
        <ele>254.6</ele>
        <time>2022-02-23T15:07:46Z</time>
      </trkpt>
      <trkpt lat="47.65118" lon="6.182">
        <ele>255.8</ele>
        <time>2022-02-23T15:07:51Z</time>
      </trkpt>
      <trkpt lat="47.65122" lon="6.18215">
        <ele>256.9</ele>
        <time>2022-02-23T15:07:51Z</time>
      </trkpt>
      <trkpt lat="47.65123" lon="6.18224">
        <ele>257.5</ele>
        <time>2022-02-23T15:07:57Z</time>
      </trkpt>
      <trkpt lat="47.65125" lon="6.18232">
        <ele>257.9</ele>
        <time>2022-02-23T15:07:59Z</time>
      </trkpt>
      <trkpt lat="47.65128" lon="6.1824">
        <ele>258.2</ele>
        <time>2022-02-23T15:08:01Z</time>
      </trkpt>
      <trkpt lat="47.65134" lon="6.18257">
        <ele>258.8</ele>
        <time>2022-02-23T15:08:04Z</time>
      </trkpt>
      <trkpt lat="47.65142" lon="6.1827">
        <ele>259.1</ele>
        <time>2022-02-23T15:08:07Z</time>
      </trkpt>
      <trkpt lat="47.65145" lon="6.18275">
        <ele>259.2</ele>
        <time>2022-02-23T15:08:08Z</time>
      </trkpt>
      <trkpt lat="47.6515" lon="6.18281">
        <ele>259.5</ele>
        <time>2022-02-23T15:08:10Z</time>
      </trkpt>
      <trkpt lat="47.65155" lon="6.18285">
        <ele>259.8</ele>
        <time>2022-02-23T15:08:12Z</time>
      </trkpt>
      <trkpt lat="47.65181" lon="6.18302">
        <ele>260.9</ele>
        <time>2022-02-23T15:08:14Z</time>
      </trkpt>
      <trkpt lat="47.65187" lon="6.18306">
        <ele>261</ele>
        <time>2022-02-23T15:08:17Z</time>
      </trkpt>
      <trkpt lat="47.65193" lon="6.18308">
        <ele>261.1</ele>
        <time>2022-02-23T15:08:18Z</time>
      </trkpt>
      <trkpt lat="47.65197" lon="6.18309">
        <ele>261.1</ele>
        <time>2022-02-23T15:08:19Z</time>
      </trkpt>
      <trkpt lat="47.6521" lon="6.18311">
        <ele>261.2</ele>
        <time>2022-02-23T15:08:19Z</time>
      </trkpt>
      <trkpt lat="47.65218" lon="6.18312">
        <ele>261.2</ele>
        <time>2022-02-23T15:08:21Z</time>
      </trkpt>
      <trkpt lat="47.65225" lon="6.18314">
        <ele>261.3</ele>
        <time>2022-02-23T15:08:26Z</time>
      </trkpt>
      <trkpt lat="47.65232" lon="6.18316">
        <ele>261.4</ele>
        <time>2022-02-23T15:08:28Z</time>
      </trkpt>
      <trkpt lat="47.65253" lon="6.18324">
        <ele>261.7</ele>
        <time>2022-02-23T15:08:32Z</time>
      </trkpt>
      <trkpt lat="47.65275" lon="6.18331">
        <ele>262</ele>
        <time>2022-02-23T15:08:34Z</time>
      </trkpt>
      <trkpt lat="47.65281" lon="6.1833">
        <ele>261.9</ele>
        <time>2022-02-23T15:08:36Z</time>
      </trkpt>
      <trkpt lat="47.65293" lon="6.18325">
        <ele>261.1</ele>
        <time>2022-02-23T15:08:39Z</time>
      </trkpt>
      <trkpt lat="47.65298" lon="6.18322">
        <ele>260.6</ele>
        <time>2022-02-23T15:08:41Z</time>
      </trkpt>
      <trkpt lat="47.65311" lon="6.18317">
        <ele>257.9</ele>
        <time>2022-02-23T15:08:43Z</time>
      </trkpt>
      <trkpt lat="47.65335" lon="6.18307">
        <ele>248.9</ele>
        <time>2022-02-23T15:08:44Z</time>
      </trkpt>
      <trkpt lat="47.6535" lon="6.183">
        <ele>243.3</ele>
        <time>2022-02-23T15:08:44Z</time>
      </trkpt>
      <trkpt lat="47.65357" lon="6.18296">
        <ele>240.5</ele>
        <time>2022-02-23T15:08:50Z</time>
      </trkpt>
      <trkpt lat="47.6537" lon="6.18291">
        <ele>237.2</ele>
        <time>2022-02-23T15:08:51Z</time>
      </trkpt>
      <trkpt lat="47.65375" lon="6.18289">
        <ele>236</ele>
        <time>2022-02-23T15:08:53Z</time>
      </trkpt>
      <trkpt lat="47.65387" lon="6.18284">
        <ele>233.3</ele>
        <time>2022-02-23T15:08:56Z</time>
      </trkpt>
      <trkpt lat="47.65402" lon="6.18278">
        <ele>231.5</ele>
        <time>2022-02-23T15:08:59Z</time>
      </trkpt>
      <trkpt lat="47.65414" lon="6.18271">
        <ele>230.1</ele>
        <time>2022-02-23T15:09:02Z</time>
      </trkpt>
      <trkpt lat="47.65428" lon="6.18264">
        <ele>229</ele>
        <time>2022-02-23T15:09:05Z</time>
      </trkpt>
      <trkpt lat="47.65432" lon="6.18262">
        <ele>228.7</ele>
        <time>2022-02-23T15:09:06Z</time>
      </trkpt>
      <trkpt lat="47.65447" lon="6.18257">
        <ele>228.1</ele>
        <time>2022-02-23T15:09:09Z</time>
      </trkpt>
      <trkpt lat="47.65452" lon="6.18255">
        <ele>228</ele>
        <time>2022-02-23T15:09:10Z</time>
      </trkpt>
      <trkpt lat="47.65458" lon="6.18251">
        <ele>227.7</ele>
        <time>2022-02-23T15:09:12Z</time>
      </trkpt>
      <trkpt lat="47.65465" lon="6.18244">
        <ele>227.3</ele>
        <time>2022-02-23T15:09:14Z</time>
      </trkpt>
      <trkpt lat="47.65473" lon="6.18234">
        <ele>226.9</ele>
        <time>2022-02-23T15:09:14Z</time>
      </trkpt>
      <trkpt lat="47.65477" lon="6.18229">
        <ele>226.7</ele>
        <time>2022-02-23T15:09:16Z</time>
      </trkpt>
      <trkpt lat="47.65509" lon="6.1821">
        <ele>226.7</ele>
        <time>2022-02-23T15:09:16Z</time>
      </trkpt>
      <trkpt lat="47.6552" lon="6.18206">
        <ele>227.3</ele>
        <time>2022-02-23T15:09:17Z</time>
      </trkpt>
      <trkpt lat="47.65531" lon="6.18205">
        <ele>228.1</ele>
        <time>2022-02-23T15:09:18Z</time>
      </trkpt>
      <trkpt lat="47.65539" lon="6.18201">
        <ele>228.8</ele>
        <time>2022-02-23T15:09:24Z</time>
      </trkpt>
      <trkpt lat="47.65525" lon="6.18202">
        <ele>227.3</ele>
        <time>2022-02-23T15:09:25Z</time>
      </trkpt>
      <trkpt lat="47.65531" lon="6.18196">
        <ele>227.4</ele>
        <time>2022-02-23T15:09:28Z</time>
      </trkpt>
      <trkpt lat="47.65546" lon="6.18188">
        <ele>228.2</ele>
        <time>2022-02-23T15:09:28Z</time>
      </trkpt>
      <trkpt lat="47.65558" lon="6.18182">
        <ele>228.5</ele>
        <time>2022-02-23T15:09:29Z</time>
      </trkpt>
      <trkpt lat="47.65562" lon="6.18178">
        <ele>228.3</ele>
        <time>2022-02-23T15:09:30Z</time>
      </trkpt>
      <trkpt lat="47.65572" lon="6.18173">
        <ele>228.7</ele>
        <time>2022-02-23T15:09:30Z</time>
      </trkpt>
      <trkpt lat="47.6558" lon="6.18169">
        <ele>229</ele>
        <time>2022-02-23T15:09:32Z</time>
      </trkpt>
      <trkpt lat="47.65585" lon="6.18168">
        <ele>229.3</ele>
        <time>2022-02-23T15:09:32Z</time>
      </trkpt>
      <trkpt lat="47.65609" lon="6.18165">
        <ele>230.7</ele>
        <time>2022-02-23T15:09:33Z</time>
      </trkpt>
      <trkpt lat="47.65613" lon="6.18162">
        <ele>230.8</ele>
        <time>2022-02-23T15:09:37Z</time>
      </trkpt>
      <trkpt lat="47.65614" lon="6.18155">
        <ele>230.4</ele>
        <time>2022-02-23T15:09:39Z</time>
      </trkpt>
      <trkpt lat="47.65619" lon="6.1815">
        <ele>230.5</ele>
        <time>2022-02-23T15:09:41Z</time>
      </trkpt>
      <trkpt lat="47.65627" lon="6.18138">
        <ele>230</ele>
        <time>2022-02-23T15:09:44Z</time>
      </trkpt>
      <trkpt lat="47.65634" lon="6.18123">
        <ele>229</ele>
        <time>2022-02-23T15:09:47Z</time>
      </trkpt>
      <trkpt lat="47.65644" lon="6.18107">
        <ele>228.4</ele>
        <time>2022-02-23T15:09:47Z</time>
      </trkpt>
      <trkpt lat="47.65648" lon="6.181">
        <ele>228.4</ele>
        <time>2022-02-23T15:09:52Z</time>
      </trkpt>
      <trkpt lat="47.65652" lon="6.18096">
        <ele>228.5</ele>
        <time>2022-02-23T15:09:53Z</time>
      </trkpt>
      <trkpt lat="47.65656" lon="6.1809">
        <ele>228.5</ele>
        <time>2022-02-23T15:09:54Z</time>
      </trkpt>
      <trkpt lat="47.65662" lon="6.18084">
        <ele>228.6</ele>
        <time>2022-02-23T15:09:56Z</time>
      </trkpt>
      <trkpt lat="47.65669" lon="6.18077">
        <ele>228.9</ele>
        <time>2022-02-23T15:09:58Z</time>
      </trkpt>
      <trkpt lat="47.65673" lon="6.18073">
        <ele>229.4</ele>
        <time>2022-02-23T15:10:00Z</time>
      </trkpt>
      <trkpt lat="47.65679" lon="6.18067">
        <ele>230</ele>
        <time>2022-02-23T15:10:01Z</time>
      </trkpt>
      <trkpt lat="47.6569" lon="6.18058">
        <ele>231.5</ele>
        <time>2022-02-23T15:10:05Z</time>
      </trkpt>
      <trkpt lat="47.65697" lon="6.18055">
        <ele>232.2</ele>
        <time>2022-02-23T15:10:08Z</time>
      </trkpt>
      <trkpt lat="47.65702" lon="6.18052">
        <ele>232.5</ele>
        <time>2022-02-23T15:10:10Z</time>
      </trkpt>
      <trkpt lat="47.65712" lon="6.18046">
        <ele>233.1</ele>
        <time>2022-02-23T15:10:11Z</time>
      </trkpt>
      <trkpt lat="47.65717" lon="6.18044">
        <ele>233.6</ele>
        <time>2022-02-23T15:10:13Z</time>
      </trkpt>
      <trkpt lat="47.65723" lon="6.18041">
        <ele>234.1</ele>
        <time>2022-02-23T15:10:15Z</time>
      </trkpt>
      <trkpt lat="47.65728" lon="6.1804">
        <ele>234.6</ele>
        <time>2022-02-23T15:10:19Z</time>
      </trkpt>
      <trkpt lat="47.65733" lon="6.18038">
        <ele>235.2</ele>
        <time>2022-02-23T15:10:21Z</time>
      </trkpt>
      <trkpt lat="47.65744" lon="6.18036">
        <ele>236.5</ele>
        <time>2022-02-23T15:10:24Z</time>
      </trkpt>
      <trkpt lat="47.65755" lon="6.18031">
        <ele>237.3</ele>
        <time>2022-02-23T15:10:26Z</time>
      </trkpt>
      <trkpt lat="47.65761" lon="6.18028">
        <ele>237.7</ele>
        <time>2022-02-23T15:10:28Z</time>
      </trkpt>
      <trkpt lat="47.65767" lon="6.18026">
        <ele>238.3</ele>
        <time>2022-02-23T15:10:30Z</time>
      </trkpt>
      <trkpt lat="47.65772" lon="6.18023">
        <ele>238.7</ele>
        <time>2022-02-23T15:10:32Z</time>
      </trkpt>
      <trkpt lat="47.65777" lon="6.1802">
        <ele>239</ele>
        <time>2022-02-23T15:10:34Z</time>
      </trkpt>
      <trkpt lat="47.65781" lon="6.18016">
        <ele>239.1</ele>
        <time>2022-02-23T15:10:38Z</time>
      </trkpt>
      <trkpt lat="47.65786" lon="6.18012">
        <ele>239</ele>
        <time>2022-02-23T15:10:40Z</time>
      </trkpt>
      <trkpt lat="47.65797" lon="6.18005">
        <ele>239</ele>
        <time>2022-02-23T15:10:44Z</time>
      </trkpt>
      <trkpt lat="47.65803" lon="6.18">
        <ele>238.8</ele>
        <time>2022-02-23T15:10:46Z</time>
      </trkpt>
      <trkpt lat="47.65807" lon="6.17997">
        <ele>238.7</ele>
        <time>2022-02-23T15:10:47Z</time>
      </trkpt>
      <trkpt lat="47.65819" lon="6.17988">
        <ele>238.2</ele>
        <time>2022-02-23T15:10:50Z</time>
      </trkpt>
      <trkpt lat="47.65837" lon="6.17973">
        <ele>237.1</ele>
        <time>2022-02-23T15:10:51Z</time>
      </trkpt>
      <trkpt lat="47.65842" lon="6.1797">
        <ele>236.7</ele>
        <time>2022-02-23T15:10:52Z</time>
      </trkpt>
      <trkpt lat="47.65846" lon="6.17967">
        <ele>236.4</ele>
        <time>2022-02-23T15:10:53Z</time>
      </trkpt>
      <trkpt lat="47.6585" lon="6.17964">
        <ele>236.1</ele>
        <time>2022-02-23T15:10:54Z</time>
      </trkpt>
      <trkpt lat="47.65855" lon="6.17961">
        <ele>235.8</ele>
        <time>2022-02-23T15:10:55Z</time>
      </trkpt>
      <trkpt lat="47.6586" lon="6.1796">
        <ele>235.6</ele>
        <time>2022-02-23T15:10:56Z</time>
      </trkpt>
      <trkpt lat="47.65865" lon="6.17958">
        <ele>235.4</ele>
        <time>2022-02-23T15:10:57Z</time>
      </trkpt>
      <trkpt lat="47.6587" lon="6.17957">
        <ele>235.2</ele>
        <time>2022-02-23T15:10:58Z</time>
      </trkpt>
      <trkpt lat="47.65876" lon="6.17956">
        <ele>235</ele>
        <time>2022-02-23T15:10:59Z</time>
      </trkpt>
      <trkpt lat="47.65881" lon="6.17956">
        <ele>234.9</ele>
        <time>2022-02-23T15:11:00Z</time>
      </trkpt>
      <trkpt lat="47.65886" lon="6.17957">
        <ele>234.9</ele>
        <time>2022-02-23T15:11:01Z</time>
      </trkpt>
      <trkpt lat="47.65891" lon="6.17959">
        <ele>235</ele>
        <time>2022-02-23T15:11:02Z</time>
      </trkpt>
      <trkpt lat="47.65895" lon="6.17963">
        <ele>235.2</ele>
        <time>2022-02-23T15:11:03Z</time>
      </trkpt>
      <trkpt lat="47.65901" lon="6.17971">
        <ele>235.5</ele>
        <time>2022-02-23T15:11:05Z</time>
      </trkpt>
      <trkpt lat="47.65907" lon="6.17975">
        <ele>235.6</ele>
        <time>2022-02-23T15:11:07Z</time>
      </trkpt>
      <trkpt lat="47.65912" lon="6.17978">
        <ele>235.8</ele>
        <time>2022-02-23T15:11:09Z</time>
      </trkpt>
      <trkpt lat="47.65916" lon="6.17983">
        <ele>236.1</ele>
        <time>2022-02-23T15:11:11Z</time>
      </trkpt>
      <trkpt lat="47.65922" lon="6.17987">
        <ele>236.6</ele>
        <time>2022-02-23T15:11:16Z</time>
      </trkpt>
      <trkpt lat="47.65927" lon="6.1799">
        <ele>236.9</ele>
        <time>2022-02-23T15:11:18Z</time>
      </trkpt>
      <trkpt lat="47.65932" lon="6.17993">
        <ele>237.3</ele>
        <time>2022-02-23T15:11:20Z</time>
      </trkpt>
      <trkpt lat="47.65936" lon="6.17997">
        <ele>237.6</ele>
        <time>2022-02-23T15:11:23Z</time>
      </trkpt>
      <trkpt lat="47.65945" lon="6.18003">
        <ele>238.2</ele>
        <time>2022-02-23T15:11:24Z</time>
      </trkpt>
      <trkpt lat="47.65949" lon="6.18006">
        <ele>238.3</ele>
        <time>2022-02-23T15:11:26Z</time>
      </trkpt>
      <trkpt lat="47.65954" lon="6.18012">
        <ele>238.6</ele>
        <time>2022-02-23T15:11:29Z</time>
      </trkpt>
      <trkpt lat="47.65958" lon="6.18016">
        <ele>239</ele>
        <time>2022-02-23T15:11:34Z</time>
      </trkpt>
      <trkpt lat="47.65967" lon="6.18025">
        <ele>239.7</ele>
        <time>2022-02-23T15:11:40Z</time>
      </trkpt>
      <trkpt lat="47.65975" lon="6.18035">
        <ele>240.7</ele>
        <time>2022-02-23T15:11:42Z</time>
      </trkpt>
      <trkpt lat="47.65979" lon="6.1804">
        <ele>241.3</ele>
        <time>2022-02-23T15:11:45Z</time>
      </trkpt>
      <trkpt lat="47.65984" lon="6.18045">
        <ele>241.8</ele>
        <time>2022-02-23T15:11:48Z</time>
      </trkpt>
      <trkpt lat="47.65988" lon="6.1805">
        <ele>242.4</ele>
        <time>2022-02-23T15:11:51Z</time>
      </trkpt>
      <trkpt lat="47.65992" lon="6.18055">
        <ele>242.9</ele>
        <time>2022-02-23T15:11:54Z</time>
      </trkpt>
      <trkpt lat="47.65997" lon="6.18058">
        <ele>243.2</ele>
        <time>2022-02-23T15:11:57Z</time>
      </trkpt>
      <trkpt lat="47.66" lon="6.18063">
        <ele>243.5</ele>
        <time>2022-02-23T15:12:00Z</time>
      </trkpt>
      <trkpt lat="47.66003" lon="6.18067">
        <ele>243.8</ele>
        <time>2022-02-23T15:12:03Z</time>
      </trkpt>
      <trkpt lat="47.66007" lon="6.18073">
        <ele>244.3</ele>
        <time>2022-02-23T15:12:07Z</time>
      </trkpt>
      <trkpt lat="47.66011" lon="6.18079">
        <ele>244.7</ele>
        <time>2022-02-23T15:12:11Z</time>
      </trkpt>
      <trkpt lat="47.66014" lon="6.18085">
        <ele>245.2</ele>
        <time>2022-02-23T15:12:15Z</time>
      </trkpt>
      <trkpt lat="47.66019" lon="6.18091">
        <ele>245.9</ele>
        <time>2022-02-23T15:12:19Z</time>
      </trkpt>
      <trkpt lat="47.66023" lon="6.18096">
        <ele>246.5</ele>
        <time>2022-02-23T15:12:23Z</time>
      </trkpt>
      <trkpt lat="47.66028" lon="6.18101">
        <ele>246.9</ele>
        <time>2022-02-23T15:12:27Z</time>
      </trkpt>
      <trkpt lat="47.66033" lon="6.18105">
        <ele>247.5</ele>
        <time>2022-02-23T15:12:30Z</time>
      </trkpt>
      <trkpt lat="47.66039" lon="6.18106">
        <ele>247.8</ele>
        <time>2022-02-23T15:12:33Z</time>
      </trkpt>
      <trkpt lat="47.66044" lon="6.18108">
        <ele>248.2</ele>
        <time>2022-02-23T15:12:36Z</time>
      </trkpt>
      <trkpt lat="47.66049" lon="6.1811">
        <ele>248.6</ele>
        <time>2022-02-23T15:12:39Z</time>
      </trkpt>
      <trkpt lat="47.66055" lon="6.18112">
        <ele>249.1</ele>
        <time>2022-02-23T15:12:43Z</time>
      </trkpt>
      <trkpt lat="47.6606" lon="6.18114">
        <ele>249.4</ele>
        <time>2022-02-23T15:12:46Z</time>
      </trkpt>
      <trkpt lat="47.66065" lon="6.18115">
        <ele>249.6</ele>
        <time>2022-02-23T15:12:49Z</time>
      </trkpt>
      <trkpt lat="47.6607" lon="6.18117">
        <ele>249.9</ele>
        <time>2022-02-23T15:12:52Z</time>
      </trkpt>
      <trkpt lat="47.66075" lon="6.18119">
        <ele>250.1</ele>
        <time>2022-02-23T15:12:55Z</time>
      </trkpt>
      <trkpt lat="47.6608" lon="6.1812">
        <ele>250.3</ele>
        <time>2022-02-23T15:12:58Z</time>
      </trkpt>
      <trkpt lat="47.66084" lon="6.18121">
        <ele>250.5</ele>
        <time>2022-02-23T15:13:01Z</time>
      </trkpt>
      <trkpt lat="47.66088" lon="6.18124">
        <ele>250.9</ele>
        <time>2022-02-23T15:13:04Z</time>
      </trkpt>
      <trkpt lat="47.66094" lon="6.18127">
        <ele>251.2</ele>
        <time>2022-02-23T15:13:07Z</time>
      </trkpt>
      <trkpt lat="47.661" lon="6.18128">
        <ele>251.5</ele>
        <time>2022-02-23T15:13:10Z</time>
      </trkpt>
      <trkpt lat="47.66105" lon="6.1813">
        <ele>251.8</ele>
        <time>2022-02-23T15:13:13Z</time>
      </trkpt>
      <trkpt lat="47.6611" lon="6.18133">
        <ele>252.1</ele>
        <time>2022-02-23T15:13:16Z</time>
      </trkpt>
      <trkpt lat="47.66114" lon="6.18135">
        <ele>252.3</ele>
        <time>2022-02-23T15:13:19Z</time>
      </trkpt>
      <trkpt lat="47.66119" lon="6.1814">
        <ele>252.8</ele>
        <time>2022-02-23T15:13:23Z</time>
      </trkpt>
      <trkpt lat="47.66124" lon="6.18142">
        <ele>252.9</ele>
        <time>2022-02-23T15:13:27Z</time>
      </trkpt>
      <trkpt lat="47.6613" lon="6.18143">
        <ele>252.7</ele>
        <time>2022-02-23T15:13:30Z</time>
      </trkpt>
      <trkpt lat="47.66134" lon="6.18147">
        <ele>253</ele>
        <time>2022-02-23T15:13:33Z</time>
      </trkpt>
      <trkpt lat="47.66138" lon="6.18149">
        <ele>253.2</ele>
        <time>2022-02-23T15:13:35Z</time>
      </trkpt>
      <trkpt lat="47.66143" lon="6.18152">
        <ele>253.4</ele>
        <time>2022-02-23T15:13:38Z</time>
      </trkpt>
      <trkpt lat="47.66148" lon="6.18155">
        <ele>253.7</ele>
        <time>2022-02-23T15:13:42Z</time>
      </trkpt>
      <trkpt lat="47.66153" lon="6.18157">
        <ele>254</ele>
        <time>2022-02-23T15:13:46Z</time>
      </trkpt>
      <trkpt lat="47.66158" lon="6.18159">
        <ele>254.2</ele>
        <time>2022-02-23T15:13:50Z</time>
      </trkpt>
      <trkpt lat="47.66163" lon="6.18164">
        <ele>254.7</ele>
        <time>2022-02-23T15:13:54Z</time>
      </trkpt>
      <trkpt lat="47.66167" lon="6.1817">
        <ele>255.3</ele>
        <time>2022-02-23T15:13:58Z</time>
      </trkpt>
      <trkpt lat="47.66172" lon="6.18175">
        <ele>255.6</ele>
        <time>2022-02-23T15:14:01Z</time>
      </trkpt>
      <trkpt lat="47.66177" lon="6.18179">
        <ele>255.7</ele>
        <time>2022-02-23T15:14:04Z</time>
      </trkpt>
      <trkpt lat="47.66182" lon="6.18182">
        <ele>255.9</ele>
        <time>2022-02-23T15:14:07Z</time>
      </trkpt>
      <trkpt lat="47.66187" lon="6.18187">
        <ele>256.2</ele>
        <time>2022-02-23T15:14:10Z</time>
      </trkpt>
      <trkpt lat="47.66191" lon="6.18191">
        <ele>256.7</ele>
        <time>2022-02-23T15:14:13Z</time>
      </trkpt>
      <trkpt lat="47.66194" lon="6.18195">
        <ele>257.1</ele>
        <time>2022-02-23T15:14:16Z</time>
      </trkpt>
      <trkpt lat="47.66196" lon="6.18201">
        <ele>257.5</ele>
        <time>2022-02-23T15:14:19Z</time>
      </trkpt>
      <trkpt lat="47.66199" lon="6.18208">
        <ele>257.9</ele>
        <time>2022-02-23T15:14:22Z</time>
      </trkpt>
      <trkpt lat="47.66203" lon="6.18213">
        <ele>258</ele>
        <time>2022-02-23T15:14:25Z</time>
      </trkpt>
      <trkpt lat="47.66208" lon="6.18218">
        <ele>258.1</ele>
        <time>2022-02-23T15:14:28Z</time>
      </trkpt>
      <trkpt lat="47.66212" lon="6.18224">
        <ele>258.3</ele>
        <time>2022-02-23T15:14:31Z</time>
      </trkpt>
      <trkpt lat="47.66216" lon="6.18229">
        <ele>258.4</ele>
        <time>2022-02-23T15:14:34Z</time>
      </trkpt>
      <trkpt lat="47.66222" lon="6.18235">
        <ele>258.5</ele>
        <time>2022-02-23T15:14:38Z</time>
      </trkpt>
      <trkpt lat="47.66225" lon="6.18241">
        <ele>258.7</ele>
        <time>2022-02-23T15:14:42Z</time>
      </trkpt>
      <trkpt lat="47.66228" lon="6.18246">
        <ele>259</ele>
        <time>2022-02-23T15:14:45Z</time>
      </trkpt>
      <trkpt lat="47.6623" lon="6.18254">
        <ele>259.6</ele>
        <time>2022-02-23T15:14:49Z</time>
      </trkpt>
      <trkpt lat="47.66232" lon="6.1826">
        <ele>260.1</ele>
        <time>2022-02-23T15:14:52Z</time>
      </trkpt>
      <trkpt lat="47.66234" lon="6.18267">
        <ele>260.6</ele>
        <time>2022-02-23T15:14:56Z</time>
      </trkpt>
      <trkpt lat="47.66236" lon="6.18275">
        <ele>261.2</ele>
        <time>2022-02-23T15:15:00Z</time>
      </trkpt>
      <trkpt lat="47.66237" lon="6.18282">
        <ele>261.7</ele>
        <time>2022-02-23T15:15:03Z</time>
      </trkpt>
      <trkpt lat="47.66239" lon="6.1829">
        <ele>262.1</ele>
        <time>2022-02-23T15:15:07Z</time>
      </trkpt>
      <trkpt lat="47.6624" lon="6.18298">
        <ele>262.5</ele>
        <time>2022-02-23T15:15:11Z</time>
      </trkpt>
      <trkpt lat="47.66239" lon="6.18305">
        <ele>263.2</ele>
        <time>2022-02-23T15:15:19Z</time>
      </trkpt>
      <trkpt lat="47.66234" lon="6.18309">
        <ele>264</ele>
        <time>2022-02-23T15:15:20Z</time>
      </trkpt>
      <trkpt lat="47.6623" lon="6.18308">
        <ele>264.4</ele>
        <time>2022-02-23T15:15:26Z</time>
      </trkpt>
      <trkpt lat="47.66218" lon="6.18309">
        <ele>265.8</ele>
        <time>2022-02-23T15:15:29Z</time>
      </trkpt>
      <trkpt lat="47.66214" lon="6.18307">
        <ele>266.1</ele>
        <time>2022-02-23T15:15:34Z</time>
      </trkpt>
      <trkpt lat="47.66208" lon="6.18304">
        <ele>266.4</ele>
        <time>2022-02-23T15:15:35Z</time>
      </trkpt>
      <trkpt lat="47.66203" lon="6.18302">
        <ele>266.7</ele>
        <time>2022-02-23T15:15:38Z</time>
      </trkpt>
      <trkpt lat="47.66199" lon="6.18299">
        <ele>266.9</ele>
        <time>2022-02-23T15:15:41Z</time>
      </trkpt>
      <trkpt lat="47.66195" lon="6.18297">
        <ele>267.1</ele>
        <time>2022-02-23T15:15:44Z</time>
      </trkpt>
      <trkpt lat="47.66189" lon="6.18295">
        <ele>267.5</ele>
        <time>2022-02-23T15:15:48Z</time>
      </trkpt>
      <trkpt lat="47.66183" lon="6.18293">
        <ele>268</ele>
        <time>2022-02-23T15:15:52Z</time>
      </trkpt>
      <trkpt lat="47.66178" lon="6.18289">
        <ele>268.3</ele>
        <time>2022-02-23T15:15:59Z</time>
      </trkpt>
      <trkpt lat="47.66168" lon="6.18282">
        <ele>269.2</ele>
        <time>2022-02-23T15:16:02Z</time>
      </trkpt>
      <trkpt lat="47.66162" lon="6.18279">
        <ele>269.4</ele>
        <time>2022-02-23T15:16:05Z</time>
      </trkpt>
      <trkpt lat="47.66157" lon="6.18276">
        <ele>269.4</ele>
        <time>2022-02-23T15:16:08Z</time>
      </trkpt>
      <trkpt lat="47.66153" lon="6.18271">
        <ele>269.2</ele>
        <time>2022-02-23T15:16:11Z</time>
      </trkpt>
      <trkpt lat="47.66148" lon="6.18267">
        <ele>269.1</ele>
        <time>2022-02-23T15:16:14Z</time>
      </trkpt>
      <trkpt lat="47.66143" lon="6.18263">
        <ele>269.1</ele>
        <time>2022-02-23T15:16:17Z</time>
      </trkpt>
      <trkpt lat="47.66138" lon="6.1826">
        <ele>269.2</ele>
        <time>2022-02-23T15:16:20Z</time>
      </trkpt>
      <trkpt lat="47.66132" lon="6.18258">
        <ele>269.3</ele>
        <time>2022-02-23T15:16:23Z</time>
      </trkpt>
      <trkpt lat="47.66127" lon="6.18256">
        <ele>269.5</ele>
        <time>2022-02-23T15:16:25Z</time>
      </trkpt>
      <trkpt lat="47.66122" lon="6.18254">
        <ele>269.6</ele>
        <time>2022-02-23T15:16:27Z</time>
      </trkpt>
      <trkpt lat="47.66117" lon="6.18253">
        <ele>269.8</ele>
        <time>2022-02-23T15:16:29Z</time>
      </trkpt>
      <trkpt lat="47.66112" lon="6.18252">
        <ele>270.1</ele>
        <time>2022-02-23T15:16:31Z</time>
      </trkpt>
      <trkpt lat="47.66108" lon="6.18251">
        <ele>270.1</ele>
        <time>2022-02-23T15:16:36Z</time>
      </trkpt>
      <trkpt lat="47.66096" lon="6.1825">
        <ele>270</ele>
        <time>2022-02-23T15:16:40Z</time>
      </trkpt>
      <trkpt lat="47.66091" lon="6.18249">
        <ele>269.9</ele>
        <time>2022-02-23T15:16:42Z</time>
      </trkpt>
      <trkpt lat="47.66085" lon="6.18248">
        <ele>269.7</ele>
        <time>2022-02-23T15:16:44Z</time>
      </trkpt>
      <trkpt lat="47.66071" lon="6.18244">
        <ele>269.5</ele>
        <time>2022-02-23T15:16:48Z</time>
      </trkpt>
      <trkpt lat="47.66065" lon="6.18244">
        <ele>269.5</ele>
        <time>2022-02-23T15:16:51Z</time>
      </trkpt>
      <trkpt lat="47.6606" lon="6.18244">
        <ele>269.5</ele>
        <time>2022-02-23T15:16:52Z</time>
      </trkpt>
      <trkpt lat="47.66054" lon="6.18245">
        <ele>269.6</ele>
        <time>2022-02-23T15:16:54Z</time>
      </trkpt>
      <trkpt lat="47.66043" lon="6.18246">
        <ele>269.7</ele>
        <time>2022-02-23T15:16:58Z</time>
      </trkpt>
      <trkpt lat="47.66037" lon="6.18247">
        <ele>269.8</ele>
        <time>2022-02-23T15:17:00Z</time>
      </trkpt>
      <trkpt lat="47.66025" lon="6.18244">
        <ele>269.5</ele>
        <time>2022-02-23T15:17:04Z</time>
      </trkpt>
      <trkpt lat="47.6602" lon="6.18237">
        <ele>269.1</ele>
        <time>2022-02-23T15:17:05Z</time>
      </trkpt>
      <trkpt lat="47.66016" lon="6.18233">
        <ele>268.8</ele>
        <time>2022-02-23T15:17:06Z</time>
      </trkpt>
      <trkpt lat="47.66011" lon="6.18231">
        <ele>268.6</ele>
        <time>2022-02-23T15:17:08Z</time>
      </trkpt>
      <trkpt lat="47.65997" lon="6.18227">
        <ele>268.2</ele>
        <time>2022-02-23T15:17:10Z</time>
      </trkpt>
      <trkpt lat="47.65992" lon="6.18226">
        <ele>268</ele>
        <time>2022-02-23T15:17:11Z</time>
      </trkpt>
      <trkpt lat="47.65963" lon="6.18216">
        <ele>266.1</ele>
        <time>2022-02-23T15:17:12Z</time>
      </trkpt>
      <trkpt lat="47.65956" lon="6.1821">
        <ele>265.4</ele>
        <time>2022-02-23T15:17:13Z</time>
      </trkpt>
      <trkpt lat="47.65949" lon="6.18204">
        <ele>264.8</ele>
        <time>2022-02-23T15:17:14Z</time>
      </trkpt>
      <trkpt lat="47.65942" lon="6.18199">
        <ele>264.3</ele>
        <time>2022-02-23T15:17:15Z</time>
      </trkpt>
      <trkpt lat="47.65934" lon="6.18194">
        <ele>264</ele>
        <time>2022-02-23T15:17:16Z</time>
      </trkpt>
      <trkpt lat="47.65927" lon="6.18191">
        <ele>263.7</ele>
        <time>2022-02-23T15:17:17Z</time>
      </trkpt>
      <trkpt lat="47.65919" lon="6.18188">
        <ele>263.6</ele>
        <time>2022-02-23T15:17:18Z</time>
      </trkpt>
      <trkpt lat="47.65911" lon="6.18186">
        <ele>263.4</ele>
        <time>2022-02-23T15:17:19Z</time>
      </trkpt>
      <trkpt lat="47.65904" lon="6.18185">
        <ele>263.3</ele>
        <time>2022-02-23T15:17:20Z</time>
      </trkpt>
      <trkpt lat="47.65897" lon="6.18183">
        <ele>263.2</ele>
        <time>2022-02-23T15:17:21Z</time>
      </trkpt>
      <trkpt lat="47.6589" lon="6.18181">
        <ele>263</ele>
        <time>2022-02-23T15:17:22Z</time>
      </trkpt>
      <trkpt lat="47.65883" lon="6.18179">
        <ele>263</ele>
        <time>2022-02-23T15:17:23Z</time>
      </trkpt>
      <trkpt lat="47.65877" lon="6.18178">
        <ele>263.1</ele>
        <time>2022-02-23T15:17:24Z</time>
      </trkpt>
      <trkpt lat="47.65871" lon="6.18176">
        <ele>263.1</ele>
        <time>2022-02-23T15:17:25Z</time>
      </trkpt>
      <trkpt lat="47.65865" lon="6.18175">
        <ele>263.2</ele>
        <time>2022-02-23T15:17:26Z</time>
      </trkpt>
      <trkpt lat="47.6586" lon="6.18175">
        <ele>263.3</ele>
        <time>2022-02-23T15:17:27Z</time>
      </trkpt>
      <trkpt lat="47.65854" lon="6.18183">
        <ele>263.6</ele>
        <time>2022-02-23T15:17:29Z</time>
      </trkpt>
      <trkpt lat="47.65853" lon="6.18192">
        <ele>263.9</ele>
        <time>2022-02-23T15:17:31Z</time>
      </trkpt>
      <trkpt lat="47.65856" lon="6.18199">
        <ele>264.4</ele>
        <time>2022-02-23T15:17:33Z</time>
      </trkpt>
      <trkpt lat="47.65857" lon="6.18206">
        <ele>264.8</ele>
        <time>2022-02-23T15:17:35Z</time>
      </trkpt>
      <trkpt lat="47.65856" lon="6.18213">
        <ele>265.3</ele>
        <time>2022-02-23T15:17:42Z</time>
      </trkpt>
      <trkpt lat="47.65854" lon="6.1822">
        <ele>265.9</ele>
        <time>2022-02-23T15:17:44Z</time>
      </trkpt>
      <trkpt lat="47.65852" lon="6.18226">
        <ele>266.2</ele>
        <time>2022-02-23T15:17:46Z</time>
      </trkpt>
      <trkpt lat="47.65847" lon="6.18231">
        <ele>266.5</ele>
        <time>2022-02-23T15:17:49Z</time>
      </trkpt>
      <trkpt lat="47.65842" lon="6.18237">
        <ele>266.9</ele>
        <time>2022-02-23T15:17:53Z</time>
      </trkpt>
      <trkpt lat="47.65837" lon="6.18241">
        <ele>267.2</ele>
        <time>2022-02-23T15:17:55Z</time>
      </trkpt>
      <trkpt lat="47.65828" lon="6.18247">
        <ele>267.6</ele>
        <time>2022-02-23T15:18:00Z</time>
      </trkpt>
      <trkpt lat="47.65822" lon="6.18251">
        <ele>267.7</ele>
        <time>2022-02-23T15:18:03Z</time>
      </trkpt>
      <trkpt lat="47.65817" lon="6.18254">
        <ele>267.6</ele>
        <time>2022-02-23T15:18:06Z</time>
      </trkpt>
      <trkpt lat="47.65805" lon="6.18262">
        <ele>267.8</ele>
        <time>2022-02-23T15:18:08Z</time>
      </trkpt>
      <trkpt lat="47.658" lon="6.18265">
        <ele>267.9</ele>
        <time>2022-02-23T15:18:10Z</time>
      </trkpt>
      <trkpt lat="47.65795" lon="6.18268">
        <ele>267.9</ele>
        <time>2022-02-23T15:18:12Z</time>
      </trkpt>
      <trkpt lat="47.6579" lon="6.18271">
        <ele>267.9</ele>
        <time>2022-02-23T15:18:14Z</time>
      </trkpt>
      <trkpt lat="47.65785" lon="6.18275">
        <ele>268</ele>
        <time>2022-02-23T15:18:16Z</time>
      </trkpt>
      <trkpt lat="47.65781" lon="6.18278">
        <ele>268.1</ele>
        <time>2022-02-23T15:18:18Z</time>
      </trkpt>
      <trkpt lat="47.65776" lon="6.18281">
        <ele>268</ele>
        <time>2022-02-23T15:18:19Z</time>
      </trkpt>
      <trkpt lat="47.65772" lon="6.18285">
        <ele>267.9</ele>
        <time>2022-02-23T15:18:21Z</time>
      </trkpt>
      <trkpt lat="47.65767" lon="6.18289">
        <ele>267.7</ele>
        <time>2022-02-23T15:18:23Z</time>
      </trkpt>
      <trkpt lat="47.65762" lon="6.18294">
        <ele>267.5</ele>
        <time>2022-02-23T15:18:25Z</time>
      </trkpt>
      <trkpt lat="47.65758" lon="6.18299">
        <ele>267.3</ele>
        <time>2022-02-23T15:18:27Z</time>
      </trkpt>
      <trkpt lat="47.65753" lon="6.18303">
        <ele>267.1</ele>
        <time>2022-02-23T15:18:29Z</time>
      </trkpt>
      <trkpt lat="47.65748" lon="6.18308">
        <ele>267.1</ele>
        <time>2022-02-23T15:18:31Z</time>
      </trkpt>
      <trkpt lat="47.65744" lon="6.18313">
        <ele>267.3</ele>
        <time>2022-02-23T15:18:33Z</time>
      </trkpt>
      <trkpt lat="47.6574" lon="6.18318">
        <ele>267.5</ele>
        <time>2022-02-23T15:18:35Z</time>
      </trkpt>
      <trkpt lat="47.65736" lon="6.18324">
        <ele>267.8</ele>
        <time>2022-02-23T15:18:37Z</time>
      </trkpt>
      <trkpt lat="47.65733" lon="6.18329">
        <ele>268.1</ele>
        <time>2022-02-23T15:18:39Z</time>
      </trkpt>
      <trkpt lat="47.65729" lon="6.18335">
        <ele>268.4</ele>
        <time>2022-02-23T15:18:42Z</time>
      </trkpt>
      <trkpt lat="47.65726" lon="6.18342">
        <ele>269</ele>
        <time>2022-02-23T15:18:45Z</time>
      </trkpt>
      <trkpt lat="47.65723" lon="6.18348">
        <ele>269.6</ele>
        <time>2022-02-23T15:18:48Z</time>
      </trkpt>
      <trkpt lat="47.65719" lon="6.18354">
        <ele>270.2</ele>
        <time>2022-02-23T15:18:52Z</time>
      </trkpt>
      <trkpt lat="47.65715" lon="6.18359">
        <ele>270.7</ele>
        <time>2022-02-23T15:18:55Z</time>
      </trkpt>
      <trkpt lat="47.65711" lon="6.18364">
        <ele>271.3</ele>
        <time>2022-02-23T15:18:58Z</time>
      </trkpt>
      <trkpt lat="47.65706" lon="6.18367">
        <ele>271.8</ele>
        <time>2022-02-23T15:19:01Z</time>
      </trkpt>
      <trkpt lat="47.65699" lon="6.1837">
        <ele>272.3</ele>
        <time>2022-02-23T15:19:04Z</time>
      </trkpt>
      <trkpt lat="47.65695" lon="6.18372">
        <ele>272.5</ele>
        <time>2022-02-23T15:19:06Z</time>
      </trkpt>
      <trkpt lat="47.65689" lon="6.18375">
        <ele>273</ele>
        <time>2022-02-23T15:19:08Z</time>
      </trkpt>
      <trkpt lat="47.65683" lon="6.18377">
        <ele>273.3</ele>
        <time>2022-02-23T15:19:10Z</time>
      </trkpt>
      <trkpt lat="47.65677" lon="6.18379">
        <ele>273.6</ele>
        <time>2022-02-23T15:19:12Z</time>
      </trkpt>
      <trkpt lat="47.65671" lon="6.18381">
        <ele>273.8</ele>
        <time>2022-02-23T15:19:14Z</time>
      </trkpt>
      <trkpt lat="47.65666" lon="6.18381">
        <ele>273.9</ele>
        <time>2022-02-23T15:19:16Z</time>
      </trkpt>
      <trkpt lat="47.6566" lon="6.18382">
        <ele>273.8</ele>
        <time>2022-02-23T15:19:18Z</time>
      </trkpt>
      <trkpt lat="47.65653" lon="6.18383">
        <ele>273.7</ele>
        <time>2022-02-23T15:19:20Z</time>
      </trkpt>
      <trkpt lat="47.65647" lon="6.18384">
        <ele>273.6</ele>
        <time>2022-02-23T15:19:22Z</time>
      </trkpt>
      <trkpt lat="47.65641" lon="6.18386">
        <ele>273.7</ele>
        <time>2022-02-23T15:19:24Z</time>
      </trkpt>
      <trkpt lat="47.65635" lon="6.18389">
        <ele>273.8</ele>
        <time>2022-02-23T15:19:26Z</time>
      </trkpt>
      <trkpt lat="47.65629" lon="6.1839">
        <ele>273.9</ele>
        <time>2022-02-23T15:19:28Z</time>
      </trkpt>
      <trkpt lat="47.65623" lon="6.18393">
        <ele>274.1</ele>
        <time>2022-02-23T15:19:30Z</time>
      </trkpt>
      <trkpt lat="47.65617" lon="6.18396">
        <ele>274.3</ele>
        <time>2022-02-23T15:19:32Z</time>
      </trkpt>
      <trkpt lat="47.6561" lon="6.184">
        <ele>274.5</ele>
        <time>2022-02-23T15:19:34Z</time>
      </trkpt>
      <trkpt lat="47.65604" lon="6.18404">
        <ele>274.6</ele>
        <time>2022-02-23T15:19:40Z</time>
      </trkpt>
      <trkpt lat="47.65599" lon="6.18407">
        <ele>274.7</ele>
        <time>2022-02-23T15:19:41Z</time>
      </trkpt>
      <trkpt lat="47.65593" lon="6.1841">
        <ele>274.8</ele>
        <time>2022-02-23T15:19:43Z</time>
      </trkpt>
      <trkpt lat="47.65579" lon="6.18417">
        <ele>274.5</ele>
        <time>2022-02-23T15:19:43Z</time>
      </trkpt>
      <trkpt lat="47.65572" lon="6.18419">
        <ele>274</ele>
        <time>2022-02-23T15:19:48Z</time>
      </trkpt>
      <trkpt lat="47.65566" lon="6.18421">
        <ele>273.6</ele>
        <time>2022-02-23T15:19:49Z</time>
      </trkpt>
      <trkpt lat="47.65552" lon="6.18426">
        <ele>272.7</ele>
        <time>2022-02-23T15:19:53Z</time>
      </trkpt>
      <trkpt lat="47.65546" lon="6.18428">
        <ele>272.6</ele>
        <time>2022-02-23T15:19:54Z</time>
      </trkpt>
      <trkpt lat="47.65541" lon="6.18432">
        <ele>272.6</ele>
        <time>2022-02-23T15:19:55Z</time>
      </trkpt>
      <trkpt lat="47.65531" lon="6.18438">
        <ele>272.5</ele>
        <time>2022-02-23T15:19:58Z</time>
      </trkpt>
      <trkpt lat="47.65526" lon="6.18442">
        <ele>272.6</ele>
        <time>2022-02-23T15:19:59Z</time>
      </trkpt>
      <trkpt lat="47.65521" lon="6.18445">
        <ele>272.6</ele>
        <time>2022-02-23T15:20:00Z</time>
      </trkpt>
      <trkpt lat="47.65516" lon="6.18449">
        <ele>272.4</ele>
        <time>2022-02-23T15:20:01Z</time>
      </trkpt>
      <trkpt lat="47.65511" lon="6.18453">
        <ele>272.4</ele>
        <time>2022-02-23T15:20:03Z</time>
      </trkpt>
      <trkpt lat="47.65505" lon="6.18457">
        <ele>272.3</ele>
        <time>2022-02-23T15:20:04Z</time>
      </trkpt>
      <trkpt lat="47.65494" lon="6.18466">
        <ele>272.1</ele>
        <time>2022-02-23T15:20:06Z</time>
      </trkpt>
      <trkpt lat="47.65473" lon="6.18482">
        <ele>271.4</ele>
        <time>2022-02-23T15:20:07Z</time>
      </trkpt>
      <trkpt lat="47.65467" lon="6.18486">
        <ele>271.1</ele>
        <time>2022-02-23T15:20:12Z</time>
      </trkpt>
      <trkpt lat="47.65462" lon="6.1849">
        <ele>270.9</ele>
        <time>2022-02-23T15:20:13Z</time>
      </trkpt>
      <trkpt lat="47.65457" lon="6.18494">
        <ele>270.7</ele>
        <time>2022-02-23T15:20:14Z</time>
      </trkpt>
      <trkpt lat="47.65452" lon="6.18499">
        <ele>270.5</ele>
        <time>2022-02-23T15:20:16Z</time>
      </trkpt>
      <trkpt lat="47.65448" lon="6.18503">
        <ele>270.4</ele>
        <time>2022-02-23T15:20:17Z</time>
      </trkpt>
      <trkpt lat="47.65442" lon="6.18509">
        <ele>270.3</ele>
        <time>2022-02-23T15:20:18Z</time>
      </trkpt>
      <trkpt lat="47.65438" lon="6.18514">
        <ele>270.5</ele>
        <time>2022-02-23T15:20:19Z</time>
      </trkpt>
      <trkpt lat="47.65426" lon="6.18529">
        <ele>271</ele>
        <time>2022-02-23T15:20:23Z</time>
      </trkpt>
      <trkpt lat="47.65421" lon="6.18538">
        <ele>271.1</ele>
        <time>2022-02-23T15:20:26Z</time>
      </trkpt>
      <trkpt lat="47.65418" lon="6.18543">
        <ele>271</ele>
        <time>2022-02-23T15:20:27Z</time>
      </trkpt>
      <trkpt lat="47.65415" lon="6.18548">
        <ele>270.9</ele>
        <time>2022-02-23T15:20:28Z</time>
      </trkpt>
      <trkpt lat="47.65407" lon="6.18561">
        <ele>270.9</ele>
        <time>2022-02-23T15:20:31Z</time>
      </trkpt>
      <trkpt lat="47.65399" lon="6.18575">
        <ele>271</ele>
        <time>2022-02-23T15:20:35Z</time>
      </trkpt>
      <trkpt lat="47.65394" lon="6.18582">
        <ele>271.1</ele>
        <time>2022-02-23T15:20:37Z</time>
      </trkpt>
      <trkpt lat="47.65386" lon="6.18594">
        <ele>271.3</ele>
        <time>2022-02-23T15:20:39Z</time>
      </trkpt>
      <trkpt lat="47.65381" lon="6.18601">
        <ele>271.4</ele>
        <time>2022-02-23T15:20:41Z</time>
      </trkpt>
      <trkpt lat="47.65378" lon="6.18606">
        <ele>271.4</ele>
        <time>2022-02-23T15:20:42Z</time>
      </trkpt>
      <trkpt lat="47.65374" lon="6.18611">
        <ele>271.5</ele>
        <time>2022-02-23T15:20:43Z</time>
      </trkpt>
      <trkpt lat="47.6537" lon="6.18618">
        <ele>271.8</ele>
        <time>2022-02-23T15:20:45Z</time>
      </trkpt>
      <trkpt lat="47.65366" lon="6.18624">
        <ele>272.1</ele>
        <time>2022-02-23T15:20:47Z</time>
      </trkpt>
      <trkpt lat="47.65362" lon="6.18629">
        <ele>272.3</ele>
        <time>2022-02-23T15:20:49Z</time>
      </trkpt>
      <trkpt lat="47.65358" lon="6.18635">
        <ele>272.7</ele>
        <time>2022-02-23T15:20:51Z</time>
      </trkpt>
      <trkpt lat="47.65354" lon="6.1864">
        <ele>273</ele>
        <time>2022-02-23T15:20:53Z</time>
      </trkpt>
      <trkpt lat="47.65347" lon="6.1865">
        <ele>273.4</ele>
        <time>2022-02-23T15:20:53Z</time>
      </trkpt>
      <trkpt lat="47.65342" lon="6.18656">
        <ele>273.6</ele>
        <time>2022-02-23T15:20:59Z</time>
      </trkpt>
      <trkpt lat="47.65338" lon="6.1866">
        <ele>273.8</ele>
        <time>2022-02-23T15:21:02Z</time>
      </trkpt>
      <trkpt lat="47.65334" lon="6.18665">
        <ele>273.9</ele>
        <time>2022-02-23T15:21:04Z</time>
      </trkpt>
      <trkpt lat="47.65325" lon="6.18678">
        <ele>273.7</ele>
        <time>2022-02-23T15:21:09Z</time>
      </trkpt>
      <trkpt lat="47.65321" lon="6.18682">
        <ele>273.6</ele>
        <time>2022-02-23T15:21:10Z</time>
      </trkpt>
      <trkpt lat="47.65315" lon="6.1869">
        <ele>273.4</ele>
        <time>2022-02-23T15:21:13Z</time>
      </trkpt>
      <trkpt lat="47.65311" lon="6.18695">
        <ele>273.2</ele>
        <time>2022-02-23T15:21:14Z</time>
      </trkpt>
      <trkpt lat="47.65301" lon="6.18707">
        <ele>273.1</ele>
        <time>2022-02-23T15:21:18Z</time>
      </trkpt>
      <trkpt lat="47.65296" lon="6.18713">
        <ele>273</ele>
        <time>2022-02-23T15:21:19Z</time>
      </trkpt>
      <trkpt lat="47.65282" lon="6.18729">
        <ele>272.3</ele>
        <time>2022-02-23T15:21:23Z</time>
      </trkpt>
      <trkpt lat="47.65277" lon="6.18734">
        <ele>272</ele>
        <time>2022-02-23T15:21:24Z</time>
      </trkpt>
      <trkpt lat="47.65273" lon="6.18739">
        <ele>271.7</ele>
        <time>2022-02-23T15:21:25Z</time>
      </trkpt>
      <trkpt lat="47.65269" lon="6.18745">
        <ele>271.4</ele>
        <time>2022-02-23T15:21:26Z</time>
      </trkpt>
      <trkpt lat="47.65265" lon="6.18749">
        <ele>271.1</ele>
        <time>2022-02-23T15:21:27Z</time>
      </trkpt>
      <trkpt lat="47.6526" lon="6.18754">
        <ele>270.9</ele>
        <time>2022-02-23T15:21:28Z</time>
      </trkpt>
      <trkpt lat="47.65241" lon="6.18777">
        <ele>270.6</ele>
        <time>2022-02-23T15:21:28Z</time>
      </trkpt>
      <trkpt lat="47.65236" lon="6.18782">
        <ele>270.5</ele>
        <time>2022-02-23T15:21:29Z</time>
      </trkpt>
      <trkpt lat="47.65232" lon="6.18787">
        <ele>270.4</ele>
        <time>2022-02-23T15:21:30Z</time>
      </trkpt>
      <trkpt lat="47.65228" lon="6.18791">
        <ele>270.2</ele>
        <time>2022-02-23T15:21:31Z</time>
      </trkpt>
      <trkpt lat="47.65224" lon="6.18796">
        <ele>270.1</ele>
        <time>2022-02-23T15:21:32Z</time>
      </trkpt>
      <trkpt lat="47.65219" lon="6.18801">
        <ele>270</ele>
        <time>2022-02-23T15:21:33Z</time>
      </trkpt>
      <trkpt lat="47.65215" lon="6.18806">
        <ele>270</ele>
        <time>2022-02-23T15:21:34Z</time>
      </trkpt>
      <trkpt lat="47.65211" lon="6.18811">
        <ele>270</ele>
        <time>2022-02-23T15:21:35Z</time>
      </trkpt>
      <trkpt lat="47.65206" lon="6.18816">
        <ele>270</ele>
        <time>2022-02-23T15:21:36Z</time>
      </trkpt>
      <trkpt lat="47.65203" lon="6.1882">
        <ele>270</ele>
        <time>2022-02-23T15:21:37Z</time>
      </trkpt>
      <trkpt lat="47.65199" lon="6.18824">
        <ele>270</ele>
        <time>2022-02-23T15:21:38Z</time>
      </trkpt>
      <trkpt lat="47.65192" lon="6.18831">
        <ele>270.1</ele>
        <time>2022-02-23T15:21:40Z</time>
      </trkpt>
      <trkpt lat="47.65186" lon="6.18837">
        <ele>270.3</ele>
        <time>2022-02-23T15:21:42Z</time>
      </trkpt>
      <trkpt lat="47.6518" lon="6.18843">
        <ele>270.5</ele>
        <time>2022-02-23T15:21:44Z</time>
      </trkpt>
      <trkpt lat="47.65175" lon="6.18848">
        <ele>270.7</ele>
        <time>2022-02-23T15:21:46Z</time>
      </trkpt>
      <trkpt lat="47.65169" lon="6.18854">
        <ele>270.9</ele>
        <time>2022-02-23T15:21:48Z</time>
      </trkpt>
      <trkpt lat="47.65165" lon="6.18859">
        <ele>271</ele>
        <time>2022-02-23T15:21:50Z</time>
      </trkpt>
      <trkpt lat="47.65155" lon="6.18871">
        <ele>270.9</ele>
        <time>2022-02-23T15:21:56Z</time>
      </trkpt>
      <trkpt lat="47.65149" lon="6.18875">
        <ele>270.7</ele>
        <time>2022-02-23T15:21:58Z</time>
      </trkpt>
      <trkpt lat="47.65144" lon="6.18881">
        <ele>270.4</ele>
        <time>2022-02-23T15:22:00Z</time>
      </trkpt>
      <trkpt lat="47.65131" lon="6.18894">
        <ele>270</ele>
        <time>2022-02-23T15:22:00Z</time>
      </trkpt>
      <trkpt lat="47.65124" lon="6.18902">
        <ele>270</ele>
        <time>2022-02-23T15:22:01Z</time>
      </trkpt>
      <trkpt lat="47.65118" lon="6.18908">
        <ele>270</ele>
        <time>2022-02-23T15:22:02Z</time>
      </trkpt>
      <trkpt lat="47.65113" lon="6.18914">
        <ele>270</ele>
        <time>2022-02-23T15:22:03Z</time>
      </trkpt>
      <trkpt lat="47.65108" lon="6.18919">
        <ele>270.2</ele>
        <time>2022-02-23T15:22:04Z</time>
      </trkpt>
      <trkpt lat="47.65103" lon="6.18924">
        <ele>270.6</ele>
        <time>2022-02-23T15:22:05Z</time>
      </trkpt>
      <trkpt lat="47.65098" lon="6.18929">
        <ele>270.9</ele>
        <time>2022-02-23T15:22:06Z</time>
      </trkpt>
      <trkpt lat="47.65093" lon="6.18934">
        <ele>271.3</ele>
        <time>2022-02-23T15:22:07Z</time>
      </trkpt>
      <trkpt lat="47.65089" lon="6.18938">
        <ele>271.6</ele>
        <time>2022-02-23T15:22:08Z</time>
      </trkpt>
      <trkpt lat="47.65082" lon="6.18945">
        <ele>272</ele>
        <time>2022-02-23T15:22:10Z</time>
      </trkpt>
      <trkpt lat="47.65076" lon="6.18948">
        <ele>272.1</ele>
        <time>2022-02-23T15:23:10Z</time>
      </trkpt>
      <trkpt lat="47.65072" lon="6.18953">
        <ele>272.2</ele>
        <time>2022-02-23T15:23:11Z</time>
      </trkpt>
      <trkpt lat="47.65069" lon="6.18957">
        <ele>272.2</ele>
        <time>2022-02-23T15:23:12Z</time>
      </trkpt>
      <trkpt lat="47.65065" lon="6.18962">
        <ele>272.2</ele>
        <time>2022-02-23T15:23:13Z</time>
      </trkpt>
      <trkpt lat="47.65055" lon="6.18974">
        <ele>272</ele>
        <time>2022-02-23T15:23:16Z</time>
      </trkpt>
      <trkpt lat="47.65046" lon="6.18984">
        <ele>271.5</ele>
        <time>2022-02-23T15:23:19Z</time>
      </trkpt>
      <trkpt lat="47.65042" lon="6.18988">
        <ele>271.2</ele>
        <time>2022-02-23T15:23:20Z</time>
      </trkpt>
      <trkpt lat="47.65037" lon="6.18993">
        <ele>270.9</ele>
        <time>2022-02-23T15:23:21Z</time>
      </trkpt>
      <trkpt lat="47.65021" lon="6.1901">
        <ele>269.7</ele>
        <time>2022-02-23T15:23:21Z</time>
      </trkpt>
      <trkpt lat="47.65016" lon="6.19015">
        <ele>269.4</ele>
        <time>2022-02-23T15:23:22Z</time>
      </trkpt>
      <trkpt lat="47.65012" lon="6.19019">
        <ele>269</ele>
        <time>2022-02-23T15:23:23Z</time>
      </trkpt>
      <trkpt lat="47.65007" lon="6.19023">
        <ele>268.6</ele>
        <time>2022-02-23T15:23:24Z</time>
      </trkpt>
      <trkpt lat="47.65003" lon="6.19027">
        <ele>268.2</ele>
        <time>2022-02-23T15:23:25Z</time>
      </trkpt>
      <trkpt lat="47.64999" lon="6.19031">
        <ele>268</ele>
        <time>2022-02-23T15:23:26Z</time>
      </trkpt>
      <trkpt lat="47.64995" lon="6.19035">
        <ele>267.8</ele>
        <time>2022-02-23T15:23:27Z</time>
      </trkpt>
      <trkpt lat="47.64992" lon="6.19041">
        <ele>267.7</ele>
        <time>2022-02-23T15:23:28Z</time>
      </trkpt>
      <trkpt lat="47.6499" lon="6.19047">
        <ele>267.6</ele>
        <time>2022-02-23T15:23:29Z</time>
      </trkpt>
      <trkpt lat="47.64988" lon="6.19058">
        <ele>267.6</ele>
        <time>2022-02-23T15:23:31Z</time>
      </trkpt>
      <trkpt lat="47.64991" lon="6.19068">
        <ele>267.5</ele>
        <time>2022-02-23T15:23:33Z</time>
      </trkpt>
      <trkpt lat="47.64996" lon="6.19074">
        <ele>267.7</ele>
        <time>2022-02-23T15:23:35Z</time>
      </trkpt>
      <trkpt lat="47.65" lon="6.19078">
        <ele>268</ele>
        <time>2022-02-23T15:23:40Z</time>
      </trkpt>
      <trkpt lat="47.65006" lon="6.19081">
        <ele>268.2</ele>
        <time>2022-02-23T15:23:41Z</time>
      </trkpt>
      <trkpt lat="47.65009" lon="6.19091">
        <ele>268.1</ele>
        <time>2022-02-23T15:23:44Z</time>
      </trkpt>
      <trkpt lat="47.65015" lon="6.19107">
        <ele>268.2</ele>
        <time>2022-02-23T15:23:47Z</time>
      </trkpt>
      <trkpt lat="47.65027" lon="6.19125">
        <ele>268.9</ele>
        <time>2022-02-23T15:23:52Z</time>
      </trkpt>
      <trkpt lat="47.65032" lon="6.19134">
        <ele>269.1</ele>
        <time>2022-02-23T15:23:54Z</time>
      </trkpt>
      <trkpt lat="47.65036" lon="6.19142">
        <ele>269.2</ele>
        <time>2022-02-23T15:23:56Z</time>
      </trkpt>
      <trkpt lat="47.6504" lon="6.19149">
        <ele>269.2</ele>
        <time>2022-02-23T15:23:57Z</time>
      </trkpt>
      <trkpt lat="47.65044" lon="6.19155">
        <ele>269.3</ele>
        <time>2022-02-23T15:23:59Z</time>
      </trkpt>
      <trkpt lat="47.6505" lon="6.19167">
        <ele>269.6</ele>
        <time>2022-02-23T15:24:03Z</time>
      </trkpt>
      <trkpt lat="47.65054" lon="6.19173">
        <ele>269.6</ele>
        <time>2022-02-23T15:24:04Z</time>
      </trkpt>
      <trkpt lat="47.65057" lon="6.19179">
        <ele>269.6</ele>
        <time>2022-02-23T15:24:06Z</time>
      </trkpt>
      <trkpt lat="47.65067" lon="6.19192">
        <ele>269.4</ele>
        <time>2022-02-23T15:24:11Z</time>
      </trkpt>
      <trkpt lat="47.6507" lon="6.19199">
        <ele>269.5</ele>
        <time>2022-02-23T15:24:13Z</time>
      </trkpt>
      <trkpt lat="47.65074" lon="6.19205">
        <ele>269.5</ele>
        <time>2022-02-23T15:24:14Z</time>
      </trkpt>
      <trkpt lat="47.65078" lon="6.1921">
        <ele>269.7</ele>
        <time>2022-02-23T15:24:16Z</time>
      </trkpt>
      <trkpt lat="47.65083" lon="6.19218">
        <ele>270</ele>
        <time>2022-02-23T15:24:19Z</time>
      </trkpt>
      <trkpt lat="47.65087" lon="6.19224">
        <ele>270.1</ele>
        <time>2022-02-23T15:24:21Z</time>
      </trkpt>
      <trkpt lat="47.65091" lon="6.1923">
        <ele>270.3</ele>
        <time>2022-02-23T15:24:22Z</time>
      </trkpt>
      <trkpt lat="47.65095" lon="6.19234">
        <ele>270.4</ele>
        <time>2022-02-23T15:24:24Z</time>
      </trkpt>
      <trkpt lat="47.65099" lon="6.19239">
        <ele>270.6</ele>
        <time>2022-02-23T15:24:25Z</time>
      </trkpt>
      <trkpt lat="47.65103" lon="6.19244">
        <ele>270.7</ele>
        <time>2022-02-23T15:24:27Z</time>
      </trkpt>
      <trkpt lat="47.65107" lon="6.1925">
        <ele>270.8</ele>
        <time>2022-02-23T15:24:28Z</time>
      </trkpt>
      <trkpt lat="47.65111" lon="6.19255">
        <ele>271</ele>
        <time>2022-02-23T15:24:30Z</time>
      </trkpt>
      <trkpt lat="47.65114" lon="6.1926">
        <ele>271.1</ele>
        <time>2022-02-23T15:24:31Z</time>
      </trkpt>
      <trkpt lat="47.65117" lon="6.19267">
        <ele>271.2</ele>
        <time>2022-02-23T15:24:33Z</time>
      </trkpt>
      <trkpt lat="47.65121" lon="6.19273">
        <ele>271.4</ele>
        <time>2022-02-23T15:24:35Z</time>
      </trkpt>
      <trkpt lat="47.65125" lon="6.19279">
        <ele>271.5</ele>
        <time>2022-02-23T15:24:37Z</time>
      </trkpt>
      <trkpt lat="47.6513" lon="6.19284">
        <ele>271.6</ele>
        <time>2022-02-23T15:24:39Z</time>
      </trkpt>
      <trkpt lat="47.65134" lon="6.1929">
        <ele>271.7</ele>
        <time>2022-02-23T15:24:40Z</time>
      </trkpt>
      <trkpt lat="47.65143" lon="6.193">
        <ele>272</ele>
        <time>2022-02-23T15:24:40Z</time>
      </trkpt>
      <trkpt lat="47.65147" lon="6.19305">
        <ele>272</ele>
        <time>2022-02-23T15:24:45Z</time>
      </trkpt>
      <trkpt lat="47.65152" lon="6.19311">
        <ele>271.8</ele>
        <time>2022-02-23T15:24:47Z</time>
      </trkpt>
      <trkpt lat="47.65157" lon="6.19314">
        <ele>271.7</ele>
        <time>2022-02-23T15:24:49Z</time>
      </trkpt>
      <trkpt lat="47.65166" lon="6.19324">
        <ele>271.3</ele>
        <time>2022-02-23T15:24:53Z</time>
      </trkpt>
      <trkpt lat="47.6517" lon="6.19328">
        <ele>271.3</ele>
        <time>2022-02-23T15:24:54Z</time>
      </trkpt>
      <trkpt lat="47.65174" lon="6.19332">
        <ele>271.3</ele>
        <time>2022-02-23T15:24:55Z</time>
      </trkpt>
      <trkpt lat="47.65178" lon="6.19337">
        <ele>271.3</ele>
        <time>2022-02-23T15:24:57Z</time>
      </trkpt>
      <trkpt lat="47.65183" lon="6.19345">
        <ele>271.2</ele>
        <time>2022-02-23T15:24:59Z</time>
      </trkpt>
      <trkpt lat="47.65189" lon="6.19353">
        <ele>271.1</ele>
        <time>2022-02-23T15:25:01Z</time>
      </trkpt>
      <trkpt lat="47.65195" lon="6.19363">
        <ele>271</ele>
        <time>2022-02-23T15:25:03Z</time>
      </trkpt>
      <trkpt lat="47.65209" lon="6.19385">
        <ele>271</ele>
        <time>2022-02-23T15:25:03Z</time>
      </trkpt>
      <trkpt lat="47.65212" lon="6.19391">
        <ele>270.9</ele>
        <time>2022-02-23T15:25:04Z</time>
      </trkpt>
      <trkpt lat="47.65215" lon="6.19396">
        <ele>270.7</ele>
        <time>2022-02-23T15:25:05Z</time>
      </trkpt>
      <trkpt lat="47.65218" lon="6.19401">
        <ele>270.5</ele>
        <time>2022-02-23T15:25:06Z</time>
      </trkpt>
      <trkpt lat="47.65221" lon="6.19407">
        <ele>270.3</ele>
        <time>2022-02-23T15:25:07Z</time>
      </trkpt>
      <trkpt lat="47.65224" lon="6.19412">
        <ele>270.3</ele>
        <time>2022-02-23T15:25:08Z</time>
      </trkpt>
      <trkpt lat="47.65227" lon="6.19417">
        <ele>270.4</ele>
        <time>2022-02-23T15:25:09Z</time>
      </trkpt>
      <trkpt lat="47.65233" lon="6.19427">
        <ele>270.8</ele>
        <time>2022-02-23T15:25:11Z</time>
      </trkpt>
      <trkpt lat="47.65236" lon="6.19434">
        <ele>271</ele>
        <time>2022-02-23T15:25:16Z</time>
      </trkpt>
      <trkpt lat="47.65245" lon="6.19446">
        <ele>271.6</ele>
        <time>2022-02-23T15:25:19Z</time>
      </trkpt>
      <trkpt lat="47.65254" lon="6.19451">
        <ele>271.8</ele>
        <time>2022-02-23T15:25:22Z</time>
      </trkpt>
      <trkpt lat="47.65259" lon="6.19457">
        <ele>271.7</ele>
        <time>2022-02-23T15:25:24Z</time>
      </trkpt>
      <trkpt lat="47.65263" lon="6.19462">
        <ele>271.6</ele>
        <time>2022-02-23T15:25:25Z</time>
      </trkpt>
      <trkpt lat="47.65271" lon="6.19478">
        <ele>271.7</ele>
        <time>2022-02-23T15:25:29Z</time>
      </trkpt>
      <trkpt lat="47.65275" lon="6.19486">
        <ele>271.9</ele>
        <time>2022-02-23T15:25:30Z</time>
      </trkpt>
      <trkpt lat="47.65278" lon="6.19492">
        <ele>272</ele>
        <time>2022-02-23T15:25:32Z</time>
      </trkpt>
      <trkpt lat="47.65286" lon="6.19518">
        <ele>271.2</ele>
        <time>2022-02-23T15:25:36Z</time>
      </trkpt>
      <trkpt lat="47.65288" lon="6.19526">
        <ele>270.7</ele>
        <time>2022-02-23T15:25:37Z</time>
      </trkpt>
      <trkpt lat="47.65289" lon="6.19534">
        <ele>270.2</ele>
        <time>2022-02-23T15:25:39Z</time>
      </trkpt>
      <trkpt lat="47.65291" lon="6.1954">
        <ele>269.8</ele>
        <time>2022-02-23T15:25:40Z</time>
      </trkpt>
      <trkpt lat="47.65294" lon="6.19549">
        <ele>269.3</ele>
        <time>2022-02-23T15:25:42Z</time>
      </trkpt>
      <trkpt lat="47.65296" lon="6.19555">
        <ele>269</ele>
        <time>2022-02-23T15:25:43Z</time>
      </trkpt>
      <trkpt lat="47.65309" lon="6.19583">
        <ele>268.1</ele>
        <time>2022-02-23T15:25:43Z</time>
      </trkpt>
      <trkpt lat="47.65312" lon="6.19592">
        <ele>268</ele>
        <time>2022-02-23T15:25:44Z</time>
      </trkpt>
      <trkpt lat="47.65315" lon="6.19601">
        <ele>267.9</ele>
        <time>2022-02-23T15:25:45Z</time>
      </trkpt>
      <trkpt lat="47.65318" lon="6.1961">
        <ele>267.9</ele>
        <time>2022-02-23T15:25:46Z</time>
      </trkpt>
      <trkpt lat="47.6532" lon="6.19619">
        <ele>267.9</ele>
        <time>2022-02-23T15:25:47Z</time>
      </trkpt>
      <trkpt lat="47.65322" lon="6.19627">
        <ele>268</ele>
        <time>2022-02-23T15:25:48Z</time>
      </trkpt>
      <trkpt lat="47.65324" lon="6.19634">
        <ele>268.1</ele>
        <time>2022-02-23T15:25:49Z</time>
      </trkpt>
      <trkpt lat="47.65327" lon="6.19642">
        <ele>268.2</ele>
        <time>2022-02-23T15:25:50Z</time>
      </trkpt>
      <trkpt lat="47.65329" lon="6.19648">
        <ele>268.1</ele>
        <time>2022-02-23T15:25:51Z</time>
      </trkpt>
      <trkpt lat="47.65331" lon="6.19653">
        <ele>268.2</ele>
        <time>2022-02-23T15:25:52Z</time>
      </trkpt>
      <trkpt lat="47.65335" lon="6.19663">
        <ele>268.3</ele>
        <time>2022-02-23T15:25:54Z</time>
      </trkpt>
      <trkpt lat="47.65338" lon="6.19672">
        <ele>268.3</ele>
        <time>2022-02-23T15:25:56Z</time>
      </trkpt>
      <trkpt lat="47.65341" lon="6.1968">
        <ele>268.4</ele>
        <time>2022-02-23T15:25:58Z</time>
      </trkpt>
      <trkpt lat="47.65349" lon="6.19689">
        <ele>268.8</ele>
        <time>2022-02-23T15:26:03Z</time>
      </trkpt>
      <trkpt lat="47.65351" lon="6.19698">
        <ele>268.7</ele>
        <time>2022-02-23T15:26:05Z</time>
      </trkpt>
      <trkpt lat="47.65352" lon="6.19704">
        <ele>268.6</ele>
        <time>2022-02-23T15:26:07Z</time>
      </trkpt>
      <trkpt lat="47.65355" lon="6.19712">
        <ele>268.5</ele>
        <time>2022-02-23T15:26:08Z</time>
      </trkpt>
      <trkpt lat="47.65361" lon="6.19725">
        <ele>268.9</ele>
        <time>2022-02-23T15:26:12Z</time>
      </trkpt>
      <trkpt lat="47.65365" lon="6.19734">
        <ele>269.6</ele>
        <time>2022-02-23T15:26:14Z</time>
      </trkpt>
      <trkpt lat="47.65369" lon="6.19742">
        <ele>270.2</ele>
        <time>2022-02-23T15:26:15Z</time>
      </trkpt>
      <trkpt lat="47.65372" lon="6.19749">
        <ele>270.6</ele>
        <time>2022-02-23T15:26:17Z</time>
      </trkpt>
      <trkpt lat="47.65376" lon="6.19756">
        <ele>270.7</ele>
        <time>2022-02-23T15:26:19Z</time>
      </trkpt>
      <trkpt lat="47.6538" lon="6.19764">
        <ele>270.6</ele>
        <time>2022-02-23T15:26:21Z</time>
      </trkpt>
      <trkpt lat="47.65383" lon="6.19771">
        <ele>270.2</ele>
        <time>2022-02-23T15:26:22Z</time>
      </trkpt>
      <trkpt lat="47.65385" lon="6.19777">
        <ele>269.8</ele>
        <time>2022-02-23T15:26:24Z</time>
      </trkpt>
      <trkpt lat="47.65391" lon="6.19788">
        <ele>269.6</ele>
        <time>2022-02-23T15:26:27Z</time>
      </trkpt>
      <trkpt lat="47.65395" lon="6.19794">
        <ele>269.6</ele>
        <time>2022-02-23T15:26:29Z</time>
      </trkpt>
      <trkpt lat="47.65401" lon="6.19807">
        <ele>269.7</ele>
        <time>2022-02-23T15:26:33Z</time>
      </trkpt>
      <trkpt lat="47.65404" lon="6.19812">
        <ele>269.9</ele>
        <time>2022-02-23T15:26:34Z</time>
      </trkpt>
      <trkpt lat="47.6541" lon="6.19819">
        <ele>270.4</ele>
        <time>2022-02-23T15:26:37Z</time>
      </trkpt>
      <trkpt lat="47.65413" lon="6.19826">
        <ele>270.7</ele>
        <time>2022-02-23T15:26:38Z</time>
      </trkpt>
      <trkpt lat="47.65417" lon="6.19832">
        <ele>271.1</ele>
        <time>2022-02-23T15:26:40Z</time>
      </trkpt>
      <trkpt lat="47.65422" lon="6.19837">
        <ele>271.4</ele>
        <time>2022-02-23T15:26:42Z</time>
      </trkpt>
      <trkpt lat="47.65427" lon="6.19845">
        <ele>271.7</ele>
        <time>2022-02-23T15:26:45Z</time>
      </trkpt>
      <trkpt lat="47.65433" lon="6.19858">
        <ele>271.9</ele>
        <time>2022-02-23T15:26:46Z</time>
      </trkpt>
      <trkpt lat="47.65436" lon="6.19864">
        <ele>271.9</ele>
        <time>2022-02-23T15:26:51Z</time>
      </trkpt>
      <trkpt lat="47.65441" lon="6.19872">
        <ele>271.7</ele>
        <time>2022-02-23T15:26:53Z</time>
      </trkpt>
      <trkpt lat="47.65444" lon="6.19879">
        <ele>271.6</ele>
        <time>2022-02-23T15:26:55Z</time>
      </trkpt>
      <trkpt lat="47.65446" lon="6.19885">
        <ele>271.4</ele>
        <time>2022-02-23T15:26:57Z</time>
      </trkpt>
      <trkpt lat="47.65449" lon="6.19894">
        <ele>271</ele>
        <time>2022-02-23T15:26:59Z</time>
      </trkpt>
      <trkpt lat="47.65452" lon="6.19903">
        <ele>270.7</ele>
        <time>2022-02-23T15:27:01Z</time>
      </trkpt>
      <trkpt lat="47.65454" lon="6.19909">
        <ele>270.5</ele>
        <time>2022-02-23T15:27:02Z</time>
      </trkpt>
      <trkpt lat="47.65457" lon="6.19916">
        <ele>270.4</ele>
        <time>2022-02-23T15:27:04Z</time>
      </trkpt>
      <trkpt lat="47.65459" lon="6.19923">
        <ele>270.2</ele>
        <time>2022-02-23T15:27:05Z</time>
      </trkpt>
      <trkpt lat="47.65462" lon="6.19932">
        <ele>270</ele>
        <time>2022-02-23T15:27:06Z</time>
      </trkpt>
      <trkpt lat="47.65465" lon="6.19939">
        <ele>270</ele>
        <time>2022-02-23T15:27:08Z</time>
      </trkpt>
      <trkpt lat="47.65468" lon="6.19947">
        <ele>270.1</ele>
        <time>2022-02-23T15:27:09Z</time>
      </trkpt>
      <trkpt lat="47.65472" lon="6.19955">
        <ele>269.9</ele>
        <time>2022-02-23T15:27:11Z</time>
      </trkpt>
      <trkpt lat="47.65477" lon="6.19962">
        <ele>269.7</ele>
        <time>2022-02-23T15:27:12Z</time>
      </trkpt>
      <trkpt lat="47.65482" lon="6.1997">
        <ele>269.8</ele>
        <time>2022-02-23T15:27:14Z</time>
      </trkpt>
      <trkpt lat="47.65485" lon="6.19975">
        <ele>270</ele>
        <time>2022-02-23T15:27:15Z</time>
      </trkpt>
      <trkpt lat="47.65491" lon="6.19984">
        <ele>270.3</ele>
        <time>2022-02-23T15:27:18Z</time>
      </trkpt>
      <trkpt lat="47.65495" lon="6.1999">
        <ele>270.7</ele>
        <time>2022-02-23T15:27:19Z</time>
      </trkpt>
      <trkpt lat="47.65503" lon="6.20003">
        <ele>270.9</ele>
        <time>2022-02-23T15:27:21Z</time>
      </trkpt>
      <trkpt lat="47.65507" lon="6.20009">
        <ele>270.6</ele>
        <time>2022-02-23T15:27:26Z</time>
      </trkpt>
      <trkpt lat="47.65511" lon="6.20016">
        <ele>270.5</ele>
        <time>2022-02-23T15:27:28Z</time>
      </trkpt>
      <trkpt lat="47.65514" lon="6.2002">
        <ele>270.6</ele>
        <time>2022-02-23T15:27:30Z</time>
      </trkpt>
      <trkpt lat="47.65525" lon="6.20031">
        <ele>271.3</ele>
        <time>2022-02-23T15:27:34Z</time>
      </trkpt>
      <trkpt lat="47.6553" lon="6.20038">
        <ele>271.5</ele>
        <time>2022-02-23T15:27:36Z</time>
      </trkpt>
      <trkpt lat="47.65535" lon="6.20045">
        <ele>271.7</ele>
        <time>2022-02-23T15:27:38Z</time>
      </trkpt>
      <trkpt lat="47.6554" lon="6.20051">
        <ele>272</ele>
        <time>2022-02-23T15:27:40Z</time>
      </trkpt>
      <trkpt lat="47.65548" lon="6.2006">
        <ele>272.6</ele>
        <time>2022-02-23T15:27:43Z</time>
      </trkpt>
      <trkpt lat="47.65551" lon="6.20065">
        <ele>272.7</ele>
        <time>2022-02-23T15:27:45Z</time>
      </trkpt>
      <trkpt lat="47.65556" lon="6.20072">
        <ele>272.9</ele>
        <time>2022-02-23T15:27:46Z</time>
      </trkpt>
      <trkpt lat="47.65561" lon="6.20079">
        <ele>272.7</ele>
        <time>2022-02-23T15:27:48Z</time>
      </trkpt>
      <trkpt lat="47.65566" lon="6.20085">
        <ele>272.6</ele>
        <time>2022-02-23T15:27:50Z</time>
      </trkpt>
      <trkpt lat="47.65577" lon="6.20096">
        <ele>273</ele>
        <time>2022-02-23T15:27:51Z</time>
      </trkpt>
      <trkpt lat="47.65581" lon="6.201">
        <ele>273.2</ele>
        <time>2022-02-23T15:27:55Z</time>
      </trkpt>
      <trkpt lat="47.65587" lon="6.20105">
        <ele>273.4</ele>
        <time>2022-02-23T15:27:57Z</time>
      </trkpt>
      <trkpt lat="47.65592" lon="6.20111">
        <ele>273.6</ele>
        <time>2022-02-23T15:27:59Z</time>
      </trkpt>
      <trkpt lat="47.65597" lon="6.20115">
        <ele>273.7</ele>
        <time>2022-02-23T15:28:01Z</time>
      </trkpt>
      <trkpt lat="47.65602" lon="6.20121">
        <ele>273.9</ele>
        <time>2022-02-23T15:28:03Z</time>
      </trkpt>
      <trkpt lat="47.65608" lon="6.20125">
        <ele>274.2</ele>
        <time>2022-02-23T15:28:06Z</time>
      </trkpt>
      <trkpt lat="47.65612" lon="6.20129">
        <ele>274.4</ele>
        <time>2022-02-23T15:28:07Z</time>
      </trkpt>
      <trkpt lat="47.65617" lon="6.20134">
        <ele>274.6</ele>
        <time>2022-02-23T15:28:09Z</time>
      </trkpt>
      <trkpt lat="47.65621" lon="6.2014">
        <ele>274.7</ele>
        <time>2022-02-23T15:28:11Z</time>
      </trkpt>
      <trkpt lat="47.65628" lon="6.20149">
        <ele>274.8</ele>
        <time>2022-02-23T15:28:14Z</time>
      </trkpt>
      <trkpt lat="47.65632" lon="6.20154">
        <ele>274.9</ele>
        <time>2022-02-23T15:28:16Z</time>
      </trkpt>
      <trkpt lat="47.65637" lon="6.20158">
        <ele>275.1</ele>
        <time>2022-02-23T15:28:19Z</time>
      </trkpt>
      <trkpt lat="47.65641" lon="6.20159">
        <ele>275.4</ele>
        <time>2022-02-23T15:28:22Z</time>
      </trkpt>
      <trkpt lat="47.65641" lon="6.20152">
        <ele>275.6</ele>
        <time>2022-02-23T15:28:24Z</time>
      </trkpt>
      <trkpt lat="47.65644" lon="6.20137">
        <ele>276.3</ele>
        <time>2022-02-23T15:28:30Z</time>
      </trkpt>
      <trkpt lat="47.65649" lon="6.20124">
        <ele>276.9</ele>
        <time>2022-02-23T15:28:34Z</time>
      </trkpt>
      <trkpt lat="47.65651" lon="6.20119">
        <ele>277.2</ele>
        <time>2022-02-23T15:28:38Z</time>
      </trkpt>
      <trkpt lat="47.65655" lon="6.20114">
        <ele>277.5</ele>
        <time>2022-02-23T15:28:42Z</time>
      </trkpt>
      <trkpt lat="47.65658" lon="6.20109">
        <ele>277.8</ele>
        <time>2022-02-23T15:28:46Z</time>
      </trkpt>
      <trkpt lat="47.65663" lon="6.20104">
        <ele>278.3</ele>
        <time>2022-02-23T15:28:50Z</time>
      </trkpt>
      <trkpt lat="47.65665" lon="6.20099">
        <ele>278.8</ele>
        <time>2022-02-23T15:28:53Z</time>
      </trkpt>
      <trkpt lat="47.65668" lon="6.20093">
        <ele>279.4</ele>
        <time>2022-02-23T15:28:57Z</time>
      </trkpt>
      <trkpt lat="47.65673" lon="6.2009">
        <ele>280</ele>
        <time>2022-02-23T15:29:03Z</time>
      </trkpt>
      <trkpt lat="47.65677" lon="6.20084">
        <ele>280.7</ele>
        <time>2022-02-23T15:29:08Z</time>
      </trkpt>
      <trkpt lat="47.6568" lon="6.2008">
        <ele>281.1</ele>
        <time>2022-02-23T15:29:11Z</time>
      </trkpt>
      <trkpt lat="47.65686" lon="6.20074">
        <ele>281.7</ele>
        <time>2022-02-23T15:29:15Z</time>
      </trkpt>
      <trkpt lat="47.6569" lon="6.2007">
        <ele>282.2</ele>
        <time>2022-02-23T15:29:19Z</time>
      </trkpt>
      <trkpt lat="47.65694" lon="6.20064">
        <ele>282.6</ele>
        <time>2022-02-23T15:29:23Z</time>
      </trkpt>
      <trkpt lat="47.65697" lon="6.2006">
        <ele>283.1</ele>
        <time>2022-02-23T15:29:27Z</time>
      </trkpt>
      <trkpt lat="47.65701" lon="6.20054">
        <ele>283.5</ele>
        <time>2022-02-23T15:29:31Z</time>
      </trkpt>
      <trkpt lat="47.65704" lon="6.20049">
        <ele>284</ele>
        <time>2022-02-23T15:29:35Z</time>
      </trkpt>
      <trkpt lat="47.65708" lon="6.20045">
        <ele>284.5</ele>
        <time>2022-02-23T15:29:40Z</time>
      </trkpt>
      <trkpt lat="47.65712" lon="6.2004">
        <ele>285.2</ele>
        <time>2022-02-23T15:29:42Z</time>
      </trkpt>
      <trkpt lat="47.65715" lon="6.20034">
        <ele>285.9</ele>
        <time>2022-02-23T15:29:51Z</time>
      </trkpt>
      <trkpt lat="47.65717" lon="6.20027">
        <ele>286.5</ele>
        <time>2022-02-23T15:29:55Z</time>
      </trkpt>
      <trkpt lat="47.65721" lon="6.20022">
        <ele>287</ele>
        <time>2022-02-23T15:30:00Z</time>
      </trkpt>
      <trkpt lat="47.65723" lon="6.20016">
        <ele>287.5</ele>
        <time>2022-02-23T15:30:06Z</time>
      </trkpt>
      <trkpt lat="47.65726" lon="6.20011">
        <ele>288</ele>
        <time>2022-02-23T15:30:12Z</time>
      </trkpt>
      <trkpt lat="47.65729" lon="6.20005">
        <ele>288.5</ele>
        <time>2022-02-23T15:30:13Z</time>
      </trkpt>
      <trkpt lat="47.65732" lon="6.2">
        <ele>289.1</ele>
        <time>2022-02-23T15:30:22Z</time>
      </trkpt>
      <trkpt lat="47.65735" lon="6.19994">
        <ele>289.6</ele>
        <time>2022-02-23T15:30:26Z</time>
      </trkpt>
      <trkpt lat="47.65737" lon="6.19988">
        <ele>290.1</ele>
        <time>2022-02-23T15:30:31Z</time>
      </trkpt>
      <trkpt lat="47.6574" lon="6.19982">
        <ele>290.6</ele>
        <time>2022-02-23T15:30:32Z</time>
      </trkpt>
      <trkpt lat="47.65742" lon="6.19975">
        <ele>291</ele>
        <time>2022-02-23T15:30:38Z</time>
      </trkpt>
      <trkpt lat="47.65745" lon="6.19968">
        <ele>291.7</ele>
        <time>2022-02-23T15:30:42Z</time>
      </trkpt>
      <trkpt lat="47.65748" lon="6.19963">
        <ele>292.5</ele>
        <time>2022-02-23T15:30:47Z</time>
      </trkpt>
      <trkpt lat="47.65752" lon="6.19958">
        <ele>293.2</ele>
        <time>2022-02-23T15:30:54Z</time>
      </trkpt>
      <trkpt lat="47.65755" lon="6.19953">
        <ele>293.8</ele>
        <time>2022-02-23T15:30:57Z</time>
      </trkpt>
      <trkpt lat="47.65757" lon="6.19946">
        <ele>294.4</ele>
        <time>2022-02-23T15:31:02Z</time>
      </trkpt>
      <trkpt lat="47.65759" lon="6.1994">
        <ele>294.7</ele>
        <time>2022-02-23T15:31:03Z</time>
      </trkpt>
      <trkpt lat="47.65761" lon="6.19934">
        <ele>295</ele>
        <time>2022-02-23T15:31:10Z</time>
      </trkpt>
      <trkpt lat="47.65764" lon="6.19928">
        <ele>295.3</ele>
        <time>2022-02-23T15:31:16Z</time>
      </trkpt>
      <trkpt lat="47.65768" lon="6.19923">
        <ele>295.8</ele>
        <time>2022-02-23T15:31:21Z</time>
      </trkpt>
      <trkpt lat="47.65771" lon="6.19917">
        <ele>296.3</ele>
        <time>2022-02-23T15:31:25Z</time>
      </trkpt>
      <trkpt lat="47.65774" lon="6.19912">
        <ele>296.8</ele>
        <time>2022-02-23T15:31:26Z</time>
      </trkpt>
      <trkpt lat="47.65778" lon="6.19907">
        <ele>297.3</ele>
        <time>2022-02-23T15:31:30Z</time>
      </trkpt>
      <trkpt lat="47.65782" lon="6.19904">
        <ele>297.7</ele>
        <time>2022-02-23T15:31:36Z</time>
      </trkpt>
      <trkpt lat="47.65786" lon="6.19899">
        <ele>298.2</ele>
        <time>2022-02-23T15:31:38Z</time>
      </trkpt>
      <trkpt lat="47.65788" lon="6.19893">
        <ele>298.6</ele>
        <time>2022-02-23T15:31:42Z</time>
      </trkpt>
      <trkpt lat="47.65793" lon="6.19888">
        <ele>299.1</ele>
        <time>2022-02-23T15:31:50Z</time>
      </trkpt>
      <trkpt lat="47.65794" lon="6.1988">
        <ele>299.5</ele>
        <time>2022-02-23T15:31:51Z</time>
      </trkpt>
      <trkpt lat="47.65797" lon="6.19875">
        <ele>299.9</ele>
        <time>2022-02-23T15:31:57Z</time>
      </trkpt>
      <trkpt lat="47.65801" lon="6.19871">
        <ele>300.3</ele>
        <time>2022-02-23T15:32:01Z</time>
      </trkpt>
      <trkpt lat="47.65806" lon="6.19865">
        <ele>300.9</ele>
        <time>2022-02-23T15:32:06Z</time>
      </trkpt>
      <trkpt lat="47.65809" lon="6.1986">
        <ele>301.4</ele>
        <time>2022-02-23T15:32:11Z</time>
      </trkpt>
      <trkpt lat="47.65813" lon="6.19856">
        <ele>302</ele>
        <time>2022-02-23T15:32:15Z</time>
      </trkpt>
      <trkpt lat="47.65817" lon="6.19853">
        <ele>302.5</ele>
        <time>2022-02-23T15:32:19Z</time>
      </trkpt>
      <trkpt lat="47.65822" lon="6.19848">
        <ele>303.2</ele>
        <time>2022-02-23T15:32:21Z</time>
      </trkpt>
      <trkpt lat="47.65825" lon="6.19844">
        <ele>303.7</ele>
        <time>2022-02-23T15:32:24Z</time>
      </trkpt>
      <trkpt lat="47.65829" lon="6.19839">
        <ele>304.4</ele>
        <time>2022-02-23T15:32:31Z</time>
      </trkpt>
      <trkpt lat="47.65833" lon="6.19833">
        <ele>304.9</ele>
        <time>2022-02-23T15:32:36Z</time>
      </trkpt>
      <trkpt lat="47.65836" lon="6.19828">
        <ele>305.2</ele>
        <time>2022-02-23T15:32:37Z</time>
      </trkpt>
      <trkpt lat="47.65839" lon="6.1982">
        <ele>305.5</ele>
        <time>2022-02-23T15:32:44Z</time>
      </trkpt>
      <trkpt lat="47.65841" lon="6.19814">
        <ele>305.8</ele>
        <time>2022-02-23T15:32:48Z</time>
      </trkpt>
      <trkpt lat="47.65846" lon="6.19812">
        <ele>306.2</ele>
        <time>2022-02-23T15:32:50Z</time>
      </trkpt>
      <trkpt lat="47.65847" lon="6.19804">
        <ele>306.6</ele>
        <time>2022-02-23T15:32:57Z</time>
      </trkpt>
      <trkpt lat="47.6585" lon="6.19797">
        <ele>307.1</ele>
        <time>2022-02-23T15:33:02Z</time>
      </trkpt>
      <trkpt lat="47.65852" lon="6.19792">
        <ele>307.5</ele>
        <time>2022-02-23T15:33:05Z</time>
      </trkpt>
      <trkpt lat="47.65856" lon="6.19788">
        <ele>308.1</ele>
        <time>2022-02-23T15:33:09Z</time>
      </trkpt>
      <trkpt lat="47.65858" lon="6.19782">
        <ele>308.6</ele>
        <time>2022-02-23T15:33:10Z</time>
      </trkpt>
      <trkpt lat="47.65863" lon="6.19775">
        <ele>309.2</ele>
        <time>2022-02-23T15:33:17Z</time>
      </trkpt>
      <trkpt lat="47.65866" lon="6.19769">
        <ele>309.4</ele>
        <time>2022-02-23T15:33:24Z</time>
      </trkpt>
      <trkpt lat="47.65869" lon="6.19763">
        <ele>309.7</ele>
        <time>2022-02-23T15:33:28Z</time>
      </trkpt>
      <trkpt lat="47.65873" lon="6.19757">
        <ele>310.2</ele>
        <time>2022-02-23T15:33:30Z</time>
      </trkpt>
      <trkpt lat="47.65877" lon="6.19752">
        <ele>310.6</ele>
        <time>2022-02-23T15:33:37Z</time>
      </trkpt>
      <trkpt lat="47.6588" lon="6.19748">
        <ele>311.1</ele>
        <time>2022-02-23T15:33:40Z</time>
      </trkpt>
      <trkpt lat="47.65884" lon="6.19744">
        <ele>311.5</ele>
        <time>2022-02-23T15:33:44Z</time>
      </trkpt>
      <trkpt lat="47.6589" lon="6.19741">
        <ele>312.1</ele>
        <time>2022-02-23T15:33:45Z</time>
      </trkpt>
      <trkpt lat="47.65894" lon="6.19736">
        <ele>312.6</ele>
        <time>2022-02-23T15:33:50Z</time>
      </trkpt>
      <trkpt lat="47.6589" lon="6.19739">
        <ele>312.1</ele>
        <time>2022-02-23T15:34:40Z</time>
      </trkpt>
      <trkpt lat="47.65895" lon="6.19738">
        <ele>312.6</ele>
        <time>2022-02-23T15:36:16Z</time>
      </trkpt>
      <trkpt lat="47.65899" lon="6.19734">
        <ele>313.1</ele>
        <time>2022-02-23T15:36:20Z</time>
      </trkpt>
      <trkpt lat="47.65904" lon="6.19731">
        <ele>313.7</ele>
        <time>2022-02-23T15:36:26Z</time>
      </trkpt>
      <trkpt lat="47.65909" lon="6.19729">
        <ele>314.2</ele>
        <time>2022-02-23T15:36:30Z</time>
      </trkpt>
      <trkpt lat="47.65913" lon="6.19726">
        <ele>314.6</ele>
        <time>2022-02-23T15:36:32Z</time>
      </trkpt>
      <trkpt lat="47.65918" lon="6.19725">
        <ele>315.1</ele>
        <time>2022-02-23T15:36:32Z</time>
      </trkpt>
      <trkpt lat="47.65923" lon="6.19722">
        <ele>315.4</ele>
        <time>2022-02-23T15:36:39Z</time>
      </trkpt>
      <trkpt lat="47.65928" lon="6.19721">
        <ele>315.8</ele>
        <time>2022-02-23T15:36:43Z</time>
      </trkpt>
      <trkpt lat="47.65932" lon="6.19719">
        <ele>316.1</ele>
        <time>2022-02-23T15:36:45Z</time>
      </trkpt>
      <trkpt lat="47.65937" lon="6.19716">
        <ele>316.4</ele>
        <time>2022-02-23T15:36:48Z</time>
      </trkpt>
      <trkpt lat="47.65941" lon="6.19714">
        <ele>316.8</ele>
        <time>2022-02-23T15:36:52Z</time>
      </trkpt>
      <trkpt lat="47.65951" lon="6.1971">
        <ele>318.4</ele>
        <time>2022-02-23T15:36:58Z</time>
      </trkpt>
      <trkpt lat="47.65955" lon="6.19706">
        <ele>319.2</ele>
        <time>2022-02-23T15:37:02Z</time>
      </trkpt>
      <trkpt lat="47.65958" lon="6.197">
        <ele>319.9</ele>
        <time>2022-02-23T15:37:02Z</time>
      </trkpt>
      <trkpt lat="47.6596" lon="6.19693">
        <ele>320.4</ele>
        <time>2022-02-23T15:37:06Z</time>
      </trkpt>
      <trkpt lat="47.65962" lon="6.19686">
        <ele>320.7</ele>
        <time>2022-02-23T15:37:13Z</time>
      </trkpt>
      <trkpt lat="47.65964" lon="6.19679">
        <ele>321</ele>
        <time>2022-02-23T15:37:15Z</time>
      </trkpt>
      <trkpt lat="47.65966" lon="6.19664">
        <ele>320.9</ele>
        <time>2022-02-23T15:37:20Z</time>
      </trkpt>
      <trkpt lat="47.65967" lon="6.19656">
        <ele>320.6</ele>
        <time>2022-02-23T15:37:22Z</time>
      </trkpt>
      <trkpt lat="47.65971" lon="6.19642">
        <ele>320.1</ele>
        <time>2022-02-23T15:37:27Z</time>
      </trkpt>
      <trkpt lat="47.65975" lon="6.19637">
        <ele>320.3</ele>
        <time>2022-02-23T15:37:30Z</time>
      </trkpt>
      <trkpt lat="47.65979" lon="6.19635">
        <ele>320.8</ele>
        <time>2022-02-23T15:37:33Z</time>
      </trkpt>
      <trkpt lat="47.65988" lon="6.19632">
        <ele>322.1</ele>
        <time>2022-02-23T15:37:39Z</time>
      </trkpt>
      <trkpt lat="47.65993" lon="6.19629">
        <ele>322.6</ele>
        <time>2022-02-23T15:37:43Z</time>
      </trkpt>
      <trkpt lat="47.65997" lon="6.19627">
        <ele>323.2</ele>
        <time>2022-02-23T15:37:44Z</time>
      </trkpt>
      <trkpt lat="47.66002" lon="6.19631">
        <ele>324.1</ele>
        <time>2022-02-23T15:37:50Z</time>
      </trkpt>
      <trkpt lat="47.66007" lon="6.19633">
        <ele>324.8</ele>
        <time>2022-02-23T15:37:54Z</time>
      </trkpt>
      <trkpt lat="47.66011" lon="6.19634">
        <ele>325.5</ele>
        <time>2022-02-23T15:38:01Z</time>
      </trkpt>
      <trkpt lat="47.66016" lon="6.19632">
        <ele>326.2</ele>
        <time>2022-02-23T15:38:02Z</time>
      </trkpt>
      <trkpt lat="47.66021" lon="6.19631">
        <ele>326.9</ele>
        <time>2022-02-23T15:38:06Z</time>
      </trkpt>
      <trkpt lat="47.66026" lon="6.1963">
        <ele>327.8</ele>
        <time>2022-02-23T15:38:16Z</time>
      </trkpt>
      <trkpt lat="47.66031" lon="6.19628">
        <ele>328.3</ele>
        <time>2022-02-23T15:38:17Z</time>
      </trkpt>
      <trkpt lat="47.66036" lon="6.19626">
        <ele>328.8</ele>
        <time>2022-02-23T15:38:26Z</time>
      </trkpt>
      <trkpt lat="47.66041" lon="6.19623">
        <ele>329.1</ele>
        <time>2022-02-23T15:38:26Z</time>
      </trkpt>
      <trkpt lat="47.66045" lon="6.1962">
        <ele>329.5</ele>
        <time>2022-02-23T15:38:31Z</time>
      </trkpt>
      <trkpt lat="47.66052" lon="6.19616">
        <ele>329.9</ele>
        <time>2022-02-23T15:38:35Z</time>
      </trkpt>
      <trkpt lat="47.66057" lon="6.19613">
        <ele>330.3</ele>
        <time>2022-02-23T15:38:44Z</time>
      </trkpt>
      <trkpt lat="47.66061" lon="6.1961">
        <ele>330.8</ele>
        <time>2022-02-23T15:38:44Z</time>
      </trkpt>
      <trkpt lat="47.66065" lon="6.19607">
        <ele>331.3</ele>
        <time>2022-02-23T15:38:51Z</time>
      </trkpt>
      <trkpt lat="47.6607" lon="6.19605">
        <ele>332</ele>
        <time>2022-02-23T15:38:51Z</time>
      </trkpt>
      <trkpt lat="47.66076" lon="6.19601">
        <ele>332.7</ele>
        <time>2022-02-23T15:38:55Z</time>
      </trkpt>
      <trkpt lat="47.6608" lon="6.19598">
        <ele>333.1</ele>
        <time>2022-02-23T15:39:03Z</time>
      </trkpt>
      <trkpt lat="47.66085" lon="6.19596">
        <ele>333.6</ele>
        <time>2022-02-23T15:39:03Z</time>
      </trkpt>
      <trkpt lat="47.6609" lon="6.19594">
        <ele>334</ele>
        <time>2022-02-23T15:39:11Z</time>
      </trkpt>
      <trkpt lat="47.66094" lon="6.19591">
        <ele>334.4</ele>
        <time>2022-02-23T15:39:11Z</time>
      </trkpt>
      <trkpt lat="47.66099" lon="6.19587">
        <ele>334.8</ele>
        <time>2022-02-23T15:39:19Z</time>
      </trkpt>
      <trkpt lat="47.66103" lon="6.19582">
        <ele>335.1</ele>
        <time>2022-02-23T15:39:24Z</time>
      </trkpt>
      <trkpt lat="47.66107" lon="6.19575">
        <ele>335.5</ele>
        <time>2022-02-23T15:39:27Z</time>
      </trkpt>
      <trkpt lat="47.66114" lon="6.19566">
        <ele>336.2</ele>
        <time>2022-02-23T15:39:32Z</time>
      </trkpt>
      <trkpt lat="47.66119" lon="6.19558">
        <ele>336.6</ele>
        <time>2022-02-23T15:39:32Z</time>
      </trkpt>
      <trkpt lat="47.66122" lon="6.19553">
        <ele>336.8</ele>
        <time>2022-02-23T15:39:39Z</time>
      </trkpt>
      <trkpt lat="47.66126" lon="6.19536">
        <ele>337.1</ele>
        <time>2022-02-23T15:39:42Z</time>
      </trkpt>
      <trkpt lat="47.66127" lon="6.19528">
        <ele>337.1</ele>
        <time>2022-02-23T15:39:45Z</time>
      </trkpt>
      <trkpt lat="47.66128" lon="6.19521">
        <ele>337</ele>
        <time>2022-02-23T15:39:51Z</time>
      </trkpt>
      <trkpt lat="47.66133" lon="6.19509">
        <ele>336.9</ele>
        <time>2022-02-23T15:39:53Z</time>
      </trkpt>
      <trkpt lat="47.66138" lon="6.19502">
        <ele>337</ele>
        <time>2022-02-23T15:40:02Z</time>
      </trkpt>
      <trkpt lat="47.66142" lon="6.19498">
        <ele>337</ele>
        <time>2022-02-23T15:40:06Z</time>
      </trkpt>
      <trkpt lat="47.66147" lon="6.19495">
        <ele>337.1</ele>
        <time>2022-02-23T15:40:09Z</time>
      </trkpt>
      <trkpt lat="47.66151" lon="6.19492">
        <ele>337</ele>
        <time>2022-02-23T15:40:12Z</time>
      </trkpt>
      <trkpt lat="47.66156" lon="6.19489">
        <ele>337</ele>
        <time>2022-02-23T15:40:16Z</time>
      </trkpt>
      <trkpt lat="47.66162" lon="6.19488">
        <ele>337</ele>
        <time>2022-02-23T15:40:16Z</time>
      </trkpt>
      <trkpt lat="47.66167" lon="6.19488">
        <ele>337.1</ele>
        <time>2022-02-23T15:40:24Z</time>
      </trkpt>
      <trkpt lat="47.66172" lon="6.19486">
        <ele>337.1</ele>
        <time>2022-02-23T15:40:26Z</time>
      </trkpt>
      <trkpt lat="47.66177" lon="6.19484">
        <ele>337</ele>
        <time>2022-02-23T15:40:30Z</time>
      </trkpt>
      <trkpt lat="47.66183" lon="6.19482">
        <ele>336.9</ele>
        <time>2022-02-23T15:40:33Z</time>
      </trkpt>
      <trkpt lat="47.66187" lon="6.19483">
        <ele>337</ele>
        <time>2022-02-23T15:40:35Z</time>
      </trkpt>
      <trkpt lat="47.66193" lon="6.19483">
        <ele>337.1</ele>
        <time>2022-02-23T15:40:37Z</time>
      </trkpt>
      <trkpt lat="47.66198" lon="6.19483">
        <ele>337.2</ele>
        <time>2022-02-23T15:40:39Z</time>
      </trkpt>
      <trkpt lat="47.66204" lon="6.19483">
        <ele>337.2</ele>
        <time>2022-02-23T15:40:43Z</time>
      </trkpt>
      <trkpt lat="47.66213" lon="6.19483">
        <ele>337.2</ele>
        <time>2022-02-23T15:40:47Z</time>
      </trkpt>
      <trkpt lat="47.66218" lon="6.19485">
        <ele>337.3</ele>
        <time>2022-02-23T15:40:50Z</time>
      </trkpt>
      <trkpt lat="47.66223" lon="6.19486">
        <ele>337.5</ele>
        <time>2022-02-23T15:40:52Z</time>
      </trkpt>
      <trkpt lat="47.66227" lon="6.19487">
        <ele>337.7</ele>
        <time>2022-02-23T15:40:55Z</time>
      </trkpt>
      <trkpt lat="47.66234" lon="6.19489">
        <ele>338</ele>
        <time>2022-02-23T15:40:55Z</time>
      </trkpt>
      <trkpt lat="47.66239" lon="6.1949">
        <ele>338.2</ele>
        <time>2022-02-23T15:41:01Z</time>
      </trkpt>
      <trkpt lat="47.66245" lon="6.19492">
        <ele>338.4</ele>
        <time>2022-02-23T15:41:04Z</time>
      </trkpt>
      <trkpt lat="47.6625" lon="6.19494">
        <ele>338.5</ele>
        <time>2022-02-23T15:41:04Z</time>
      </trkpt>
      <trkpt lat="47.66256" lon="6.19496">
        <ele>338.7</ele>
        <time>2022-02-23T15:41:13Z</time>
      </trkpt>
      <trkpt lat="47.66261" lon="6.19498">
        <ele>338.9</ele>
        <time>2022-02-23T15:41:17Z</time>
      </trkpt>
      <trkpt lat="47.66265" lon="6.19501">
        <ele>339.1</ele>
        <time>2022-02-23T15:41:21Z</time>
      </trkpt>
      <trkpt lat="47.66271" lon="6.19503">
        <ele>339.3</ele>
        <time>2022-02-23T15:41:21Z</time>
      </trkpt>
      <trkpt lat="47.66276" lon="6.19504">
        <ele>339.5</ele>
        <time>2022-02-23T15:41:28Z</time>
      </trkpt>
      <trkpt lat="47.66281" lon="6.19504">
        <ele>339.6</ele>
        <time>2022-02-23T15:41:31Z</time>
      </trkpt>
      <trkpt lat="47.66292" lon="6.19506">
        <ele>340.1</ele>
        <time>2022-02-23T15:41:33Z</time>
      </trkpt>
      <trkpt lat="47.66297" lon="6.19507">
        <ele>340.3</ele>
        <time>2022-02-23T15:41:41Z</time>
      </trkpt>
      <trkpt lat="47.66302" lon="6.19508">
        <ele>340.5</ele>
        <time>2022-02-23T15:41:41Z</time>
      </trkpt>
      <trkpt lat="47.66307" lon="6.19507">
        <ele>340.5</ele>
        <time>2022-02-23T15:42:15Z</time>
      </trkpt>
      <trkpt lat="47.66318" lon="6.19511">
        <ele>340.8</ele>
        <time>2022-02-23T15:42:20Z</time>
      </trkpt>
      <trkpt lat="47.66323" lon="6.19512">
        <ele>340.9</ele>
        <time>2022-02-23T15:42:22Z</time>
      </trkpt>
      <trkpt lat="47.66334" lon="6.19516">
        <ele>341.1</ele>
        <time>2022-02-23T15:42:27Z</time>
      </trkpt>
      <trkpt lat="47.66339" lon="6.19518">
        <ele>341.2</ele>
        <time>2022-02-23T15:42:29Z</time>
      </trkpt>
      <trkpt lat="47.66344" lon="6.19519">
        <ele>341.1</ele>
        <time>2022-02-23T15:42:31Z</time>
      </trkpt>
      <trkpt lat="47.66349" lon="6.1952">
        <ele>341.1</ele>
        <time>2022-02-23T15:42:33Z</time>
      </trkpt>
      <trkpt lat="47.66359" lon="6.19522">
        <ele>340.8</ele>
        <time>2022-02-23T15:42:34Z</time>
      </trkpt>
      <trkpt lat="47.66364" lon="6.19522">
        <ele>340.7</ele>
        <time>2022-02-23T15:42:36Z</time>
      </trkpt>
      <trkpt lat="47.6637" lon="6.19523">
        <ele>340.5</ele>
        <time>2022-02-23T15:42:42Z</time>
      </trkpt>
      <trkpt lat="47.66376" lon="6.19524">
        <ele>340.3</ele>
        <time>2022-02-23T15:42:43Z</time>
      </trkpt>
      <trkpt lat="47.66381" lon="6.19525">
        <ele>340.2</ele>
        <time>2022-02-23T15:42:45Z</time>
      </trkpt>
      <trkpt lat="47.66385" lon="6.19526">
        <ele>340.1</ele>
        <time>2022-02-23T15:42:47Z</time>
      </trkpt>
      <trkpt lat="47.66396" lon="6.19528">
        <ele>339.5</ele>
        <time>2022-02-23T15:42:50Z</time>
      </trkpt>
      <trkpt lat="47.66401" lon="6.1953">
        <ele>339.2</ele>
        <time>2022-02-23T15:42:52Z</time>
      </trkpt>
      <trkpt lat="47.66406" lon="6.19532">
        <ele>338.9</ele>
        <time>2022-02-23T15:42:53Z</time>
      </trkpt>
      <trkpt lat="47.66412" lon="6.19534">
        <ele>338.5</ele>
        <time>2022-02-23T15:42:55Z</time>
      </trkpt>
      <trkpt lat="47.66417" lon="6.19535">
        <ele>338.3</ele>
        <time>2022-02-23T15:42:57Z</time>
      </trkpt>
      <trkpt lat="47.66423" lon="6.19537">
        <ele>338.1</ele>
        <time>2022-02-23T15:42:58Z</time>
      </trkpt>
      <trkpt lat="47.66429" lon="6.19538">
        <ele>337.9</ele>
        <time>2022-02-23T15:43:00Z</time>
      </trkpt>
      <trkpt lat="47.66435" lon="6.1954">
        <ele>337.8</ele>
        <time>2022-02-23T15:43:02Z</time>
      </trkpt>
      <trkpt lat="47.66447" lon="6.19544">
        <ele>337.5</ele>
        <time>2022-02-23T15:43:05Z</time>
      </trkpt>
      <trkpt lat="47.66455" lon="6.19546">
        <ele>337.4</ele>
        <time>2022-02-23T15:43:07Z</time>
      </trkpt>
      <trkpt lat="47.6646" lon="6.19548">
        <ele>337.3</ele>
        <time>2022-02-23T15:43:08Z</time>
      </trkpt>
      <trkpt lat="47.66472" lon="6.19553">
        <ele>337</ele>
        <time>2022-02-23T15:43:10Z</time>
      </trkpt>
      <trkpt lat="47.66478" lon="6.19556">
        <ele>336.8</ele>
        <time>2022-02-23T15:43:12Z</time>
      </trkpt>
      <trkpt lat="47.66483" lon="6.19559">
        <ele>336.6</ele>
        <time>2022-02-23T15:43:13Z</time>
      </trkpt>
      <trkpt lat="47.66503" lon="6.19577">
        <ele>335.2</ele>
        <time>2022-02-23T15:43:14Z</time>
      </trkpt>
      <trkpt lat="47.66511" lon="6.19583">
        <ele>335</ele>
        <time>2022-02-23T15:43:16Z</time>
      </trkpt>
      <trkpt lat="47.66516" lon="6.19583">
        <ele>335</ele>
        <time>2022-02-23T15:43:21Z</time>
      </trkpt>
      <trkpt lat="47.66521" lon="6.19587">
        <ele>334.9</ele>
        <time>2022-02-23T15:43:22Z</time>
      </trkpt>
      <trkpt lat="47.66539" lon="6.19606">
        <ele>333.4</ele>
        <time>2022-02-23T15:43:23Z</time>
      </trkpt>
      <trkpt lat="47.66546" lon="6.19613">
        <ele>332.6</ele>
        <time>2022-02-23T15:43:25Z</time>
      </trkpt>
      <trkpt lat="47.66552" lon="6.19615">
        <ele>332.2</ele>
        <time>2022-02-23T15:43:27Z</time>
      </trkpt>
      <trkpt lat="47.66557" lon="6.1962">
        <ele>331.9</ele>
        <time>2022-02-23T15:43:32Z</time>
      </trkpt>
      <trkpt lat="47.66568" lon="6.1963">
        <ele>330.7</ele>
        <time>2022-02-23T15:43:36Z</time>
      </trkpt>
      <trkpt lat="47.66577" lon="6.19638">
        <ele>329.6</ele>
        <time>2022-02-23T15:43:39Z</time>
      </trkpt>
      <trkpt lat="47.6659" lon="6.19645">
        <ele>327.8</ele>
        <time>2022-02-23T15:43:42Z</time>
      </trkpt>
      <trkpt lat="47.66608" lon="6.19658">
        <ele>325.2</ele>
        <time>2022-02-23T15:43:43Z</time>
      </trkpt>
      <trkpt lat="47.66612" lon="6.19663">
        <ele>324.7</ele>
        <time>2022-02-23T15:43:44Z</time>
      </trkpt>
      <trkpt lat="47.66617" lon="6.19669">
        <ele>324.3</ele>
        <time>2022-02-23T15:43:45Z</time>
      </trkpt>
      <trkpt lat="47.66621" lon="6.19674">
        <ele>323.9</ele>
        <time>2022-02-23T15:43:46Z</time>
      </trkpt>
      <trkpt lat="47.66625" lon="6.1968">
        <ele>323.5</ele>
        <time>2022-02-23T15:43:47Z</time>
      </trkpt>
      <trkpt lat="47.66629" lon="6.19686">
        <ele>323.1</ele>
        <time>2022-02-23T15:43:48Z</time>
      </trkpt>
      <trkpt lat="47.66633" lon="6.19691">
        <ele>322.8</ele>
        <time>2022-02-23T15:43:49Z</time>
      </trkpt>
      <trkpt lat="47.66636" lon="6.19696">
        <ele>322.5</ele>
        <time>2022-02-23T15:43:50Z</time>
      </trkpt>
      <trkpt lat="47.66642" lon="6.19705">
        <ele>322.1</ele>
        <time>2022-02-23T15:43:52Z</time>
      </trkpt>
      <trkpt lat="47.66646" lon="6.19713">
        <ele>321.9</ele>
        <time>2022-02-23T15:43:54Z</time>
      </trkpt>
      <trkpt lat="47.6665" lon="6.19719">
        <ele>321.7</ele>
        <time>2022-02-23T15:43:55Z</time>
      </trkpt>
      <trkpt lat="47.66654" lon="6.19725">
        <ele>321.4</ele>
        <time>2022-02-23T15:43:56Z</time>
      </trkpt>
      <trkpt lat="47.66657" lon="6.19731">
        <ele>321</ele>
        <time>2022-02-23T15:43:57Z</time>
      </trkpt>
      <trkpt lat="47.66661" lon="6.19737">
        <ele>320.7</ele>
        <time>2022-02-23T15:43:58Z</time>
      </trkpt>
      <trkpt lat="47.66664" lon="6.19743">
        <ele>320.3</ele>
        <time>2022-02-23T15:43:59Z</time>
      </trkpt>
      <trkpt lat="47.66668" lon="6.1975">
        <ele>319.9</ele>
        <time>2022-02-23T15:44:00Z</time>
      </trkpt>
      <trkpt lat="47.66672" lon="6.19757">
        <ele>319.5</ele>
        <time>2022-02-23T15:44:01Z</time>
      </trkpt>
      <trkpt lat="47.66676" lon="6.19764">
        <ele>319.2</ele>
        <time>2022-02-23T15:44:02Z</time>
      </trkpt>
      <trkpt lat="47.66681" lon="6.19771">
        <ele>318.9</ele>
        <time>2022-02-23T15:44:03Z</time>
      </trkpt>
      <trkpt lat="47.66685" lon="6.19778">
        <ele>318.7</ele>
        <time>2022-02-23T15:44:04Z</time>
      </trkpt>
      <trkpt lat="47.6669" lon="6.19785">
        <ele>318.6</ele>
        <time>2022-02-23T15:44:05Z</time>
      </trkpt>
      <trkpt lat="47.66694" lon="6.19791">
        <ele>318.5</ele>
        <time>2022-02-23T15:44:06Z</time>
      </trkpt>
      <trkpt lat="47.66699" lon="6.19798">
        <ele>318.2</ele>
        <time>2022-02-23T15:44:07Z</time>
      </trkpt>
      <trkpt lat="47.66704" lon="6.19805">
        <ele>317.9</ele>
        <time>2022-02-23T15:44:08Z</time>
      </trkpt>
      <trkpt lat="47.66709" lon="6.19812">
        <ele>317.4</ele>
        <time>2022-02-23T15:44:09Z</time>
      </trkpt>
      <trkpt lat="47.66715" lon="6.19818">
        <ele>317</ele>
        <time>2022-02-23T15:44:10Z</time>
      </trkpt>
      <trkpt lat="47.6672" lon="6.19824">
        <ele>316.8</ele>
        <time>2022-02-23T15:44:11Z</time>
      </trkpt>
      <trkpt lat="47.66724" lon="6.1983">
        <ele>316.7</ele>
        <time>2022-02-23T15:44:12Z</time>
      </trkpt>
      <trkpt lat="47.66729" lon="6.19836">
        <ele>316.3</ele>
        <time>2022-02-23T15:44:13Z</time>
      </trkpt>
      <trkpt lat="47.66733" lon="6.19842">
        <ele>315.9</ele>
        <time>2022-02-23T15:44:14Z</time>
      </trkpt>
      <trkpt lat="47.66738" lon="6.19847">
        <ele>315.6</ele>
        <time>2022-02-23T15:44:15Z</time>
      </trkpt>
      <trkpt lat="47.66741" lon="6.19852">
        <ele>315.4</ele>
        <time>2022-02-23T15:44:16Z</time>
      </trkpt>
      <trkpt lat="47.66745" lon="6.19856">
        <ele>315.2</ele>
        <time>2022-02-23T15:44:17Z</time>
      </trkpt>
      <trkpt lat="47.66749" lon="6.1986">
        <ele>315.1</ele>
        <time>2022-02-23T15:44:18Z</time>
      </trkpt>
      <trkpt lat="47.66753" lon="6.19865">
        <ele>314.8</ele>
        <time>2022-02-23T15:44:19Z</time>
      </trkpt>
      <trkpt lat="47.66758" lon="6.19871">
        <ele>314.5</ele>
        <time>2022-02-23T15:44:20Z</time>
      </trkpt>
      <trkpt lat="47.66762" lon="6.19876">
        <ele>314.4</ele>
        <time>2022-02-23T15:44:21Z</time>
      </trkpt>
      <trkpt lat="47.66767" lon="6.19881">
        <ele>314.2</ele>
        <time>2022-02-23T15:44:22Z</time>
      </trkpt>
      <trkpt lat="47.66771" lon="6.19887">
        <ele>314.2</ele>
        <time>2022-02-23T15:44:23Z</time>
      </trkpt>
      <trkpt lat="47.66776" lon="6.19892">
        <ele>314.2</ele>
        <time>2022-02-23T15:44:24Z</time>
      </trkpt>
      <trkpt lat="47.6678" lon="6.19896">
        <ele>314.2</ele>
        <time>2022-02-23T15:44:25Z</time>
      </trkpt>
      <trkpt lat="47.66784" lon="6.199">
        <ele>314.1</ele>
        <time>2022-02-23T15:44:26Z</time>
      </trkpt>
      <trkpt lat="47.66791" lon="6.19907">
        <ele>313.9</ele>
        <time>2022-02-23T15:44:28Z</time>
      </trkpt>
      <trkpt lat="47.66796" lon="6.19912">
        <ele>313.6</ele>
        <time>2022-02-23T15:44:30Z</time>
      </trkpt>
      <trkpt lat="47.66803" lon="6.19917">
        <ele>313.2</ele>
        <time>2022-02-23T15:44:32Z</time>
      </trkpt>
      <trkpt lat="47.66809" lon="6.19921">
        <ele>313</ele>
        <time>2022-02-23T15:44:34Z</time>
      </trkpt>
      <trkpt lat="47.66818" lon="6.19926">
        <ele>312.9</ele>
        <time>2022-02-23T15:44:38Z</time>
      </trkpt>
      <trkpt lat="47.66822" lon="6.1993">
        <ele>312.9</ele>
        <time>2022-02-23T15:44:42Z</time>
      </trkpt>
      <trkpt lat="47.66834" lon="6.19937">
        <ele>312.7</ele>
        <time>2022-02-23T15:44:46Z</time>
      </trkpt>
      <trkpt lat="47.66838" lon="6.19941">
        <ele>312.5</ele>
        <time>2022-02-23T15:44:49Z</time>
      </trkpt>
      <trkpt lat="47.66843" lon="6.19944">
        <ele>312.3</ele>
        <time>2022-02-23T15:44:51Z</time>
      </trkpt>
      <trkpt lat="47.66848" lon="6.19949">
        <ele>312.2</ele>
        <time>2022-02-23T15:44:54Z</time>
      </trkpt>
      <trkpt lat="47.66859" lon="6.19959">
        <ele>312.2</ele>
        <time>2022-02-23T15:44:55Z</time>
      </trkpt>
      <trkpt lat="47.66866" lon="6.19965">
        <ele>312</ele>
        <time>2022-02-23T15:44:57Z</time>
      </trkpt>
      <trkpt lat="47.66871" lon="6.1997">
        <ele>311.8</ele>
        <time>2022-02-23T15:45:01Z</time>
      </trkpt>
      <trkpt lat="47.66881" lon="6.19979">
        <ele>311.3</ele>
        <time>2022-02-23T15:45:04Z</time>
      </trkpt>
      <trkpt lat="47.66884" lon="6.19984">
        <ele>311.3</ele>
        <time>2022-02-23T15:45:06Z</time>
      </trkpt>
      <trkpt lat="47.66888" lon="6.19988">
        <ele>311.2</ele>
        <time>2022-02-23T15:45:07Z</time>
      </trkpt>
      <trkpt lat="47.66893" lon="6.19993">
        <ele>311</ele>
        <time>2022-02-23T15:45:08Z</time>
      </trkpt>
      <trkpt lat="47.66899" lon="6.20001">
        <ele>310.9</ele>
        <time>2022-02-23T15:45:10Z</time>
      </trkpt>
      <trkpt lat="47.66904" lon="6.20007">
        <ele>310.8</ele>
        <time>2022-02-23T15:45:12Z</time>
      </trkpt>
      <trkpt lat="47.66914" lon="6.20021">
        <ele>310.7</ele>
        <time>2022-02-23T15:45:15Z</time>
      </trkpt>
      <trkpt lat="47.66918" lon="6.20026">
        <ele>310.8</ele>
        <time>2022-02-23T15:45:16Z</time>
      </trkpt>
      <trkpt lat="47.66923" lon="6.20032">
        <ele>310.7</ele>
        <time>2022-02-23T15:45:18Z</time>
      </trkpt>
      <trkpt lat="47.66936" lon="6.20047">
        <ele>310.3</ele>
        <time>2022-02-23T15:45:22Z</time>
      </trkpt>
      <trkpt lat="47.66941" lon="6.20053">
        <ele>310.1</ele>
        <time>2022-02-23T15:45:23Z</time>
      </trkpt>
      <trkpt lat="47.66947" lon="6.2006">
        <ele>310.2</ele>
        <time>2022-02-23T15:45:26Z</time>
      </trkpt>
      <trkpt lat="47.66953" lon="6.20067">
        <ele>310.4</ele>
        <time>2022-02-23T15:45:27Z</time>
      </trkpt>
      <trkpt lat="47.66957" lon="6.20072">
        <ele>310.5</ele>
        <time>2022-02-23T15:45:29Z</time>
      </trkpt>
      <trkpt lat="47.6696" lon="6.20078">
        <ele>310.6</ele>
        <time>2022-02-23T15:45:30Z</time>
      </trkpt>
      <trkpt lat="47.66964" lon="6.20083">
        <ele>310.6</ele>
        <time>2022-02-23T15:45:31Z</time>
      </trkpt>
      <trkpt lat="47.66968" lon="6.20089">
        <ele>310.5</ele>
        <time>2022-02-23T15:45:32Z</time>
      </trkpt>
      <trkpt lat="47.66973" lon="6.20096">
        <ele>310.4</ele>
        <time>2022-02-23T15:45:33Z</time>
      </trkpt>
      <trkpt lat="47.66977" lon="6.20103">
        <ele>310.4</ele>
        <time>2022-02-23T15:45:34Z</time>
      </trkpt>
      <trkpt lat="47.66981" lon="6.2011">
        <ele>310.3</ele>
        <time>2022-02-23T15:45:36Z</time>
      </trkpt>
      <trkpt lat="47.67001" lon="6.20139">
        <ele>309</ele>
        <time>2022-02-23T15:45:37Z</time>
      </trkpt>
      <trkpt lat="47.67005" lon="6.20145">
        <ele>308.7</ele>
        <time>2022-02-23T15:45:38Z</time>
      </trkpt>
      <trkpt lat="47.67008" lon="6.20151">
        <ele>308.4</ele>
        <time>2022-02-23T15:45:39Z</time>
      </trkpt>
      <trkpt lat="47.67012" lon="6.20157">
        <ele>308.2</ele>
        <time>2022-02-23T15:45:40Z</time>
      </trkpt>
      <trkpt lat="47.67015" lon="6.20163">
        <ele>307.9</ele>
        <time>2022-02-23T15:45:41Z</time>
      </trkpt>
      <trkpt lat="47.67018" lon="6.20168">
        <ele>307.6</ele>
        <time>2022-02-23T15:45:42Z</time>
      </trkpt>
      <trkpt lat="47.67022" lon="6.20173">
        <ele>307.4</ele>
        <time>2022-02-23T15:45:43Z</time>
      </trkpt>
      <trkpt lat="47.67026" lon="6.20178">
        <ele>307.1</ele>
        <time>2022-02-23T15:45:44Z</time>
      </trkpt>
      <trkpt lat="47.67029" lon="6.20182">
        <ele>306.9</ele>
        <time>2022-02-23T15:45:45Z</time>
      </trkpt>
      <trkpt lat="47.67036" lon="6.20189">
        <ele>306.7</ele>
        <time>2022-02-23T15:45:47Z</time>
      </trkpt>
      <trkpt lat="47.67043" lon="6.20196">
        <ele>306.4</ele>
        <time>2022-02-23T15:45:49Z</time>
      </trkpt>
      <trkpt lat="47.67047" lon="6.20201">
        <ele>306.2</ele>
        <time>2022-02-23T15:45:51Z</time>
      </trkpt>
      <trkpt lat="47.67051" lon="6.20206">
        <ele>306.1</ele>
        <time>2022-02-23T15:45:56Z</time>
      </trkpt>
      <trkpt lat="47.67054" lon="6.2021">
        <ele>306</ele>
        <time>2022-02-23T15:45:58Z</time>
      </trkpt>
      <trkpt lat="47.6706" lon="6.20216">
        <ele>306</ele>
        <time>2022-02-23T15:46:01Z</time>
      </trkpt>
      <trkpt lat="47.67065" lon="6.20221">
        <ele>306</ele>
        <time>2022-02-23T15:46:03Z</time>
      </trkpt>
      <trkpt lat="47.67069" lon="6.20225">
        <ele>305.9</ele>
        <time>2022-02-23T15:46:05Z</time>
      </trkpt>
      <trkpt lat="47.67073" lon="6.20228">
        <ele>305.8</ele>
        <time>2022-02-23T15:46:07Z</time>
      </trkpt>
      <trkpt lat="47.67082" lon="6.20237">
        <ele>305.5</ele>
        <time>2022-02-23T15:46:11Z</time>
      </trkpt>
      <trkpt lat="47.67087" lon="6.20243">
        <ele>305.3</ele>
        <time>2022-02-23T15:46:12Z</time>
      </trkpt>
      <trkpt lat="47.67094" lon="6.20253">
        <ele>305.4</ele>
        <time>2022-02-23T15:46:15Z</time>
      </trkpt>
      <trkpt lat="47.671" lon="6.20257">
        <ele>305.6</ele>
        <time>2022-02-23T15:46:17Z</time>
      </trkpt>
      <trkpt lat="47.67105" lon="6.20262">
        <ele>305.8</ele>
        <time>2022-02-23T15:46:19Z</time>
      </trkpt>
      <trkpt lat="47.67113" lon="6.20271">
        <ele>306</ele>
        <time>2022-02-23T15:46:20Z</time>
      </trkpt>
      <trkpt lat="47.67117" lon="6.20274">
        <ele>306</ele>
        <time>2022-02-23T15:46:24Z</time>
      </trkpt>
      <trkpt lat="47.67122" lon="6.20279">
        <ele>306</ele>
        <time>2022-02-23T15:46:27Z</time>
      </trkpt>
      <trkpt lat="47.67131" lon="6.20289">
        <ele>305.9</ele>
        <time>2022-02-23T15:46:31Z</time>
      </trkpt>
      <trkpt lat="47.67137" lon="6.20294">
        <ele>306</ele>
        <time>2022-02-23T15:46:33Z</time>
      </trkpt>
      <trkpt lat="47.67142" lon="6.20298">
        <ele>306</ele>
        <time>2022-02-23T15:46:35Z</time>
      </trkpt>
      <trkpt lat="47.67147" lon="6.20303">
        <ele>306</ele>
        <time>2022-02-23T15:46:36Z</time>
      </trkpt>
      <trkpt lat="47.67153" lon="6.20308">
        <ele>305.9</ele>
        <time>2022-02-23T15:46:39Z</time>
      </trkpt>
      <trkpt lat="47.67157" lon="6.20311">
        <ele>305.8</ele>
        <time>2022-02-23T15:46:40Z</time>
      </trkpt>
      <trkpt lat="47.67162" lon="6.20316">
        <ele>305.6</ele>
        <time>2022-02-23T15:46:42Z</time>
      </trkpt>
      <trkpt lat="47.67167" lon="6.2032">
        <ele>305.5</ele>
        <time>2022-02-23T15:46:44Z</time>
      </trkpt>
      <trkpt lat="47.67171" lon="6.20323">
        <ele>305.3</ele>
        <time>2022-02-23T15:46:45Z</time>
      </trkpt>
      <trkpt lat="47.67182" lon="6.20323">
        <ele>305.2</ele>
        <time>2022-02-23T15:46:46Z</time>
      </trkpt>
      <trkpt lat="47.67188" lon="6.20316">
        <ele>305.1</ele>
        <time>2022-02-23T15:46:50Z</time>
      </trkpt>
      <trkpt lat="47.67192" lon="6.20311">
        <ele>305.1</ele>
        <time>2022-02-23T15:46:51Z</time>
      </trkpt>
      <trkpt lat="47.67195" lon="6.20305">
        <ele>305</ele>
        <time>2022-02-23T15:46:53Z</time>
      </trkpt>
      <trkpt lat="47.67199" lon="6.20297">
        <ele>305</ele>
        <time>2022-02-23T15:46:54Z</time>
      </trkpt>
      <trkpt lat="47.67203" lon="6.2029">
        <ele>305</ele>
        <time>2022-02-23T15:46:56Z</time>
      </trkpt>
      <trkpt lat="47.67211" lon="6.20285">
        <ele>305</ele>
        <time>2022-02-23T15:46:58Z</time>
      </trkpt>
      <trkpt lat="47.67222" lon="6.2028">
        <ele>305</ele>
        <time>2022-02-23T15:47:01Z</time>
      </trkpt>
      <trkpt lat="47.67235" lon="6.20273">
        <ele>305</ele>
        <time>2022-02-23T15:47:05Z</time>
      </trkpt>
      <trkpt lat="47.67243" lon="6.20271">
        <ele>305</ele>
        <time>2022-02-23T15:47:06Z</time>
      </trkpt>
      <trkpt lat="47.67251" lon="6.20268">
        <ele>305</ele>
        <time>2022-02-23T15:47:08Z</time>
      </trkpt>
      <trkpt lat="47.67279" lon="6.20255">
        <ele>305</ele>
        <time>2022-02-23T15:47:09Z</time>
      </trkpt>
      <trkpt lat="47.67284" lon="6.20251">
        <ele>305</ele>
        <time>2022-02-23T15:47:13Z</time>
      </trkpt>
      <trkpt lat="47.67289" lon="6.20248">
        <ele>304.9</ele>
        <time>2022-02-23T15:47:14Z</time>
      </trkpt>
      <trkpt lat="47.67294" lon="6.20245">
        <ele>304.9</ele>
        <time>2022-02-23T15:47:15Z</time>
      </trkpt>
      <trkpt lat="47.67299" lon="6.20241">
        <ele>304.9</ele>
        <time>2022-02-23T15:47:16Z</time>
      </trkpt>
      <trkpt lat="47.67306" lon="6.20235">
        <ele>305</ele>
        <time>2022-02-23T15:47:18Z</time>
      </trkpt>
      <trkpt lat="47.67311" lon="6.20229">
        <ele>305.2</ele>
        <time>2022-02-23T15:47:20Z</time>
      </trkpt>
      <trkpt lat="47.67315" lon="6.20226">
        <ele>305.3</ele>
        <time>2022-02-23T15:47:22Z</time>
      </trkpt>
      <trkpt lat="47.67326" lon="6.20217">
        <ele>305.7</ele>
        <time>2022-02-23T15:47:26Z</time>
      </trkpt>
      <trkpt lat="47.67338" lon="6.20208">
        <ele>306</ele>
        <time>2022-02-23T15:47:30Z</time>
      </trkpt>
      <trkpt lat="47.67343" lon="6.20205">
        <ele>306</ele>
        <time>2022-02-23T15:47:32Z</time>
      </trkpt>
      <trkpt lat="47.67347" lon="6.20202">
        <ele>306</ele>
        <time>2022-02-23T15:47:33Z</time>
      </trkpt>
      <trkpt lat="47.67352" lon="6.20199">
        <ele>306</ele>
        <time>2022-02-23T15:47:35Z</time>
      </trkpt>
      <trkpt lat="47.67358" lon="6.20195">
        <ele>306</ele>
        <time>2022-02-23T15:47:38Z</time>
      </trkpt>
      <trkpt lat="47.67363" lon="6.20192">
        <ele>306.1</ele>
        <time>2022-02-23T15:47:39Z</time>
      </trkpt>
      <trkpt lat="47.67368" lon="6.20189">
        <ele>306.2</ele>
        <time>2022-02-23T15:47:41Z</time>
      </trkpt>
      <trkpt lat="47.6738" lon="6.20182">
        <ele>306.4</ele>
        <time>2022-02-23T15:47:46Z</time>
      </trkpt>
      <trkpt lat="47.67385" lon="6.20179">
        <ele>306.4</ele>
        <time>2022-02-23T15:47:48Z</time>
      </trkpt>
      <trkpt lat="47.67395" lon="6.20173">
        <ele>306.4</ele>
        <time>2022-02-23T15:47:49Z</time>
      </trkpt>
      <trkpt lat="47.674" lon="6.2017">
        <ele>306.5</ele>
        <time>2022-02-23T15:47:51Z</time>
      </trkpt>
      <trkpt lat="47.67404" lon="6.20167">
        <ele>306.6</ele>
        <time>2022-02-23T15:47:55Z</time>
      </trkpt>
      <trkpt lat="47.6741" lon="6.20163">
        <ele>306.8</ele>
        <time>2022-02-23T15:47:58Z</time>
      </trkpt>
      <trkpt lat="47.67421" lon="6.20158">
        <ele>307</ele>
        <time>2022-02-23T15:47:59Z</time>
      </trkpt>
      <trkpt lat="47.67426" lon="6.20154">
        <ele>307</ele>
        <time>2022-02-23T15:48:01Z</time>
      </trkpt>
      <trkpt lat="47.67431" lon="6.20152">
        <ele>307</ele>
        <time>2022-02-23T15:48:03Z</time>
      </trkpt>
      <trkpt lat="47.67436" lon="6.2015">
        <ele>307</ele>
        <time>2022-02-23T15:48:08Z</time>
      </trkpt>
      <trkpt lat="47.67441" lon="6.2015">
        <ele>307</ele>
        <time>2022-02-23T15:48:10Z</time>
      </trkpt>
      <trkpt lat="47.67447" lon="6.20149">
        <ele>307.1</ele>
        <time>2022-02-23T15:48:13Z</time>
      </trkpt>
      <trkpt lat="47.67451" lon="6.2015">
        <ele>307.4</ele>
        <time>2022-02-23T15:48:14Z</time>
      </trkpt>
      <trkpt lat="47.67455" lon="6.20153">
        <ele>307.6</ele>
        <time>2022-02-23T15:48:21Z</time>
      </trkpt>
      <trkpt lat="47.67461" lon="6.20157">
        <ele>307.8</ele>
        <time>2022-02-23T15:48:24Z</time>
      </trkpt>
      <trkpt lat="47.67466" lon="6.20158">
        <ele>308</ele>
        <time>2022-02-23T15:48:28Z</time>
      </trkpt>
      <trkpt lat="47.67479" lon="6.2016">
        <ele>308.6</ele>
        <time>2022-02-23T15:48:34Z</time>
      </trkpt>
      <trkpt lat="47.67485" lon="6.20162">
        <ele>308.7</ele>
        <time>2022-02-23T15:48:35Z</time>
      </trkpt>
      <trkpt lat="47.6749" lon="6.20163">
        <ele>308.8</ele>
        <time>2022-02-23T15:48:37Z</time>
      </trkpt>
      <trkpt lat="47.67495" lon="6.20164">
        <ele>309</ele>
        <time>2022-02-23T15:48:39Z</time>
      </trkpt>
      <trkpt lat="47.67499" lon="6.20166">
        <ele>309</ele>
        <time>2022-02-23T15:48:42Z</time>
      </trkpt>
      <trkpt lat="47.67509" lon="6.20169">
        <ele>309</ele>
        <time>2022-02-23T15:48:46Z</time>
      </trkpt>
      <trkpt lat="47.67514" lon="6.20169">
        <ele>309.2</ele>
        <time>2022-02-23T15:48:51Z</time>
      </trkpt>
      <trkpt lat="47.67519" lon="6.2017">
        <ele>309.3</ele>
        <time>2022-02-23T15:48:53Z</time>
      </trkpt>
      <trkpt lat="47.67529" lon="6.20173">
        <ele>309.4</ele>
        <time>2022-02-23T15:48:56Z</time>
      </trkpt>
      <trkpt lat="47.67534" lon="6.20174">
        <ele>309.7</ele>
        <time>2022-02-23T15:49:01Z</time>
      </trkpt>
      <trkpt lat="47.67544" lon="6.20174">
        <ele>310.4</ele>
        <time>2022-02-23T15:49:03Z</time>
      </trkpt>
      <trkpt lat="47.67548" lon="6.20176">
        <ele>310.5</ele>
        <time>2022-02-23T15:49:08Z</time>
      </trkpt>
      <trkpt lat="47.67554" lon="6.20176">
        <ele>310.8</ele>
        <time>2022-02-23T15:49:11Z</time>
      </trkpt>
      <trkpt lat="47.67558" lon="6.20177">
        <ele>311</ele>
        <time>2022-02-23T15:49:12Z</time>
      </trkpt>
      <trkpt lat="47.67566" lon="6.2018">
        <ele>311.3</ele>
        <time>2022-02-23T15:49:14Z</time>
      </trkpt>
      <trkpt lat="47.6757" lon="6.20182">
        <ele>311.4</ele>
        <time>2022-02-23T15:49:17Z</time>
      </trkpt>
      <trkpt lat="47.67575" lon="6.20184">
        <ele>311.5</ele>
        <time>2022-02-23T15:49:19Z</time>
      </trkpt>
      <trkpt lat="47.67585" lon="6.20188">
        <ele>311.8</ele>
        <time>2022-02-23T15:49:23Z</time>
      </trkpt>
      <trkpt lat="47.67594" lon="6.20192">
        <ele>312</ele>
        <time>2022-02-23T15:49:25Z</time>
      </trkpt>
      <trkpt lat="47.67601" lon="6.20193">
        <ele>312.4</ele>
        <time>2022-02-23T15:49:27Z</time>
      </trkpt>
      <trkpt lat="47.67606" lon="6.20194">
        <ele>312.6</ele>
        <time>2022-02-23T15:49:28Z</time>
      </trkpt>
      <trkpt lat="47.67617" lon="6.20197">
        <ele>313.2</ele>
        <time>2022-02-23T15:49:31Z</time>
      </trkpt>
      <trkpt lat="47.67622" lon="6.202">
        <ele>313.3</ele>
        <time>2022-02-23T15:49:33Z</time>
      </trkpt>
      <trkpt lat="47.6763" lon="6.20205">
        <ele>313.5</ele>
        <time>2022-02-23T15:49:34Z</time>
      </trkpt>
      <trkpt lat="47.67635" lon="6.20208">
        <ele>313.7</ele>
        <time>2022-02-23T15:49:39Z</time>
      </trkpt>
      <trkpt lat="47.67642" lon="6.2021">
        <ele>314.1</ele>
        <time>2022-02-23T15:49:41Z</time>
      </trkpt>
      <trkpt lat="47.67647" lon="6.20211">
        <ele>314.4</ele>
        <time>2022-02-23T15:49:42Z</time>
      </trkpt>
      <trkpt lat="47.67664" lon="6.20214">
        <ele>315.4</ele>
        <time>2022-02-23T15:49:45Z</time>
      </trkpt>
      <trkpt lat="47.6767" lon="6.20215">
        <ele>315.8</ele>
        <time>2022-02-23T15:49:47Z</time>
      </trkpt>
      <trkpt lat="47.6768" lon="6.20215">
        <ele>316.5</ele>
        <time>2022-02-23T15:49:52Z</time>
      </trkpt>
      <trkpt lat="47.67685" lon="6.20217">
        <ele>316.7</ele>
        <time>2022-02-23T15:49:55Z</time>
      </trkpt>
      <trkpt lat="47.6769" lon="6.2022">
        <ele>316.8</ele>
        <time>2022-02-23T15:49:58Z</time>
      </trkpt>
      <trkpt lat="47.67694" lon="6.20223">
        <ele>316.9</ele>
        <time>2022-02-23T15:50:01Z</time>
      </trkpt>
      <trkpt lat="47.67703" lon="6.20232">
        <ele>317.2</ele>
        <time>2022-02-23T15:50:06Z</time>
      </trkpt>
      <trkpt lat="47.67708" lon="6.20236">
        <ele>317.3</ele>
        <time>2022-02-23T15:50:08Z</time>
      </trkpt>
      <trkpt lat="47.67713" lon="6.20239">
        <ele>317.4</ele>
        <time>2022-02-23T15:50:11Z</time>
      </trkpt>
      <trkpt lat="47.67718" lon="6.20241">
        <ele>317.4</ele>
        <time>2022-02-23T15:50:13Z</time>
      </trkpt>
      <trkpt lat="47.67723" lon="6.20244">
        <ele>317.5</ele>
        <time>2022-02-23T15:50:16Z</time>
      </trkpt>
      <trkpt lat="47.67728" lon="6.20245">
        <ele>317.7</ele>
        <time>2022-02-23T15:50:18Z</time>
      </trkpt>
      <trkpt lat="47.67733" lon="6.20246">
        <ele>318</ele>
        <time>2022-02-23T15:50:21Z</time>
      </trkpt>
      <trkpt lat="47.67739" lon="6.20245">
        <ele>318.4</ele>
        <time>2022-02-23T15:50:23Z</time>
      </trkpt>
      <trkpt lat="47.67743" lon="6.20245">
        <ele>318.8</ele>
        <time>2022-02-23T15:50:26Z</time>
      </trkpt>
      <trkpt lat="47.67748" lon="6.20244">
        <ele>319.1</ele>
        <time>2022-02-23T15:50:29Z</time>
      </trkpt>
      <trkpt lat="47.67754" lon="6.20242">
        <ele>319.6</ele>
        <time>2022-02-23T15:50:30Z</time>
      </trkpt>
      <trkpt lat="47.6776" lon="6.2024">
        <ele>320.1</ele>
        <time>2022-02-23T15:50:34Z</time>
      </trkpt>
      <trkpt lat="47.67765" lon="6.20239">
        <ele>320.5</ele>
        <time>2022-02-23T15:50:40Z</time>
      </trkpt>
      <trkpt lat="47.6777" lon="6.20237">
        <ele>320.9</ele>
        <time>2022-02-23T15:50:44Z</time>
      </trkpt>
      <trkpt lat="47.67775" lon="6.20235">
        <ele>321.4</ele>
        <time>2022-02-23T15:50:45Z</time>
      </trkpt>
      <trkpt lat="47.6778" lon="6.20232">
        <ele>321.7</ele>
        <time>2022-02-23T15:50:51Z</time>
      </trkpt>
      <trkpt lat="47.67785" lon="6.20231">
        <ele>322</ele>
        <time>2022-02-23T15:50:55Z</time>
      </trkpt>
      <trkpt lat="47.6779" lon="6.2023">
        <ele>322.2</ele>
        <time>2022-02-23T15:50:59Z</time>
      </trkpt>
      <trkpt lat="47.67794" lon="6.20227">
        <ele>322.4</ele>
        <time>2022-02-23T15:51:02Z</time>
      </trkpt>
      <trkpt lat="47.67798" lon="6.20223">
        <ele>322.7</ele>
        <time>2022-02-23T15:51:05Z</time>
      </trkpt>
      <trkpt lat="47.67802" lon="6.20217">
        <ele>323.1</ele>
        <time>2022-02-23T15:51:09Z</time>
      </trkpt>
      <trkpt lat="47.67807" lon="6.20211">
        <ele>323.4</ele>
        <time>2022-02-23T15:51:13Z</time>
      </trkpt>
      <trkpt lat="47.6781" lon="6.20204">
        <ele>323.7</ele>
        <time>2022-02-23T15:51:14Z</time>
      </trkpt>
      <trkpt lat="47.67814" lon="6.20199">
        <ele>323.9</ele>
        <time>2022-02-23T15:51:21Z</time>
      </trkpt>
      <trkpt lat="47.67817" lon="6.20194">
        <ele>324</ele>
        <time>2022-02-23T15:51:24Z</time>
      </trkpt>
      <trkpt lat="47.67822" lon="6.20191">
        <ele>324.1</ele>
        <time>2022-02-23T15:51:27Z</time>
      </trkpt>
      <trkpt lat="47.67827" lon="6.20189">
        <ele>324.1</ele>
        <time>2022-02-23T15:51:30Z</time>
      </trkpt>
      <trkpt lat="47.67833" lon="6.20188">
        <ele>324.2</ele>
        <time>2022-02-23T15:51:32Z</time>
      </trkpt>
      <trkpt lat="47.67838" lon="6.20188">
        <ele>324.5</ele>
        <time>2022-02-23T15:51:34Z</time>
      </trkpt>
      <trkpt lat="47.67843" lon="6.20188">
        <ele>324.8</ele>
        <time>2022-02-23T15:51:37Z</time>
      </trkpt>
      <trkpt lat="47.67853" lon="6.20191">
        <ele>325.3</ele>
        <time>2022-02-23T15:51:41Z</time>
      </trkpt>
      <trkpt lat="47.67857" lon="6.20195">
        <ele>325.7</ele>
        <time>2022-02-23T15:51:44Z</time>
      </trkpt>
      <trkpt lat="47.67862" lon="6.20199">
        <ele>326</ele>
        <time>2022-02-23T15:51:48Z</time>
      </trkpt>
      <trkpt lat="47.67866" lon="6.20203">
        <ele>326.3</ele>
        <time>2022-02-23T15:51:51Z</time>
      </trkpt>
      <trkpt lat="47.6787" lon="6.20208">
        <ele>326.5</ele>
        <time>2022-02-23T15:51:54Z</time>
      </trkpt>
      <trkpt lat="47.67875" lon="6.20212">
        <ele>326.8</ele>
        <time>2022-02-23T15:51:58Z</time>
      </trkpt>
      <trkpt lat="47.67879" lon="6.20216">
        <ele>327.2</ele>
        <time>2022-02-23T15:52:01Z</time>
      </trkpt>
      <trkpt lat="47.67884" lon="6.20221">
        <ele>327.6</ele>
        <time>2022-02-23T15:52:04Z</time>
      </trkpt>
      <trkpt lat="47.67888" lon="6.20226">
        <ele>327.8</ele>
        <time>2022-02-23T15:52:06Z</time>
      </trkpt>
      <trkpt lat="47.67892" lon="6.20231">
        <ele>328</ele>
        <time>2022-02-23T15:52:09Z</time>
      </trkpt>
      <trkpt lat="47.67896" lon="6.20235">
        <ele>328.2</ele>
        <time>2022-02-23T15:52:12Z</time>
      </trkpt>
      <trkpt lat="47.679" lon="6.20239">
        <ele>328.5</ele>
        <time>2022-02-23T15:52:15Z</time>
      </trkpt>
      <trkpt lat="47.67904" lon="6.20244">
        <ele>328.8</ele>
        <time>2022-02-23T15:52:17Z</time>
      </trkpt>
      <trkpt lat="47.67908" lon="6.20248">
        <ele>329.1</ele>
        <time>2022-02-23T15:52:20Z</time>
      </trkpt>
      <trkpt lat="47.67913" lon="6.20253">
        <ele>329.6</ele>
        <time>2022-02-23T15:52:23Z</time>
      </trkpt>
      <trkpt lat="47.67917" lon="6.20256">
        <ele>330</ele>
        <time>2022-02-23T15:52:27Z</time>
      </trkpt>
      <trkpt lat="47.67922" lon="6.20259">
        <ele>330.3</ele>
        <time>2022-02-23T15:52:31Z</time>
      </trkpt>
      <trkpt lat="47.67926" lon="6.20262">
        <ele>330.7</ele>
        <time>2022-02-23T15:52:34Z</time>
      </trkpt>
      <trkpt lat="47.6793" lon="6.20264">
        <ele>331</ele>
        <time>2022-02-23T15:52:34Z</time>
      </trkpt>
      <trkpt lat="47.67935" lon="6.20267">
        <ele>331.3</ele>
        <time>2022-02-23T15:52:42Z</time>
      </trkpt>
      <trkpt lat="47.67939" lon="6.20271">
        <ele>331.6</ele>
        <time>2022-02-23T15:52:42Z</time>
      </trkpt>
      <trkpt lat="47.67944" lon="6.20275">
        <ele>331.9</ele>
        <time>2022-02-23T15:52:46Z</time>
      </trkpt>
      <trkpt lat="47.67948" lon="6.20279">
        <ele>332.1</ele>
        <time>2022-02-23T15:52:53Z</time>
      </trkpt>
      <trkpt lat="47.67952" lon="6.20281">
        <ele>332.3</ele>
        <time>2022-02-23T15:52:53Z</time>
      </trkpt>
      <trkpt lat="47.67957" lon="6.20283">
        <ele>332.4</ele>
        <time>2022-02-23T15:53:00Z</time>
      </trkpt>
      <trkpt lat="47.67962" lon="6.20286">
        <ele>332.6</ele>
        <time>2022-02-23T15:53:00Z</time>
      </trkpt>
      <trkpt lat="47.67968" lon="6.20288">
        <ele>332.9</ele>
        <time>2022-02-23T15:53:04Z</time>
      </trkpt>
      <trkpt lat="47.67973" lon="6.20289">
        <ele>333</ele>
        <time>2022-02-23T15:53:11Z</time>
      </trkpt>
      <trkpt lat="47.67978" lon="6.20291">
        <ele>333.1</ele>
        <time>2022-02-23T15:53:13Z</time>
      </trkpt>
      <trkpt lat="47.67983" lon="6.20293">
        <ele>333.2</ele>
        <time>2022-02-23T15:53:16Z</time>
      </trkpt>
      <trkpt lat="47.67991" lon="6.20297">
        <ele>333.5</ele>
        <time>2022-02-23T15:53:21Z</time>
      </trkpt>
      <trkpt lat="47.68002" lon="6.20301">
        <ele>333.8</ele>
        <time>2022-02-23T15:53:25Z</time>
      </trkpt>
      <trkpt lat="47.68008" lon="6.20304">
        <ele>333.7</ele>
        <time>2022-02-23T15:53:28Z</time>
      </trkpt>
      <trkpt lat="47.68017" lon="6.20309">
        <ele>333.5</ele>
        <time>2022-02-23T15:53:28Z</time>
      </trkpt>
      <trkpt lat="47.68024" lon="6.20313">
        <ele>333.4</ele>
        <time>2022-02-23T15:53:31Z</time>
      </trkpt>
      <trkpt lat="47.68029" lon="6.20315">
        <ele>333.3</ele>
        <time>2022-02-23T15:53:33Z</time>
      </trkpt>
      <trkpt lat="47.68036" lon="6.20319">
        <ele>333.2</ele>
        <time>2022-02-23T15:53:40Z</time>
      </trkpt>
      <trkpt lat="47.68046" lon="6.20323">
        <ele>333</ele>
        <time>2022-02-23T15:53:44Z</time>
      </trkpt>
      <trkpt lat="47.68051" lon="6.20325">
        <ele>332.9</ele>
        <time>2022-02-23T15:53:46Z</time>
      </trkpt>
      <trkpt lat="47.6806" lon="6.20329">
        <ele>332.8</ele>
        <time>2022-02-23T15:53:47Z</time>
      </trkpt>
      <trkpt lat="47.68056" lon="6.20326">
        <ele>332.7</ele>
        <time>2022-02-23T15:57:03Z</time>
      </trkpt>
      <trkpt lat="47.68051" lon="6.20321">
        <ele>332.7</ele>
        <time>2022-02-23T15:59:06Z</time>
      </trkpt>
      <trkpt lat="47.68045" lon="6.20319">
        <ele>332.8</ele>
        <time>2022-02-23T15:59:09Z</time>
      </trkpt>
      <trkpt lat="47.6804" lon="6.20317">
        <ele>333</ele>
        <time>2022-02-23T15:59:11Z</time>
      </trkpt>
      <trkpt lat="47.68035" lon="6.20314">
        <ele>333.1</ele>
        <time>2022-02-23T15:59:13Z</time>
      </trkpt>
      <trkpt lat="47.6803" lon="6.20312">
        <ele>333.2</ele>
        <time>2022-02-23T15:59:15Z</time>
      </trkpt>
      <trkpt lat="47.68025" lon="6.2031">
        <ele>333.2</ele>
        <time>2022-02-23T15:59:20Z</time>
      </trkpt>
      <trkpt lat="47.68019" lon="6.20307">
        <ele>333.4</ele>
        <time>2022-02-23T15:59:22Z</time>
      </trkpt>
      <trkpt lat="47.68007" lon="6.20302">
        <ele>333.6</ele>
        <time>2022-02-23T15:59:26Z</time>
      </trkpt>
      <trkpt lat="47.67996" lon="6.20298">
        <ele>333.6</ele>
        <time>2022-02-23T15:59:30Z</time>
      </trkpt>
      <trkpt lat="47.67991" lon="6.20297">
        <ele>333.5</ele>
        <time>2022-02-23T15:59:31Z</time>
      </trkpt>
      <trkpt lat="47.6798" lon="6.20291">
        <ele>333.1</ele>
        <time>2022-02-23T15:59:34Z</time>
      </trkpt>
      <trkpt lat="47.67974" lon="6.20289">
        <ele>333</ele>
        <time>2022-02-23T15:59:36Z</time>
      </trkpt>
      <trkpt lat="47.67969" lon="6.20287">
        <ele>332.9</ele>
        <time>2022-02-23T15:59:37Z</time>
      </trkpt>
      <trkpt lat="47.6796" lon="6.20283">
        <ele>332.6</ele>
        <time>2022-02-23T15:59:39Z</time>
      </trkpt>
      <trkpt lat="47.67956" lon="6.2028">
        <ele>332.4</ele>
        <time>2022-02-23T15:59:40Z</time>
      </trkpt>
      <trkpt lat="47.67951" lon="6.20277">
        <ele>332.2</ele>
        <time>2022-02-23T15:59:41Z</time>
      </trkpt>
      <trkpt lat="47.67946" lon="6.20273">
        <ele>332</ele>
        <time>2022-02-23T15:59:43Z</time>
      </trkpt>
      <trkpt lat="47.67938" lon="6.20267">
        <ele>331.6</ele>
        <time>2022-02-23T15:59:44Z</time>
      </trkpt>
      <trkpt lat="47.67932" lon="6.20262">
        <ele>331.1</ele>
        <time>2022-02-23T15:59:45Z</time>
      </trkpt>
      <trkpt lat="47.67925" lon="6.20257">
        <ele>330.6</ele>
        <time>2022-02-23T15:59:46Z</time>
      </trkpt>
      <trkpt lat="47.67902" lon="6.20236">
        <ele>328.7</ele>
        <time>2022-02-23T15:59:46Z</time>
      </trkpt>
      <trkpt lat="47.67897" lon="6.20232">
        <ele>328.3</ele>
        <time>2022-02-23T15:59:47Z</time>
      </trkpt>
      <trkpt lat="47.67892" lon="6.20227">
        <ele>328.1</ele>
        <time>2022-02-23T15:59:48Z</time>
      </trkpt>
      <trkpt lat="47.67887" lon="6.20223">
        <ele>327.8</ele>
        <time>2022-02-23T15:59:49Z</time>
      </trkpt>
      <trkpt lat="47.67882" lon="6.20218">
        <ele>327.4</ele>
        <time>2022-02-23T15:59:50Z</time>
      </trkpt>
      <trkpt lat="47.67877" lon="6.20214">
        <ele>327</ele>
        <time>2022-02-23T15:59:51Z</time>
      </trkpt>
      <trkpt lat="47.67872" lon="6.20209">
        <ele>326.6</ele>
        <time>2022-02-23T15:59:52Z</time>
      </trkpt>
      <trkpt lat="47.67867" lon="6.20205">
        <ele>326.3</ele>
        <time>2022-02-23T15:59:53Z</time>
      </trkpt>
      <trkpt lat="47.67862" lon="6.202">
        <ele>326</ele>
        <time>2022-02-23T15:59:54Z</time>
      </trkpt>
      <trkpt lat="47.67857" lon="6.20196">
        <ele>325.7</ele>
        <time>2022-02-23T15:59:55Z</time>
      </trkpt>
      <trkpt lat="47.67852" lon="6.20192">
        <ele>325.3</ele>
        <time>2022-02-23T15:59:56Z</time>
      </trkpt>
      <trkpt lat="47.67847" lon="6.20189">
        <ele>325</ele>
        <time>2022-02-23T15:59:57Z</time>
      </trkpt>
      <trkpt lat="47.67841" lon="6.20187">
        <ele>324.7</ele>
        <time>2022-02-23T15:59:58Z</time>
      </trkpt>
      <trkpt lat="47.67835" lon="6.20187">
        <ele>324.4</ele>
        <time>2022-02-23T15:59:59Z</time>
      </trkpt>
      <trkpt lat="47.6783" lon="6.20189">
        <ele>324.2</ele>
        <time>2022-02-23T16:00:00Z</time>
      </trkpt>
      <trkpt lat="47.67825" lon="6.20193">
        <ele>324</ele>
        <time>2022-02-23T16:00:01Z</time>
      </trkpt>
      <trkpt lat="47.67822" lon="6.20196">
        <ele>324</ele>
        <time>2022-02-23T16:00:02Z</time>
      </trkpt>
      <trkpt lat="47.67816" lon="6.20203">
        <ele>323.8</ele>
        <time>2022-02-23T16:00:04Z</time>
      </trkpt>
      <trkpt lat="47.6781" lon="6.2021">
        <ele>323.5</ele>
        <time>2022-02-23T16:00:06Z</time>
      </trkpt>
      <trkpt lat="47.67806" lon="6.20216">
        <ele>323.2</ele>
        <time>2022-02-23T16:00:08Z</time>
      </trkpt>
      <trkpt lat="47.67801" lon="6.20223">
        <ele>322.8</ele>
        <time>2022-02-23T16:00:10Z</time>
      </trkpt>
      <trkpt lat="47.67794" lon="6.20228">
        <ele>322.4</ele>
        <time>2022-02-23T16:00:12Z</time>
      </trkpt>
      <trkpt lat="47.67791" lon="6.20221">
        <ele>322.5</ele>
        <time>2022-02-23T16:00:14Z</time>
      </trkpt>
      <trkpt lat="47.67786" lon="6.20223">
        <ele>322.3</ele>
        <time>2022-02-23T16:00:19Z</time>
      </trkpt>
      <trkpt lat="47.67775" lon="6.20229">
        <ele>321.6</ele>
        <time>2022-02-23T16:00:21Z</time>
      </trkpt>
      <trkpt lat="47.67745" lon="6.20237">
        <ele>319.2</ele>
        <time>2022-02-23T16:00:22Z</time>
      </trkpt>
      <trkpt lat="47.67739" lon="6.20238">
        <ele>318.8</ele>
        <time>2022-02-23T16:00:23Z</time>
      </trkpt>
      <trkpt lat="47.67732" lon="6.20239">
        <ele>318.4</ele>
        <time>2022-02-23T16:00:24Z</time>
      </trkpt>
      <trkpt lat="47.67725" lon="6.20239">
        <ele>317.9</ele>
        <time>2022-02-23T16:00:25Z</time>
      </trkpt>
      <trkpt lat="47.67718" lon="6.20239">
        <ele>317.6</ele>
        <time>2022-02-23T16:00:26Z</time>
      </trkpt>
      <trkpt lat="47.67712" lon="6.20238">
        <ele>317.4</ele>
        <time>2022-02-23T16:00:27Z</time>
      </trkpt>
      <trkpt lat="47.67707" lon="6.20236">
        <ele>317.2</ele>
        <time>2022-02-23T16:00:28Z</time>
      </trkpt>
      <trkpt lat="47.67702" lon="6.20233">
        <ele>317</ele>
        <time>2022-02-23T16:00:29Z</time>
      </trkpt>
      <trkpt lat="47.67697" lon="6.20231">
        <ele>316.9</ele>
        <time>2022-02-23T16:00:30Z</time>
      </trkpt>
      <trkpt lat="47.67693" lon="6.20228">
        <ele>316.7</ele>
        <time>2022-02-23T16:00:31Z</time>
      </trkpt>
      <trkpt lat="47.67687" lon="6.20224">
        <ele>316.4</ele>
        <time>2022-02-23T16:00:33Z</time>
      </trkpt>
      <trkpt lat="47.6768" lon="6.2022">
        <ele>316.1</ele>
        <time>2022-02-23T16:00:35Z</time>
      </trkpt>
      <trkpt lat="47.67674" lon="6.20217">
        <ele>315.9</ele>
        <time>2022-02-23T16:00:37Z</time>
      </trkpt>
      <trkpt lat="47.67669" lon="6.20216">
        <ele>315.6</ele>
        <time>2022-02-23T16:00:43Z</time>
      </trkpt>
      <trkpt lat="47.67664" lon="6.20212">
        <ele>315.5</ele>
        <time>2022-02-23T16:00:44Z</time>
      </trkpt>
      <trkpt lat="47.67659" lon="6.20207">
        <ele>315.6</ele>
        <time>2022-02-23T16:00:46Z</time>
      </trkpt>
      <trkpt lat="47.67653" lon="6.20202">
        <ele>315.5</ele>
        <time>2022-02-23T16:00:48Z</time>
      </trkpt>
      <trkpt lat="47.67648" lon="6.20198">
        <ele>315.4</ele>
        <time>2022-02-23T16:00:50Z</time>
      </trkpt>
      <trkpt lat="47.67643" lon="6.20196">
        <ele>315.2</ele>
        <time>2022-02-23T16:00:52Z</time>
      </trkpt>
      <trkpt lat="47.67638" lon="6.20195">
        <ele>314.9</ele>
        <time>2022-02-23T16:00:53Z</time>
      </trkpt>
      <trkpt lat="47.67632" lon="6.20193">
        <ele>314.7</ele>
        <time>2022-02-23T16:00:55Z</time>
      </trkpt>
      <trkpt lat="47.67626" lon="6.20191">
        <ele>314.4</ele>
        <time>2022-02-23T16:00:57Z</time>
      </trkpt>
      <trkpt lat="47.67616" lon="6.20188">
        <ele>314</ele>
        <time>2022-02-23T16:00:58Z</time>
      </trkpt>
      <trkpt lat="47.67603" lon="6.20186">
        <ele>313.4</ele>
        <time>2022-02-23T16:01:00Z</time>
      </trkpt>
      <trkpt lat="47.67596" lon="6.20183">
        <ele>313.2</ele>
        <time>2022-02-23T16:01:01Z</time>
      </trkpt>
      <trkpt lat="47.67591" lon="6.20181">
        <ele>313</ele>
        <time>2022-02-23T16:01:01Z</time>
      </trkpt>
      <trkpt lat="47.67583" lon="6.20178">
        <ele>312.7</ele>
        <time>2022-02-23T16:01:02Z</time>
      </trkpt>
      <trkpt lat="47.67578" lon="6.20177">
        <ele>312.5</ele>
        <time>2022-02-23T16:01:03Z</time>
      </trkpt>
      <trkpt lat="47.67565" lon="6.20175">
        <ele>311.8</ele>
        <time>2022-02-23T16:01:05Z</time>
      </trkpt>
      <trkpt lat="47.67557" lon="6.20174">
        <ele>311.3</ele>
        <time>2022-02-23T16:01:06Z</time>
      </trkpt>
      <trkpt lat="47.67541" lon="6.20174">
        <ele>310.1</ele>
        <time>2022-02-23T16:01:10Z</time>
      </trkpt>
      <trkpt lat="47.67534" lon="6.20173">
        <ele>309.8</ele>
        <time>2022-02-23T16:01:11Z</time>
      </trkpt>
      <trkpt lat="47.67528" lon="6.20173">
        <ele>309.4</ele>
        <time>2022-02-23T16:01:12Z</time>
      </trkpt>
      <trkpt lat="47.67523" lon="6.20175">
        <ele>308.9</ele>
        <time>2022-02-23T16:01:14Z</time>
      </trkpt>
      <trkpt lat="47.67516" lon="6.20176">
        <ele>308.5</ele>
        <time>2022-02-23T16:01:16Z</time>
      </trkpt>
      <trkpt lat="47.67502" lon="6.20171">
        <ele>308.6</ele>
        <time>2022-02-23T16:01:18Z</time>
      </trkpt>
      <trkpt lat="47.67494" lon="6.20168">
        <ele>308.7</ele>
        <time>2022-02-23T16:01:20Z</time>
      </trkpt>
      <trkpt lat="47.67489" lon="6.20166">
        <ele>308.7</ele>
        <time>2022-02-23T16:01:21Z</time>
      </trkpt>
      <trkpt lat="47.67485" lon="6.20164">
        <ele>308.6</ele>
        <time>2022-02-23T16:01:22Z</time>
      </trkpt>
      <trkpt lat="47.67469" lon="6.20158">
        <ele>308.2</ele>
        <time>2022-02-23T16:01:25Z</time>
      </trkpt>
      <trkpt lat="47.67465" lon="6.20156">
        <ele>308</ele>
        <time>2022-02-23T16:01:26Z</time>
      </trkpt>
      <trkpt lat="47.67459" lon="6.20155">
        <ele>307.7</ele>
        <time>2022-02-23T16:01:28Z</time>
      </trkpt>
      <trkpt lat="47.67447" lon="6.20155">
        <ele>307.1</ele>
        <time>2022-02-23T16:01:30Z</time>
      </trkpt>
      <trkpt lat="47.67433" lon="6.20159">
        <ele>307</ele>
        <time>2022-02-23T16:01:34Z</time>
      </trkpt>
      <trkpt lat="47.67421" lon="6.20161">
        <ele>307</ele>
        <time>2022-02-23T16:01:36Z</time>
      </trkpt>
      <trkpt lat="47.67416" lon="6.20163">
        <ele>307</ele>
        <time>2022-02-23T16:01:37Z</time>
      </trkpt>
      <trkpt lat="47.67412" lon="6.20165">
        <ele>306.8</ele>
        <time>2022-02-23T16:01:38Z</time>
      </trkpt>
      <trkpt lat="47.67407" lon="6.20169">
        <ele>306.7</ele>
        <time>2022-02-23T16:01:40Z</time>
      </trkpt>
      <trkpt lat="47.67395" lon="6.20175">
        <ele>306.5</ele>
        <time>2022-02-23T16:01:42Z</time>
      </trkpt>
      <trkpt lat="47.67389" lon="6.20179">
        <ele>306.4</ele>
        <time>2022-02-23T16:01:44Z</time>
      </trkpt>
      <trkpt lat="47.67376" lon="6.20186">
        <ele>306.4</ele>
        <time>2022-02-23T16:01:47Z</time>
      </trkpt>
      <trkpt lat="47.67368" lon="6.20191">
        <ele>306.2</ele>
        <time>2022-02-23T16:01:49Z</time>
      </trkpt>
      <trkpt lat="47.67355" lon="6.202">
        <ele>306</ele>
        <time>2022-02-23T16:01:52Z</time>
      </trkpt>
      <trkpt lat="47.67342" lon="6.20206">
        <ele>306</ele>
        <time>2022-02-23T16:01:55Z</time>
      </trkpt>
      <trkpt lat="47.67331" lon="6.20214">
        <ele>305.9</ele>
        <time>2022-02-23T16:01:57Z</time>
      </trkpt>
      <trkpt lat="47.67327" lon="6.20218">
        <ele>305.7</ele>
        <time>2022-02-23T16:01:58Z</time>
      </trkpt>
      <trkpt lat="47.67322" lon="6.20222">
        <ele>305.6</ele>
        <time>2022-02-23T16:01:59Z</time>
      </trkpt>
      <trkpt lat="47.67318" lon="6.20226">
        <ele>305.4</ele>
        <time>2022-02-23T16:02:00Z</time>
      </trkpt>
      <trkpt lat="47.67312" lon="6.20231">
        <ele>305.2</ele>
        <time>2022-02-23T16:02:02Z</time>
      </trkpt>
      <trkpt lat="47.67308" lon="6.20235">
        <ele>305.1</ele>
        <time>2022-02-23T16:02:03Z</time>
      </trkpt>
      <trkpt lat="47.67302" lon="6.20242">
        <ele>305</ele>
        <time>2022-02-23T16:02:04Z</time>
      </trkpt>
      <trkpt lat="47.67291" lon="6.20253">
        <ele>305</ele>
        <time>2022-02-23T16:02:07Z</time>
      </trkpt>
      <trkpt lat="47.67279" lon="6.20262">
        <ele>305</ele>
        <time>2022-02-23T16:02:10Z</time>
      </trkpt>
      <trkpt lat="47.67273" lon="6.20267">
        <ele>305</ele>
        <time>2022-02-23T16:02:12Z</time>
      </trkpt>
      <trkpt lat="47.67262" lon="6.20275">
        <ele>305</ele>
        <time>2022-02-23T16:02:16Z</time>
      </trkpt>
      <trkpt lat="47.67256" lon="6.20277">
        <ele>305</ele>
        <time>2022-02-23T16:02:17Z</time>
      </trkpt>
      <trkpt lat="47.67249" lon="6.2028">
        <ele>305</ele>
        <time>2022-02-23T16:02:19Z</time>
      </trkpt>
      <trkpt lat="47.67239" lon="6.20286">
        <ele>305</ele>
        <time>2022-02-23T16:02:22Z</time>
      </trkpt>
      <trkpt lat="47.67232" lon="6.20292">
        <ele>305</ele>
        <time>2022-02-23T16:02:25Z</time>
      </trkpt>
      <trkpt lat="47.67223" lon="6.20304">
        <ele>305</ele>
        <time>2022-02-23T16:02:28Z</time>
      </trkpt>
      <trkpt lat="47.67217" lon="6.20316">
        <ele>305</ele>
        <time>2022-02-23T16:02:31Z</time>
      </trkpt>
      <trkpt lat="47.67209" lon="6.20331">
        <ele>305</ele>
        <time>2022-02-23T16:02:34Z</time>
      </trkpt>
      <trkpt lat="47.67204" lon="6.20345">
        <ele>304.6</ele>
        <time>2022-02-23T16:02:37Z</time>
      </trkpt>
      <trkpt lat="47.67196" lon="6.20359">
        <ele>304.1</ele>
        <time>2022-02-23T16:02:40Z</time>
      </trkpt>
      <trkpt lat="47.67186" lon="6.2037">
        <ele>303.7</ele>
        <time>2022-02-23T16:02:43Z</time>
      </trkpt>
      <trkpt lat="47.67181" lon="6.20373">
        <ele>303.6</ele>
        <time>2022-02-23T16:02:45Z</time>
      </trkpt>
      <trkpt lat="47.67173" lon="6.20378">
        <ele>303.5</ele>
        <time>2022-02-23T16:02:47Z</time>
      </trkpt>
      <trkpt lat="47.67166" lon="6.20382">
        <ele>303.5</ele>
        <time>2022-02-23T16:02:48Z</time>
      </trkpt>
      <trkpt lat="47.67154" lon="6.20391">
        <ele>303.3</ele>
        <time>2022-02-23T16:02:52Z</time>
      </trkpt>
      <trkpt lat="47.67148" lon="6.20397">
        <ele>303.1</ele>
        <time>2022-02-23T16:02:53Z</time>
      </trkpt>
      <trkpt lat="47.67134" lon="6.20416">
        <ele>302.1</ele>
        <time>2022-02-23T16:02:58Z</time>
      </trkpt>
      <trkpt lat="47.67118" lon="6.20445">
        <ele>300</ele>
        <time>2022-02-23T16:02:59Z</time>
      </trkpt>
      <trkpt lat="47.67114" lon="6.20452">
        <ele>299.4</ele>
        <time>2022-02-23T16:03:00Z</time>
      </trkpt>
      <trkpt lat="47.6711" lon="6.20459">
        <ele>299</ele>
        <time>2022-02-23T16:03:01Z</time>
      </trkpt>
      <trkpt lat="47.67106" lon="6.20466">
        <ele>298.5</ele>
        <time>2022-02-23T16:03:02Z</time>
      </trkpt>
      <trkpt lat="47.67102" lon="6.20474">
        <ele>297.9</ele>
        <time>2022-02-23T16:03:03Z</time>
      </trkpt>
      <trkpt lat="47.67097" lon="6.20482">
        <ele>297.2</ele>
        <time>2022-02-23T16:03:04Z</time>
      </trkpt>
      <trkpt lat="47.67093" lon="6.2049">
        <ele>296.5</ele>
        <time>2022-02-23T16:03:05Z</time>
      </trkpt>
      <trkpt lat="47.67088" lon="6.20497">
        <ele>296</ele>
        <time>2022-02-23T16:03:06Z</time>
      </trkpt>
      <trkpt lat="47.67083" lon="6.20505">
        <ele>295.6</ele>
        <time>2022-02-23T16:03:07Z</time>
      </trkpt>
      <trkpt lat="47.67078" lon="6.20513">
        <ele>295.3</ele>
        <time>2022-02-23T16:03:08Z</time>
      </trkpt>
      <trkpt lat="47.67072" lon="6.20521">
        <ele>294.9</ele>
        <time>2022-02-23T16:03:09Z</time>
      </trkpt>
      <trkpt lat="47.67066" lon="6.20528">
        <ele>294.6</ele>
        <time>2022-02-23T16:03:10Z</time>
      </trkpt>
      <trkpt lat="47.67059" lon="6.20534">
        <ele>294.2</ele>
        <time>2022-02-23T16:03:11Z</time>
      </trkpt>
      <trkpt lat="47.67052" lon="6.2054">
        <ele>293.6</ele>
        <time>2022-02-23T16:03:12Z</time>
      </trkpt>
      <trkpt lat="47.67045" lon="6.20546">
        <ele>292.9</ele>
        <time>2022-02-23T16:03:13Z</time>
      </trkpt>
      <trkpt lat="47.67038" lon="6.20553">
        <ele>292.3</ele>
        <time>2022-02-23T16:03:14Z</time>
      </trkpt>
      <trkpt lat="47.67031" lon="6.20559">
        <ele>291.6</ele>
        <time>2022-02-23T16:03:15Z</time>
      </trkpt>
      <trkpt lat="47.67025" lon="6.20568">
        <ele>290.5</ele>
        <time>2022-02-23T16:03:16Z</time>
      </trkpt>
      <trkpt lat="47.67019" lon="6.20577">
        <ele>289.1</ele>
        <time>2022-02-23T16:03:17Z</time>
      </trkpt>
      <trkpt lat="47.67014" lon="6.20588">
        <ele>287.7</ele>
        <time>2022-02-23T16:03:18Z</time>
      </trkpt>
      <trkpt lat="47.67009" lon="6.20598">
        <ele>286.8</ele>
        <time>2022-02-23T16:03:19Z</time>
      </trkpt>
      <trkpt lat="47.67005" lon="6.20609">
        <ele>286.1</ele>
        <time>2022-02-23T16:03:20Z</time>
      </trkpt>
      <trkpt lat="47.67002" lon="6.20621">
        <ele>285</ele>
        <time>2022-02-23T16:03:21Z</time>
      </trkpt>
      <trkpt lat="47.66999" lon="6.20632">
        <ele>283.7</ele>
        <time>2022-02-23T16:03:22Z</time>
      </trkpt>
      <trkpt lat="47.66996" lon="6.20643">
        <ele>282.7</ele>
        <time>2022-02-23T16:03:23Z</time>
      </trkpt>
      <trkpt lat="47.66992" lon="6.20653">
        <ele>282.2</ele>
        <time>2022-02-23T16:03:24Z</time>
      </trkpt>
      <trkpt lat="47.66987" lon="6.20661">
        <ele>281.7</ele>
        <time>2022-02-23T16:03:25Z</time>
      </trkpt>
      <trkpt lat="47.66982" lon="6.20668">
        <ele>281.3</ele>
        <time>2022-02-23T16:03:26Z</time>
      </trkpt>
      <trkpt lat="47.66975" lon="6.20674">
        <ele>280.9</ele>
        <time>2022-02-23T16:03:27Z</time>
      </trkpt>
      <trkpt lat="47.66968" lon="6.2068">
        <ele>280.4</ele>
        <time>2022-02-23T16:03:28Z</time>
      </trkpt>
      <trkpt lat="47.66961" lon="6.20686">
        <ele>280</ele>
        <time>2022-02-23T16:03:29Z</time>
      </trkpt>
      <trkpt lat="47.66954" lon="6.20692">
        <ele>279.5</ele>
        <time>2022-02-23T16:03:30Z</time>
      </trkpt>
      <trkpt lat="47.66947" lon="6.20698">
        <ele>279.1</ele>
        <time>2022-02-23T16:03:31Z</time>
      </trkpt>
      <trkpt lat="47.66941" lon="6.20704">
        <ele>278.8</ele>
        <time>2022-02-23T16:03:32Z</time>
      </trkpt>
      <trkpt lat="47.66935" lon="6.2071">
        <ele>278.3</ele>
        <time>2022-02-23T16:03:33Z</time>
      </trkpt>
      <trkpt lat="47.66929" lon="6.20716">
        <ele>277.6</ele>
        <time>2022-02-23T16:03:34Z</time>
      </trkpt>
      <trkpt lat="47.66924" lon="6.20721">
        <ele>276.8</ele>
        <time>2022-02-23T16:03:35Z</time>
      </trkpt>
      <trkpt lat="47.66919" lon="6.20727">
        <ele>276.4</ele>
        <time>2022-02-23T16:03:36Z</time>
      </trkpt>
      <trkpt lat="47.66914" lon="6.20732">
        <ele>276.3</ele>
        <time>2022-02-23T16:03:37Z</time>
      </trkpt>
      <trkpt lat="47.66909" lon="6.20737">
        <ele>276.4</ele>
        <time>2022-02-23T16:03:38Z</time>
      </trkpt>
      <trkpt lat="47.66905" lon="6.20743">
        <ele>276.2</ele>
        <time>2022-02-23T16:03:39Z</time>
      </trkpt>
      <trkpt lat="47.669" lon="6.20749">
        <ele>275.8</ele>
        <time>2022-02-23T16:03:40Z</time>
      </trkpt>
      <trkpt lat="47.66895" lon="6.20755">
        <ele>275.5</ele>
        <time>2022-02-23T16:03:41Z</time>
      </trkpt>
      <trkpt lat="47.6689" lon="6.20761">
        <ele>275.1</ele>
        <time>2022-02-23T16:03:42Z</time>
      </trkpt>
      <trkpt lat="47.66886" lon="6.20768">
        <ele>274.8</ele>
        <time>2022-02-23T16:03:43Z</time>
      </trkpt>
      <trkpt lat="47.66882" lon="6.20774">
        <ele>274.4</ele>
        <time>2022-02-23T16:03:44Z</time>
      </trkpt>
      <trkpt lat="47.66879" lon="6.20781">
        <ele>273.9</ele>
        <time>2022-02-23T16:03:45Z</time>
      </trkpt>
      <trkpt lat="47.66875" lon="6.20788">
        <ele>273.5</ele>
        <time>2022-02-23T16:03:46Z</time>
      </trkpt>
      <trkpt lat="47.66872" lon="6.20795">
        <ele>273.1</ele>
        <time>2022-02-23T16:03:47Z</time>
      </trkpt>
      <trkpt lat="47.66869" lon="6.20801">
        <ele>272.4</ele>
        <time>2022-02-23T16:03:48Z</time>
      </trkpt>
      <trkpt lat="47.66865" lon="6.20807">
        <ele>271.8</ele>
        <time>2022-02-23T16:03:49Z</time>
      </trkpt>
      <trkpt lat="47.66862" lon="6.20812">
        <ele>271.7</ele>
        <time>2022-02-23T16:03:50Z</time>
      </trkpt>
      <trkpt lat="47.66857" lon="6.20817">
        <ele>271.8</ele>
        <time>2022-02-23T16:03:51Z</time>
      </trkpt>
      <trkpt lat="47.66853" lon="6.20821">
        <ele>271.5</ele>
        <time>2022-02-23T16:03:52Z</time>
      </trkpt>
      <trkpt lat="47.66849" lon="6.20826">
        <ele>270.9</ele>
        <time>2022-02-23T16:03:53Z</time>
      </trkpt>
      <trkpt lat="47.66844" lon="6.2083">
        <ele>269.9</ele>
        <time>2022-02-23T16:03:54Z</time>
      </trkpt>
      <trkpt lat="47.66839" lon="6.20835">
        <ele>268.6</ele>
        <time>2022-02-23T16:03:55Z</time>
      </trkpt>
      <trkpt lat="47.66833" lon="6.2084">
        <ele>268</ele>
        <time>2022-02-23T16:03:56Z</time>
      </trkpt>
      <trkpt lat="47.66825" lon="6.20847">
        <ele>267.9</ele>
        <time>2022-02-23T16:03:57Z</time>
      </trkpt>
      <trkpt lat="47.66818" lon="6.20853">
        <ele>267.3</ele>
        <time>2022-02-23T16:03:58Z</time>
      </trkpt>
      <trkpt lat="47.66811" lon="6.20859">
        <ele>266.2</ele>
        <time>2022-02-23T16:03:59Z</time>
      </trkpt>
      <trkpt lat="47.66804" lon="6.20865">
        <ele>265.3</ele>
        <time>2022-02-23T16:04:00Z</time>
      </trkpt>
      <trkpt lat="47.66797" lon="6.20872">
        <ele>264.8</ele>
        <time>2022-02-23T16:04:01Z</time>
      </trkpt>
      <trkpt lat="47.66789" lon="6.20878">
        <ele>263.6</ele>
        <time>2022-02-23T16:04:02Z</time>
      </trkpt>
      <trkpt lat="47.66781" lon="6.20884">
        <ele>262</ele>
        <time>2022-02-23T16:04:03Z</time>
      </trkpt>
      <trkpt lat="47.66773" lon="6.2089">
        <ele>260.8</ele>
        <time>2022-02-23T16:04:04Z</time>
      </trkpt>
      <trkpt lat="47.66765" lon="6.20897">
        <ele>260.5</ele>
        <time>2022-02-23T16:04:05Z</time>
      </trkpt>
      <trkpt lat="47.66757" lon="6.20902">
        <ele>260.1</ele>
        <time>2022-02-23T16:04:06Z</time>
      </trkpt>
      <trkpt lat="47.66749" lon="6.20907">
        <ele>259.6</ele>
        <time>2022-02-23T16:04:07Z</time>
      </trkpt>
      <trkpt lat="47.66741" lon="6.20912">
        <ele>259.1</ele>
        <time>2022-02-23T16:04:08Z</time>
      </trkpt>
      <trkpt lat="47.66734" lon="6.20916">
        <ele>258.3</ele>
        <time>2022-02-23T16:04:09Z</time>
      </trkpt>
      <trkpt lat="47.66726" lon="6.2092">
        <ele>257.3</ele>
        <time>2022-02-23T16:04:10Z</time>
      </trkpt>
      <trkpt lat="47.66719" lon="6.20924">
        <ele>256.7</ele>
        <time>2022-02-23T16:04:11Z</time>
      </trkpt>
      <trkpt lat="47.66712" lon="6.20929">
        <ele>256.3</ele>
        <time>2022-02-23T16:04:12Z</time>
      </trkpt>
      <trkpt lat="47.66705" lon="6.20932">
        <ele>255.7</ele>
        <time>2022-02-23T16:04:13Z</time>
      </trkpt>
      <trkpt lat="47.66697" lon="6.20937">
        <ele>255</ele>
        <time>2022-02-23T16:04:14Z</time>
      </trkpt>
      <trkpt lat="47.6669" lon="6.20941">
        <ele>254.5</ele>
        <time>2022-02-23T16:04:15Z</time>
      </trkpt>
      <trkpt lat="47.66683" lon="6.20945">
        <ele>254.4</ele>
        <time>2022-02-23T16:04:16Z</time>
      </trkpt>
      <trkpt lat="47.66676" lon="6.20948">
        <ele>254.2</ele>
        <time>2022-02-23T16:04:17Z</time>
      </trkpt>
      <trkpt lat="47.6667" lon="6.2095">
        <ele>254.1</ele>
        <time>2022-02-23T16:04:18Z</time>
      </trkpt>
      <trkpt lat="47.66664" lon="6.20953">
        <ele>253.9</ele>
        <time>2022-02-23T16:04:19Z</time>
      </trkpt>
      <trkpt lat="47.66659" lon="6.20955">
        <ele>253.8</ele>
        <time>2022-02-23T16:04:20Z</time>
      </trkpt>
      <trkpt lat="47.66653" lon="6.20957">
        <ele>253.7</ele>
        <time>2022-02-23T16:04:21Z</time>
      </trkpt>
      <trkpt lat="47.66648" lon="6.20959">
        <ele>253.6</ele>
        <time>2022-02-23T16:04:22Z</time>
      </trkpt>
      <trkpt lat="47.66643" lon="6.20961">
        <ele>253.5</ele>
        <time>2022-02-23T16:04:23Z</time>
      </trkpt>
      <trkpt lat="47.66638" lon="6.20963">
        <ele>253.3</ele>
        <time>2022-02-23T16:04:24Z</time>
      </trkpt>
      <trkpt lat="47.66633" lon="6.20965">
        <ele>253.2</ele>
        <time>2022-02-23T16:04:25Z</time>
      </trkpt>
      <trkpt lat="47.66628" lon="6.20967">
        <ele>253.1</ele>
        <time>2022-02-23T16:04:26Z</time>
      </trkpt>
      <trkpt lat="47.66623" lon="6.20969">
        <ele>253</ele>
        <time>2022-02-23T16:04:27Z</time>
      </trkpt>
      <trkpt lat="47.66618" lon="6.2097">
        <ele>253</ele>
        <time>2022-02-23T16:04:28Z</time>
      </trkpt>
      <trkpt lat="47.66613" lon="6.20972">
        <ele>253</ele>
        <time>2022-02-23T16:04:29Z</time>
      </trkpt>
      <trkpt lat="47.66607" lon="6.20974">
        <ele>252.6</ele>
        <time>2022-02-23T16:04:30Z</time>
      </trkpt>
      <trkpt lat="47.66602" lon="6.20975">
        <ele>252.3</ele>
        <time>2022-02-23T16:04:31Z</time>
      </trkpt>
      <trkpt lat="47.66597" lon="6.20977">
        <ele>252</ele>
        <time>2022-02-23T16:04:32Z</time>
      </trkpt>
      <trkpt lat="47.66593" lon="6.20979">
        <ele>251.7</ele>
        <time>2022-02-23T16:04:33Z</time>
      </trkpt>
      <trkpt lat="47.66588" lon="6.20981">
        <ele>251.4</ele>
        <time>2022-02-23T16:04:34Z</time>
      </trkpt>
      <trkpt lat="47.66584" lon="6.20983">
        <ele>251.2</ele>
        <time>2022-02-23T16:04:35Z</time>
      </trkpt>
      <trkpt lat="47.66575" lon="6.20987">
        <ele>250.6</ele>
        <time>2022-02-23T16:04:37Z</time>
      </trkpt>
      <trkpt lat="47.66567" lon="6.20992">
        <ele>250</ele>
        <time>2022-02-23T16:04:39Z</time>
      </trkpt>
      <trkpt lat="47.66559" lon="6.20996">
        <ele>249.4</ele>
        <time>2022-02-23T16:04:41Z</time>
      </trkpt>
      <trkpt lat="47.66551" lon="6.21001">
        <ele>248.7</ele>
        <time>2022-02-23T16:04:43Z</time>
      </trkpt>
      <trkpt lat="47.66543" lon="6.21006">
        <ele>248</ele>
        <time>2022-02-23T16:04:45Z</time>
      </trkpt>
      <trkpt lat="47.66541" lon="6.21012">
        <ele>247.4</ele>
        <time>2022-02-23T16:04:47Z</time>
      </trkpt>
      <trkpt lat="47.66536" lon="6.21016">
        <ele>247</ele>
        <time>2022-02-23T16:04:49Z</time>
      </trkpt>
      <trkpt lat="47.6653" lon="6.21018">
        <ele>246.8</ele>
        <time>2022-02-23T16:04:50Z</time>
      </trkpt>
      <trkpt lat="47.66524" lon="6.2102">
        <ele>246.5</ele>
        <time>2022-02-23T16:04:51Z</time>
      </trkpt>
      <trkpt lat="47.6652" lon="6.21021">
        <ele>246.2</ele>
        <time>2022-02-23T16:04:52Z</time>
      </trkpt>
      <trkpt lat="47.6651" lon="6.21024">
        <ele>245.7</ele>
        <time>2022-02-23T16:04:56Z</time>
      </trkpt>
      <trkpt lat="47.66496" lon="6.21025">
        <ele>245.2</ele>
        <time>2022-02-23T16:04:59Z</time>
      </trkpt>
      <trkpt lat="47.66491" lon="6.21026">
        <ele>244.8</ele>
        <time>2022-02-23T16:05:00Z</time>
      </trkpt>
      <trkpt lat="47.66485" lon="6.21027">
        <ele>244.5</ele>
        <time>2022-02-23T16:05:02Z</time>
      </trkpt>
      <trkpt lat="47.6648" lon="6.21029">
        <ele>244.2</ele>
        <time>2022-02-23T16:05:03Z</time>
      </trkpt>
      <trkpt lat="47.66473" lon="6.21032">
        <ele>243.7</ele>
        <time>2022-02-23T16:05:05Z</time>
      </trkpt>
      <trkpt lat="47.66458" lon="6.21043">
        <ele>242.4</ele>
        <time>2022-02-23T16:05:10Z</time>
      </trkpt>
      <trkpt lat="47.66453" lon="6.21046">
        <ele>242</ele>
        <time>2022-02-23T16:05:11Z</time>
      </trkpt>
      <trkpt lat="47.66433" lon="6.21056">
        <ele>239.7</ele>
        <time>2022-02-23T16:05:12Z</time>
      </trkpt>
      <trkpt lat="47.66428" lon="6.21058">
        <ele>239.1</ele>
        <time>2022-02-23T16:05:13Z</time>
      </trkpt>
      <trkpt lat="47.66424" lon="6.21052">
        <ele>239</ele>
        <time>2022-02-23T16:05:17Z</time>
      </trkpt>
      <trkpt lat="47.66417" lon="6.21055">
        <ele>238.1</ele>
        <time>2022-02-23T16:05:19Z</time>
      </trkpt>
      <trkpt lat="47.66406" lon="6.21052">
        <ele>237.1</ele>
        <time>2022-02-23T16:05:22Z</time>
      </trkpt>
      <trkpt lat="47.66403" lon="6.21045">
        <ele>237.1</ele>
        <time>2022-02-23T16:05:24Z</time>
      </trkpt>
      <trkpt lat="47.66401" lon="6.21035">
        <ele>237.3</ele>
        <time>2022-02-23T16:05:26Z</time>
      </trkpt>
      <trkpt lat="47.66402" lon="6.21018">
        <ele>238.2</ele>
        <time>2022-02-23T16:05:27Z</time>
      </trkpt>
      <trkpt lat="47.66401" lon="6.2101">
        <ele>238.4</ele>
        <time>2022-02-23T16:05:30Z</time>
      </trkpt>
      <trkpt lat="47.66401" lon="6.21003">
        <ele>238.6</ele>
        <time>2022-02-23T16:05:33Z</time>
      </trkpt>
      <trkpt lat="47.664" lon="6.20996">
        <ele>238.7</ele>
        <time>2022-02-23T16:05:37Z</time>
      </trkpt>
      <trkpt lat="47.66397" lon="6.20988">
        <ele>238.7</ele>
        <time>2022-02-23T16:05:41Z</time>
      </trkpt>
      <trkpt lat="47.66398" lon="6.20979">
        <ele>239</ele>
        <time>2022-02-23T16:05:45Z</time>
      </trkpt>
      <trkpt lat="47.66399" lon="6.20971">
        <ele>239.6</ele>
        <time>2022-02-23T16:05:48Z</time>
      </trkpt>
      <trkpt lat="47.66401" lon="6.20963">
        <ele>240.3</ele>
        <time>2022-02-23T16:05:51Z</time>
      </trkpt>
      <trkpt lat="47.66402" lon="6.20954">
        <ele>240.9</ele>
        <time>2022-02-23T16:05:54Z</time>
      </trkpt>
      <trkpt lat="47.66403" lon="6.20946">
        <ele>241.5</ele>
        <time>2022-02-23T16:05:57Z</time>
      </trkpt>
      <trkpt lat="47.66401" lon="6.20939">
        <ele>241.5</ele>
        <time>2022-02-23T16:06:00Z</time>
      </trkpt>
      <trkpt lat="47.66399" lon="6.20932">
        <ele>241.6</ele>
        <time>2022-02-23T16:06:07Z</time>
      </trkpt>
      <trkpt lat="47.66399" lon="6.20923">
        <ele>241.9</ele>
        <time>2022-02-23T16:06:10Z</time>
      </trkpt>
      <trkpt lat="47.66399" lon="6.20915">
        <ele>242.2</ele>
        <time>2022-02-23T16:06:13Z</time>
      </trkpt>
      <trkpt lat="47.66397" lon="6.20906">
        <ele>242.6</ele>
        <time>2022-02-23T16:06:16Z</time>
      </trkpt>
      <trkpt lat="47.66395" lon="6.20899">
        <ele>242.8</ele>
        <time>2022-02-23T16:06:19Z</time>
      </trkpt>
      <trkpt lat="47.66392" lon="6.20892">
        <ele>243</ele>
        <time>2022-02-23T16:06:24Z</time>
      </trkpt>
      <trkpt lat="47.66386" lon="6.20874">
        <ele>242.7</ele>
        <time>2022-02-23T16:06:25Z</time>
      </trkpt>
      <trkpt lat="47.66384" lon="6.20867">
        <ele>242.5</ele>
        <time>2022-02-23T16:06:29Z</time>
      </trkpt>
      <trkpt lat="47.66382" lon="6.20859">
        <ele>242.3</ele>
        <time>2022-02-23T16:06:31Z</time>
      </trkpt>
      <trkpt lat="47.66381" lon="6.20851">
        <ele>242.3</ele>
        <time>2022-02-23T16:06:33Z</time>
      </trkpt>
      <trkpt lat="47.6638" lon="6.20842">
        <ele>242.5</ele>
        <time>2022-02-23T16:06:36Z</time>
      </trkpt>
      <trkpt lat="47.6638" lon="6.20833">
        <ele>242.7</ele>
        <time>2022-02-23T16:06:37Z</time>
      </trkpt>
      <trkpt lat="47.66377" lon="6.20818">
        <ele>243.5</ele>
        <time>2022-02-23T16:06:38Z</time>
      </trkpt>
      <trkpt lat="47.66375" lon="6.20812">
        <ele>243.7</ele>
        <time>2022-02-23T16:06:42Z</time>
      </trkpt>
      <trkpt lat="47.66372" lon="6.20805">
        <ele>243.8</ele>
        <time>2022-02-23T16:06:44Z</time>
      </trkpt>
      <trkpt lat="47.66369" lon="6.20799">
        <ele>243.8</ele>
        <time>2022-02-23T16:06:47Z</time>
      </trkpt>
      <trkpt lat="47.66363" lon="6.20786">
        <ele>243.9</ele>
        <time>2022-02-23T16:06:51Z</time>
      </trkpt>
      <trkpt lat="47.6636" lon="6.20773">
        <ele>244.1</ele>
        <time>2022-02-23T16:06:56Z</time>
      </trkpt>
      <trkpt lat="47.66356" lon="6.20759">
        <ele>244.4</ele>
        <time>2022-02-23T16:07:01Z</time>
      </trkpt>
      <trkpt lat="47.6635" lon="6.20746">
        <ele>245</ele>
        <time>2022-02-23T16:07:04Z</time>
      </trkpt>
      <trkpt lat="47.66346" lon="6.20741">
        <ele>245.3</ele>
        <time>2022-02-23T16:07:08Z</time>
      </trkpt>
      <trkpt lat="47.66341" lon="6.20738">
        <ele>245.4</ele>
        <time>2022-02-23T16:07:12Z</time>
      </trkpt>
      <trkpt lat="47.66336" lon="6.20734">
        <ele>245.8</ele>
        <time>2022-02-23T16:07:16Z</time>
      </trkpt>
      <trkpt lat="47.66332" lon="6.20731">
        <ele>246.1</ele>
        <time>2022-02-23T16:07:20Z</time>
      </trkpt>
      <trkpt lat="47.66327" lon="6.2073">
        <ele>246.3</ele>
        <time>2022-02-23T16:07:27Z</time>
      </trkpt>
      <trkpt lat="47.66322" lon="6.20729">
        <ele>246.6</ele>
        <time>2022-02-23T16:07:28Z</time>
      </trkpt>
      <trkpt lat="47.66317" lon="6.20727">
        <ele>247</ele>
        <time>2022-02-23T16:07:32Z</time>
      </trkpt>
      <trkpt lat="47.66312" lon="6.20724">
        <ele>247.5</ele>
        <time>2022-02-23T16:07:36Z</time>
      </trkpt>
      <trkpt lat="47.66307" lon="6.20723">
        <ele>247.9</ele>
        <time>2022-02-23T16:07:40Z</time>
      </trkpt>
      <trkpt lat="47.66302" lon="6.20725">
        <ele>247.6</ele>
        <time>2022-02-23T16:07:44Z</time>
      </trkpt>
      <trkpt lat="47.66296" lon="6.20724">
        <ele>247.7</ele>
        <time>2022-02-23T16:07:48Z</time>
      </trkpt>
      <trkpt lat="47.66292" lon="6.20723">
        <ele>247.8</ele>
        <time>2022-02-23T16:07:52Z</time>
      </trkpt>
      <trkpt lat="47.66287" lon="6.20721">
        <ele>248.1</ele>
        <time>2022-02-23T16:07:56Z</time>
      </trkpt>
      <trkpt lat="47.66282" lon="6.2072">
        <ele>248.3</ele>
        <time>2022-02-23T16:08:00Z</time>
      </trkpt>
      <trkpt lat="47.66278" lon="6.20718">
        <ele>248.6</ele>
        <time>2022-02-23T16:08:04Z</time>
      </trkpt>
      <trkpt lat="47.66273" lon="6.20715">
        <ele>249.3</ele>
        <time>2022-02-23T16:08:08Z</time>
      </trkpt>
      <trkpt lat="47.66268" lon="6.20713">
        <ele>249.8</ele>
        <time>2022-02-23T16:08:12Z</time>
      </trkpt>
      <trkpt lat="47.66263" lon="6.20709">
        <ele>250.4</ele>
        <time>2022-02-23T16:08:16Z</time>
      </trkpt>
      <trkpt lat="47.66259" lon="6.20705">
        <ele>251.2</ele>
        <time>2022-02-23T16:08:20Z</time>
      </trkpt>
      <trkpt lat="47.66257" lon="6.20698">
        <ele>252.2</ele>
        <time>2022-02-23T16:08:24Z</time>
      </trkpt>
      <trkpt lat="47.66254" lon="6.20693">
        <ele>253.1</ele>
        <time>2022-02-23T16:08:28Z</time>
      </trkpt>
      <trkpt lat="47.66249" lon="6.20692">
        <ele>253.3</ele>
        <time>2022-02-23T16:08:34Z</time>
      </trkpt>
      <trkpt lat="47.66245" lon="6.20687">
        <ele>254.3</ele>
        <time>2022-02-23T16:08:36Z</time>
      </trkpt>
      <trkpt lat="47.66242" lon="6.20681">
        <ele>255.3</ele>
        <time>2022-02-23T16:08:43Z</time>
      </trkpt>
      <trkpt lat="47.66237" lon="6.2068">
        <ele>255.5</ele>
        <time>2022-02-23T16:08:47Z</time>
      </trkpt>
      <trkpt lat="47.66234" lon="6.20675">
        <ele>256.4</ele>
        <time>2022-02-23T16:08:52Z</time>
      </trkpt>
      <trkpt lat="47.66232" lon="6.20668">
        <ele>257.5</ele>
        <time>2022-02-23T16:08:54Z</time>
      </trkpt>
      <trkpt lat="47.66227" lon="6.20665">
        <ele>258</ele>
        <time>2022-02-23T16:09:02Z</time>
      </trkpt>
      <trkpt lat="47.66225" lon="6.2066">
        <ele>258.9</ele>
        <time>2022-02-23T16:09:03Z</time>
      </trkpt>
      <trkpt lat="47.66223" lon="6.20653">
        <ele>259.9</ele>
        <time>2022-02-23T16:09:08Z</time>
      </trkpt>
      <trkpt lat="47.66221" lon="6.20647">
        <ele>260.8</ele>
        <time>2022-02-23T16:09:13Z</time>
      </trkpt>
      <trkpt lat="47.66216" lon="6.20643">
        <ele>261.5</ele>
        <time>2022-02-23T16:09:22Z</time>
      </trkpt>
      <trkpt lat="47.66214" lon="6.20636">
        <ele>262.3</ele>
        <time>2022-02-23T16:09:26Z</time>
      </trkpt>
      <trkpt lat="47.6621" lon="6.20631">
        <ele>262.9</ele>
        <time>2022-02-23T16:09:28Z</time>
      </trkpt>
      <trkpt lat="47.66205" lon="6.20629">
        <ele>263.3</ele>
        <time>2022-02-23T16:09:33Z</time>
      </trkpt>
      <trkpt lat="47.66201" lon="6.20626">
        <ele>263.8</ele>
        <time>2022-02-23T16:09:37Z</time>
      </trkpt>
      <trkpt lat="47.66198" lon="6.2062">
        <ele>264.6</ele>
        <time>2022-02-23T16:09:45Z</time>
      </trkpt>
      <trkpt lat="47.66193" lon="6.20617">
        <ele>265.2</ele>
        <time>2022-02-23T16:09:51Z</time>
      </trkpt>
      <trkpt lat="47.66188" lon="6.20616">
        <ele>265.2</ele>
        <time>2022-02-23T16:09:51Z</time>
      </trkpt>
      <trkpt lat="47.66183" lon="6.20613">
        <ele>265.8</ele>
        <time>2022-02-23T16:09:59Z</time>
      </trkpt>
      <trkpt lat="47.66174" lon="6.20605">
        <ele>267</ele>
        <time>2022-02-23T16:10:05Z</time>
      </trkpt>
      <trkpt lat="47.66168" lon="6.20601">
        <ele>267.8</ele>
        <time>2022-02-23T16:10:06Z</time>
      </trkpt>
      <trkpt lat="47.66164" lon="6.20598">
        <ele>268.4</ele>
        <time>2022-02-23T16:10:13Z</time>
      </trkpt>
      <trkpt lat="47.6616" lon="6.20595">
        <ele>268.6</ele>
        <time>2022-02-23T16:10:16Z</time>
      </trkpt>
      <trkpt lat="47.66155" lon="6.20593">
        <ele>268.8</ele>
        <time>2022-02-23T16:10:16Z</time>
      </trkpt>
      <trkpt lat="47.6615" lon="6.20592">
        <ele>268.6</ele>
        <time>2022-02-23T16:10:54Z</time>
      </trkpt>
      <trkpt lat="47.66145" lon="6.20589">
        <ele>268.7</ele>
        <time>2022-02-23T16:10:56Z</time>
      </trkpt>
      <trkpt lat="47.66135" lon="6.20584">
        <ele>268.5</ele>
        <time>2022-02-23T16:11:00Z</time>
      </trkpt>
      <trkpt lat="47.66128" lon="6.2058">
        <ele>268.2</ele>
        <time>2022-02-23T16:11:03Z</time>
      </trkpt>
      <trkpt lat="47.66123" lon="6.20578">
        <ele>268</ele>
        <time>2022-02-23T16:11:04Z</time>
      </trkpt>
      <trkpt lat="47.66117" lon="6.20575">
        <ele>267.7</ele>
        <time>2022-02-23T16:11:06Z</time>
      </trkpt>
      <trkpt lat="47.66106" lon="6.20568">
        <ele>267.3</ele>
        <time>2022-02-23T16:11:09Z</time>
      </trkpt>
      <trkpt lat="47.66101" lon="6.20565">
        <ele>267.2</ele>
        <time>2022-02-23T16:11:10Z</time>
      </trkpt>
      <trkpt lat="47.66097" lon="6.20562">
        <ele>267.3</ele>
        <time>2022-02-23T16:11:12Z</time>
      </trkpt>
      <trkpt lat="47.66091" lon="6.20559">
        <ele>267.2</ele>
        <time>2022-02-23T16:11:13Z</time>
      </trkpt>
      <trkpt lat="47.66082" lon="6.20554">
        <ele>267.1</ele>
        <time>2022-02-23T16:11:16Z</time>
      </trkpt>
      <trkpt lat="47.66077" lon="6.20552">
        <ele>266.9</ele>
        <time>2022-02-23T16:11:18Z</time>
      </trkpt>
      <trkpt lat="47.66066" lon="6.20547">
        <ele>266.6</ele>
        <time>2022-02-23T16:11:18Z</time>
      </trkpt>
      <trkpt lat="47.66061" lon="6.20542">
        <ele>266.8</ele>
        <time>2022-02-23T16:11:21Z</time>
      </trkpt>
      <trkpt lat="47.66056" lon="6.20542">
        <ele>266.5</ele>
        <time>2022-02-23T16:11:23Z</time>
      </trkpt>
      <trkpt lat="47.66051" lon="6.20539">
        <ele>266.3</ele>
        <time>2022-02-23T16:11:29Z</time>
      </trkpt>
      <trkpt lat="47.66044" lon="6.20534">
        <ele>266.4</ele>
        <time>2022-02-23T16:11:31Z</time>
      </trkpt>
      <trkpt lat="47.66038" lon="6.2053">
        <ele>266.5</ele>
        <time>2022-02-23T16:11:32Z</time>
      </trkpt>
      <trkpt lat="47.66025" lon="6.20523">
        <ele>266.5</ele>
        <time>2022-02-23T16:11:33Z</time>
      </trkpt>
      <trkpt lat="47.6602" lon="6.20521">
        <ele>266.4</ele>
        <time>2022-02-23T16:11:35Z</time>
      </trkpt>
      <trkpt lat="47.66015" lon="6.20519">
        <ele>266.3</ele>
        <time>2022-02-23T16:11:37Z</time>
      </trkpt>
      <trkpt lat="47.6601" lon="6.20516">
        <ele>266.4</ele>
        <time>2022-02-23T16:11:39Z</time>
      </trkpt>
      <trkpt lat="47.66005" lon="6.20513">
        <ele>266.5</ele>
        <time>2022-02-23T16:11:41Z</time>
      </trkpt>
      <trkpt lat="47.66" lon="6.20511">
        <ele>266.4</ele>
        <time>2022-02-23T16:11:43Z</time>
      </trkpt>
      <trkpt lat="47.65996" lon="6.20509">
        <ele>266.6</ele>
        <time>2022-02-23T16:11:45Z</time>
      </trkpt>
      <trkpt lat="47.65991" lon="6.20506">
        <ele>266.8</ele>
        <time>2022-02-23T16:11:47Z</time>
      </trkpt>
      <trkpt lat="47.65986" lon="6.20503">
        <ele>267</ele>
        <time>2022-02-23T16:11:49Z</time>
      </trkpt>
      <trkpt lat="47.65981" lon="6.205">
        <ele>267.3</ele>
        <time>2022-02-23T16:11:51Z</time>
      </trkpt>
      <trkpt lat="47.65975" lon="6.20496">
        <ele>267.5</ele>
        <time>2022-02-23T16:11:53Z</time>
      </trkpt>
      <trkpt lat="47.6597" lon="6.20493">
        <ele>267.6</ele>
        <time>2022-02-23T16:11:55Z</time>
      </trkpt>
      <trkpt lat="47.65964" lon="6.20488">
        <ele>267.5</ele>
        <time>2022-02-23T16:11:58Z</time>
      </trkpt>
      <trkpt lat="47.65959" lon="6.20485">
        <ele>267.4</ele>
        <time>2022-02-23T16:12:00Z</time>
      </trkpt>
      <trkpt lat="47.65954" lon="6.20482">
        <ele>267.3</ele>
        <time>2022-02-23T16:12:02Z</time>
      </trkpt>
      <trkpt lat="47.65948" lon="6.20477">
        <ele>267.5</ele>
        <time>2022-02-23T16:12:04Z</time>
      </trkpt>
      <trkpt lat="47.65943" lon="6.20474">
        <ele>267.6</ele>
        <time>2022-02-23T16:12:06Z</time>
      </trkpt>
      <trkpt lat="47.65938" lon="6.20471">
        <ele>267.7</ele>
        <time>2022-02-23T16:12:12Z</time>
      </trkpt>
      <trkpt lat="47.65934" lon="6.20468">
        <ele>267.6</ele>
        <time>2022-02-23T16:12:13Z</time>
      </trkpt>
      <trkpt lat="47.65929" lon="6.20465">
        <ele>267.6</ele>
        <time>2022-02-23T16:12:15Z</time>
      </trkpt>
      <trkpt lat="47.65924" lon="6.2046">
        <ele>267.8</ele>
        <time>2022-02-23T16:12:17Z</time>
      </trkpt>
      <trkpt lat="47.65918" lon="6.20459">
        <ele>267.6</ele>
        <time>2022-02-23T16:12:19Z</time>
      </trkpt>
      <trkpt lat="47.65913" lon="6.20452">
        <ele>267.8</ele>
        <time>2022-02-23T16:12:22Z</time>
      </trkpt>
      <trkpt lat="47.65906" lon="6.20442">
        <ele>268.1</ele>
        <time>2022-02-23T16:12:25Z</time>
      </trkpt>
      <trkpt lat="47.65902" lon="6.20437">
        <ele>268.1</ele>
        <time>2022-02-23T16:12:27Z</time>
      </trkpt>
      <trkpt lat="47.65898" lon="6.20432">
        <ele>268.1</ele>
        <time>2022-02-23T16:12:29Z</time>
      </trkpt>
      <trkpt lat="47.65893" lon="6.20428">
        <ele>268.2</ele>
        <time>2022-02-23T16:12:32Z</time>
      </trkpt>
      <trkpt lat="47.65889" lon="6.20423">
        <ele>268.3</ele>
        <time>2022-02-23T16:12:33Z</time>
      </trkpt>
      <trkpt lat="47.6588" lon="6.20416">
        <ele>268.1</ele>
        <time>2022-02-23T16:12:34Z</time>
      </trkpt>
      <trkpt lat="47.65875" lon="6.20412">
        <ele>268</ele>
        <time>2022-02-23T16:12:36Z</time>
      </trkpt>
      <trkpt lat="47.65869" lon="6.20407">
        <ele>267.8</ele>
        <time>2022-02-23T16:12:38Z</time>
      </trkpt>
      <trkpt lat="47.65862" lon="6.20402">
        <ele>267.7</ele>
        <time>2022-02-23T16:12:44Z</time>
      </trkpt>
      <trkpt lat="47.65857" lon="6.20397">
        <ele>267.4</ele>
        <time>2022-02-23T16:12:45Z</time>
      </trkpt>
      <trkpt lat="47.65844" lon="6.20384">
        <ele>267.1</ele>
        <time>2022-02-23T16:12:45Z</time>
      </trkpt>
      <trkpt lat="47.65838" lon="6.20379">
        <ele>267.1</ele>
        <time>2022-02-23T16:12:50Z</time>
      </trkpt>
      <trkpt lat="47.65833" lon="6.20374">
        <ele>267.2</ele>
        <time>2022-02-23T16:12:51Z</time>
      </trkpt>
      <trkpt lat="47.6583" lon="6.20369">
        <ele>267.5</ele>
        <time>2022-02-23T16:12:53Z</time>
      </trkpt>
      <trkpt lat="47.65825" lon="6.20364">
        <ele>267.6</ele>
        <time>2022-02-23T16:12:54Z</time>
      </trkpt>
      <trkpt lat="47.65817" lon="6.20355">
        <ele>267.9</ele>
        <time>2022-02-23T16:12:57Z</time>
      </trkpt>
      <trkpt lat="47.65807" lon="6.20345">
        <ele>267.9</ele>
        <time>2022-02-23T16:13:02Z</time>
      </trkpt>
      <trkpt lat="47.65803" lon="6.20339">
        <ele>268.1</ele>
        <time>2022-02-23T16:13:03Z</time>
      </trkpt>
      <trkpt lat="47.65795" lon="6.2033">
        <ele>268.2</ele>
        <time>2022-02-23T16:13:03Z</time>
      </trkpt>
      <trkpt lat="47.6579" lon="6.20325">
        <ele>268.4</ele>
        <time>2022-02-23T16:13:06Z</time>
      </trkpt>
      <trkpt lat="47.65786" lon="6.2032">
        <ele>268.7</ele>
        <time>2022-02-23T16:13:09Z</time>
      </trkpt>
      <trkpt lat="47.6578" lon="6.20317">
        <ele>268.6</ele>
        <time>2022-02-23T16:13:12Z</time>
      </trkpt>
      <trkpt lat="47.65775" lon="6.20313">
        <ele>268.7</ele>
        <time>2022-02-23T16:13:14Z</time>
      </trkpt>
      <trkpt lat="47.65771" lon="6.2031">
        <ele>268.9</ele>
        <time>2022-02-23T16:13:16Z</time>
      </trkpt>
      <trkpt lat="47.65767" lon="6.20304">
        <ele>269.4</ele>
        <time>2022-02-23T16:13:18Z</time>
      </trkpt>
      <trkpt lat="47.65763" lon="6.203">
        <ele>269.6</ele>
        <time>2022-02-23T16:13:24Z</time>
      </trkpt>
      <trkpt lat="47.65755" lon="6.20292">
        <ele>269.8</ele>
        <time>2022-02-23T16:13:28Z</time>
      </trkpt>
      <trkpt lat="47.65746" lon="6.20283">
        <ele>270.3</ele>
        <time>2022-02-23T16:13:32Z</time>
      </trkpt>
      <trkpt lat="47.65738" lon="6.20275">
        <ele>271</ele>
        <time>2022-02-23T16:13:34Z</time>
      </trkpt>
      <trkpt lat="47.65734" lon="6.2027">
        <ele>271.4</ele>
        <time>2022-02-23T16:13:41Z</time>
      </trkpt>
      <trkpt lat="47.6573" lon="6.20266">
        <ele>271.9</ele>
        <time>2022-02-23T16:13:43Z</time>
      </trkpt>
      <trkpt lat="47.65726" lon="6.20261">
        <ele>272.5</ele>
        <time>2022-02-23T16:13:46Z</time>
      </trkpt>
      <trkpt lat="47.65718" lon="6.2025">
        <ele>273.7</ele>
        <time>2022-02-23T16:13:52Z</time>
      </trkpt>
      <trkpt lat="47.65714" lon="6.20246">
        <ele>273.7</ele>
        <time>2022-02-23T16:13:55Z</time>
      </trkpt>
      <trkpt lat="47.6571" lon="6.20241">
        <ele>273.7</ele>
        <time>2022-02-23T16:13:57Z</time>
      </trkpt>
      <trkpt lat="47.65701" lon="6.20231">
        <ele>273.8</ele>
        <time>2022-02-23T16:13:58Z</time>
      </trkpt>
      <trkpt lat="47.65697" lon="6.20227">
        <ele>273.8</ele>
        <time>2022-02-23T16:14:00Z</time>
      </trkpt>
      <trkpt lat="47.65693" lon="6.20222">
        <ele>273.9</ele>
        <time>2022-02-23T16:14:06Z</time>
      </trkpt>
      <trkpt lat="47.6569" lon="6.20218">
        <ele>274</ele>
        <time>2022-02-23T16:14:08Z</time>
      </trkpt>
      <trkpt lat="47.65686" lon="6.20213">
        <ele>274</ele>
        <time>2022-02-23T16:14:09Z</time>
      </trkpt>
      <trkpt lat="47.65676" lon="6.20203">
        <ele>274</ele>
        <time>2022-02-23T16:14:17Z</time>
      </trkpt>
      <trkpt lat="47.65671" lon="6.20197">
        <ele>274.1</ele>
        <time>2022-02-23T16:14:19Z</time>
      </trkpt>
      <trkpt lat="47.65663" lon="6.20186">
        <ele>274.5</ele>
        <time>2022-02-23T16:14:23Z</time>
      </trkpt>
      <trkpt lat="47.65655" lon="6.20175">
        <ele>275</ele>
        <time>2022-02-23T16:14:28Z</time>
      </trkpt>
      <trkpt lat="47.65652" lon="6.20167">
        <ele>275.5</ele>
        <time>2022-02-23T16:14:28Z</time>
      </trkpt>
      <trkpt lat="47.65649" lon="6.2016">
        <ele>275.6</ele>
        <time>2022-02-23T16:14:35Z</time>
      </trkpt>
      <trkpt lat="47.65645" lon="6.20155">
        <ele>275.6</ele>
        <time>2022-02-23T16:14:38Z</time>
      </trkpt>
      <trkpt lat="47.6564" lon="6.20153">
        <ele>275.5</ele>
        <time>2022-02-23T16:14:40Z</time>
      </trkpt>
      <trkpt lat="47.65635" lon="6.20148">
        <ele>275.3</ele>
        <time>2022-02-23T16:14:44Z</time>
      </trkpt>
      <trkpt lat="47.65626" lon="6.20137">
        <ele>275.1</ele>
        <time>2022-02-23T16:14:45Z</time>
      </trkpt>
      <trkpt lat="47.65621" lon="6.20132">
        <ele>274.9</ele>
        <time>2022-02-23T16:14:51Z</time>
      </trkpt>
      <trkpt lat="47.65616" lon="6.20127">
        <ele>274.8</ele>
        <time>2022-02-23T16:14:52Z</time>
      </trkpt>
      <trkpt lat="47.65612" lon="6.20123">
        <ele>274.6</ele>
        <time>2022-02-23T16:14:54Z</time>
      </trkpt>
      <trkpt lat="47.65606" lon="6.20118">
        <ele>274.3</ele>
        <time>2022-02-23T16:14:56Z</time>
      </trkpt>
      <trkpt lat="47.65602" lon="6.20114">
        <ele>274.2</ele>
        <time>2022-02-23T16:14:57Z</time>
      </trkpt>
      <trkpt lat="47.6559" lon="6.20102">
        <ele>273.8</ele>
        <time>2022-02-23T16:14:58Z</time>
      </trkpt>
      <trkpt lat="47.65585" lon="6.20096">
        <ele>273.6</ele>
        <time>2022-02-23T16:15:04Z</time>
      </trkpt>
      <trkpt lat="47.65577" lon="6.20088">
        <ele>273.3</ele>
        <time>2022-02-23T16:15:06Z</time>
      </trkpt>
      <trkpt lat="47.65572" lon="6.20084">
        <ele>273.2</ele>
        <time>2022-02-23T16:15:07Z</time>
      </trkpt>
      <trkpt lat="47.65567" lon="6.20079">
        <ele>273.1</ele>
        <time>2022-02-23T16:15:09Z</time>
      </trkpt>
      <trkpt lat="47.65563" lon="6.20074">
        <ele>273.1</ele>
        <time>2022-02-23T16:15:10Z</time>
      </trkpt>
      <trkpt lat="47.65555" lon="6.20064">
        <ele>273.3</ele>
        <time>2022-02-23T16:15:12Z</time>
      </trkpt>
      <trkpt lat="47.65545" lon="6.20053">
        <ele>272.5</ele>
        <time>2022-02-23T16:15:15Z</time>
      </trkpt>
      <trkpt lat="47.65536" lon="6.20043">
        <ele>271.8</ele>
        <time>2022-02-23T16:15:18Z</time>
      </trkpt>
      <trkpt lat="47.65531" lon="6.20037">
        <ele>271.6</ele>
        <time>2022-02-23T16:15:19Z</time>
      </trkpt>
      <trkpt lat="47.65526" lon="6.20031">
        <ele>271.5</ele>
        <time>2022-02-23T16:15:21Z</time>
      </trkpt>
      <trkpt lat="47.65514" lon="6.20015">
        <ele>270.9</ele>
        <time>2022-02-23T16:15:25Z</time>
      </trkpt>
      <trkpt lat="47.65507" lon="6.20008">
        <ele>270.9</ele>
        <time>2022-02-23T16:15:27Z</time>
      </trkpt>
      <trkpt lat="47.65502" lon="6.20001">
        <ele>271</ele>
        <time>2022-02-23T16:15:28Z</time>
      </trkpt>
      <trkpt lat="47.65494" lon="6.19991">
        <ele>270.4</ele>
        <time>2022-02-23T16:15:31Z</time>
      </trkpt>
      <trkpt lat="47.65487" lon="6.19983">
        <ele>269.7</ele>
        <time>2022-02-23T16:15:34Z</time>
      </trkpt>
      <trkpt lat="47.65483" lon="6.19978">
        <ele>269.5</ele>
        <time>2022-02-23T16:15:35Z</time>
      </trkpt>
      <trkpt lat="47.65478" lon="6.19969">
        <ele>269.2</ele>
        <time>2022-02-23T16:15:37Z</time>
      </trkpt>
      <trkpt lat="47.65464" lon="6.19944">
        <ele>269.6</ele>
        <time>2022-02-23T16:15:41Z</time>
      </trkpt>
      <trkpt lat="47.65462" lon="6.19936">
        <ele>269.6</ele>
        <time>2022-02-23T16:15:42Z</time>
      </trkpt>
      <trkpt lat="47.65459" lon="6.1993">
        <ele>269.6</ele>
        <time>2022-02-23T16:15:43Z</time>
      </trkpt>
      <trkpt lat="47.65456" lon="6.19923">
        <ele>269.8</ele>
        <time>2022-02-23T16:15:45Z</time>
      </trkpt>
      <trkpt lat="47.65453" lon="6.19915">
        <ele>270</ele>
        <time>2022-02-23T16:15:46Z</time>
      </trkpt>
      <trkpt lat="47.6545" lon="6.19907">
        <ele>270.2</ele>
        <time>2022-02-23T16:15:48Z</time>
      </trkpt>
      <trkpt lat="47.65447" lon="6.19901">
        <ele>270.4</ele>
        <time>2022-02-23T16:15:50Z</time>
      </trkpt>
      <trkpt lat="47.65444" lon="6.19894">
        <ele>270.6</ele>
        <time>2022-02-23T16:15:51Z</time>
      </trkpt>
      <trkpt lat="47.65441" lon="6.19886">
        <ele>270.7</ele>
        <time>2022-02-23T16:15:54Z</time>
      </trkpt>
      <trkpt lat="47.65434" lon="6.19873">
        <ele>270.9</ele>
        <time>2022-02-23T16:15:58Z</time>
      </trkpt>
      <trkpt lat="47.6543" lon="6.19866">
        <ele>271.1</ele>
        <time>2022-02-23T16:15:59Z</time>
      </trkpt>
      <trkpt lat="47.65423" lon="6.19854">
        <ele>271</ele>
        <time>2022-02-23T16:16:02Z</time>
      </trkpt>
      <trkpt lat="47.65412" lon="6.19839">
        <ele>269.9</ele>
        <time>2022-02-23T16:16:06Z</time>
      </trkpt>
      <trkpt lat="47.65408" lon="6.19831">
        <ele>269.5</ele>
        <time>2022-02-23T16:16:08Z</time>
      </trkpt>
      <trkpt lat="47.65405" lon="6.19826">
        <ele>269.3</ele>
        <time>2022-02-23T16:16:09Z</time>
      </trkpt>
      <trkpt lat="47.65401" lon="6.19819">
        <ele>269</ele>
        <time>2022-02-23T16:16:10Z</time>
      </trkpt>
      <trkpt lat="47.65398" lon="6.19813">
        <ele>268.8</ele>
        <time>2022-02-23T16:16:12Z</time>
      </trkpt>
      <trkpt lat="47.65394" lon="6.19805">
        <ele>268.7</ele>
        <time>2022-02-23T16:16:13Z</time>
      </trkpt>
      <trkpt lat="47.6539" lon="6.19799">
        <ele>268.6</ele>
        <time>2022-02-23T16:16:14Z</time>
      </trkpt>
      <trkpt lat="47.65387" lon="6.19792">
        <ele>268.6</ele>
        <time>2022-02-23T16:16:15Z</time>
      </trkpt>
      <trkpt lat="47.65384" lon="6.19786">
        <ele>268.9</ele>
        <time>2022-02-23T16:16:16Z</time>
      </trkpt>
      <trkpt lat="47.65381" lon="6.19779">
        <ele>269.3</ele>
        <time>2022-02-23T16:16:18Z</time>
      </trkpt>
      <trkpt lat="47.65378" lon="6.19773">
        <ele>269.6</ele>
        <time>2022-02-23T16:16:18Z</time>
      </trkpt>
      <trkpt lat="47.65375" lon="6.19766">
        <ele>269.9</ele>
        <time>2022-02-23T16:16:20Z</time>
      </trkpt>
      <trkpt lat="47.65372" lon="6.1976">
        <ele>270</ele>
        <time>2022-02-23T16:16:21Z</time>
      </trkpt>
      <trkpt lat="47.65365" lon="6.19742">
        <ele>269.6</ele>
        <time>2022-02-23T16:16:23Z</time>
      </trkpt>
      <trkpt lat="47.65363" lon="6.19735">
        <ele>269.2</ele>
        <time>2022-02-23T16:16:25Z</time>
      </trkpt>
      <trkpt lat="47.65359" lon="6.19725">
        <ele>268.7</ele>
        <time>2022-02-23T16:16:26Z</time>
      </trkpt>
      <trkpt lat="47.65356" lon="6.19717">
        <ele>268.5</ele>
        <time>2022-02-23T16:16:27Z</time>
      </trkpt>
      <trkpt lat="47.65354" lon="6.1971">
        <ele>268.5</ele>
        <time>2022-02-23T16:16:28Z</time>
      </trkpt>
      <trkpt lat="47.6535" lon="6.19702">
        <ele>268.4</ele>
        <time>2022-02-23T16:16:29Z</time>
      </trkpt>
      <trkpt lat="47.65347" lon="6.19696">
        <ele>268.5</ele>
        <time>2022-02-23T16:16:31Z</time>
      </trkpt>
      <trkpt lat="47.65344" lon="6.19688">
        <ele>268.4</ele>
        <time>2022-02-23T16:16:32Z</time>
      </trkpt>
      <trkpt lat="47.65341" lon="6.19681">
        <ele>268.3</ele>
        <time>2022-02-23T16:16:33Z</time>
      </trkpt>
      <trkpt lat="47.65339" lon="6.19675">
        <ele>268.3</ele>
        <time>2022-02-23T16:16:35Z</time>
      </trkpt>
      <trkpt lat="47.65332" lon="6.19658">
        <ele>268.2</ele>
        <time>2022-02-23T16:16:38Z</time>
      </trkpt>
      <trkpt lat="47.6533" lon="6.19651">
        <ele>268.1</ele>
        <time>2022-02-23T16:16:39Z</time>
      </trkpt>
      <trkpt lat="47.65327" lon="6.19642">
        <ele>268.2</ele>
        <time>2022-02-23T16:16:40Z</time>
      </trkpt>
      <trkpt lat="47.65324" lon="6.19634">
        <ele>268.1</ele>
        <time>2022-02-23T16:16:42Z</time>
      </trkpt>
      <trkpt lat="47.65317" lon="6.1961">
        <ele>267.9</ele>
        <time>2022-02-23T16:16:44Z</time>
      </trkpt>
      <trkpt lat="47.65311" lon="6.19592">
        <ele>268</ele>
        <time>2022-02-23T16:16:47Z</time>
      </trkpt>
      <trkpt lat="47.65308" lon="6.19586">
        <ele>268</ele>
        <time>2022-02-23T16:16:48Z</time>
      </trkpt>
      <trkpt lat="47.65302" lon="6.19574">
        <ele>268.2</ele>
        <time>2022-02-23T16:16:51Z</time>
      </trkpt>
      <trkpt lat="47.65299" lon="6.19567">
        <ele>268.5</ele>
        <time>2022-02-23T16:16:53Z</time>
      </trkpt>
      <trkpt lat="47.65295" lon="6.19559">
        <ele>268.8</ele>
        <time>2022-02-23T16:16:54Z</time>
      </trkpt>
      <trkpt lat="47.65292" lon="6.1955">
        <ele>269.3</ele>
        <time>2022-02-23T16:16:57Z</time>
      </trkpt>
      <trkpt lat="47.6529" lon="6.19543">
        <ele>269.7</ele>
        <time>2022-02-23T16:16:59Z</time>
      </trkpt>
      <trkpt lat="47.65288" lon="6.19536">
        <ele>270.1</ele>
        <time>2022-02-23T16:17:00Z</time>
      </trkpt>
      <trkpt lat="47.65287" lon="6.19528">
        <ele>270.7</ele>
        <time>2022-02-23T16:17:02Z</time>
      </trkpt>
      <trkpt lat="47.65286" lon="6.1952">
        <ele>271.1</ele>
        <time>2022-02-23T16:17:04Z</time>
      </trkpt>
      <trkpt lat="47.65281" lon="6.19506">
        <ele>271.7</ele>
        <time>2022-02-23T16:17:07Z</time>
      </trkpt>
      <trkpt lat="47.65277" lon="6.19498">
        <ele>272</ele>
        <time>2022-02-23T16:17:09Z</time>
      </trkpt>
      <trkpt lat="47.65271" lon="6.19485">
        <ele>271.6</ele>
        <time>2022-02-23T16:17:12Z</time>
      </trkpt>
      <trkpt lat="47.65266" lon="6.19476">
        <ele>271.5</ele>
        <time>2022-02-23T16:17:14Z</time>
      </trkpt>
      <trkpt lat="47.65263" lon="6.19471">
        <ele>271.5</ele>
        <time>2022-02-23T16:17:15Z</time>
      </trkpt>
      <trkpt lat="47.65257" lon="6.19463">
        <ele>271.5</ele>
        <time>2022-02-23T16:17:18Z</time>
      </trkpt>
      <trkpt lat="47.65253" lon="6.19456">
        <ele>271.6</ele>
        <time>2022-02-23T16:17:19Z</time>
      </trkpt>
      <trkpt lat="47.65249" lon="6.1945">
        <ele>271.7</ele>
        <time>2022-02-23T16:17:20Z</time>
      </trkpt>
      <trkpt lat="47.65244" lon="6.19442">
        <ele>271.6</ele>
        <time>2022-02-23T16:17:22Z</time>
      </trkpt>
      <trkpt lat="47.65241" lon="6.19436">
        <ele>271.3</ele>
        <time>2022-02-23T16:17:23Z</time>
      </trkpt>
      <trkpt lat="47.65237" lon="6.19431">
        <ele>271.1</ele>
        <time>2022-02-23T16:17:24Z</time>
      </trkpt>
      <trkpt lat="47.65225" lon="6.19409">
        <ele>270.4</ele>
        <time>2022-02-23T16:17:26Z</time>
      </trkpt>
      <trkpt lat="47.65221" lon="6.19402">
        <ele>270.5</ele>
        <time>2022-02-23T16:17:30Z</time>
      </trkpt>
      <trkpt lat="47.65218" lon="6.19396">
        <ele>270.7</ele>
        <time>2022-02-23T16:17:31Z</time>
      </trkpt>
      <trkpt lat="47.65215" lon="6.19391">
        <ele>270.9</ele>
        <time>2022-02-23T16:17:32Z</time>
      </trkpt>
      <trkpt lat="47.65207" lon="6.19378">
        <ele>271</ele>
        <time>2022-02-23T16:17:35Z</time>
      </trkpt>
      <trkpt lat="47.65204" lon="6.19372">
        <ele>271</ele>
        <time>2022-02-23T16:17:37Z</time>
      </trkpt>
      <trkpt lat="47.65201" lon="6.19366">
        <ele>271</ele>
        <time>2022-02-23T16:17:39Z</time>
      </trkpt>
      <trkpt lat="47.65197" lon="6.1936">
        <ele>271</ele>
        <time>2022-02-23T16:17:40Z</time>
      </trkpt>
      <trkpt lat="47.65193" lon="6.19353">
        <ele>271.2</ele>
        <time>2022-02-23T16:17:42Z</time>
      </trkpt>
      <trkpt lat="47.65189" lon="6.19346">
        <ele>271.4</ele>
        <time>2022-02-23T16:17:44Z</time>
      </trkpt>
      <trkpt lat="47.65185" lon="6.19341">
        <ele>271.4</ele>
        <time>2022-02-23T16:17:46Z</time>
      </trkpt>
      <trkpt lat="47.6518" lon="6.19332">
        <ele>271.5</ele>
        <time>2022-02-23T16:17:49Z</time>
      </trkpt>
      <trkpt lat="47.65177" lon="6.19329">
        <ele>271.5</ele>
        <time>2022-02-23T16:17:50Z</time>
      </trkpt>
      <trkpt lat="47.65173" lon="6.19324">
        <ele>271.6</ele>
        <time>2022-02-23T16:17:52Z</time>
      </trkpt>
      <trkpt lat="47.65165" lon="6.19315">
        <ele>271.7</ele>
        <time>2022-02-23T16:17:55Z</time>
      </trkpt>
      <trkpt lat="47.65159" lon="6.19309">
        <ele>271.9</ele>
        <time>2022-02-23T16:17:58Z</time>
      </trkpt>
      <trkpt lat="47.65153" lon="6.19303">
        <ele>272</ele>
        <time>2022-02-23T16:17:59Z</time>
      </trkpt>
      <trkpt lat="47.6515" lon="6.19299">
        <ele>272</ele>
        <time>2022-02-23T16:18:01Z</time>
      </trkpt>
      <trkpt lat="47.65144" lon="6.19292">
        <ele>272</ele>
        <time>2022-02-23T16:18:03Z</time>
      </trkpt>
      <trkpt lat="47.6514" lon="6.19288">
        <ele>272</ele>
        <time>2022-02-23T16:18:04Z</time>
      </trkpt>
      <trkpt lat="47.65128" lon="6.19274">
        <ele>271.6</ele>
        <time>2022-02-23T16:18:05Z</time>
      </trkpt>
      <trkpt lat="47.65123" lon="6.19268">
        <ele>271.4</ele>
        <time>2022-02-23T16:18:09Z</time>
      </trkpt>
      <trkpt lat="47.65111" lon="6.19251">
        <ele>271</ele>
        <time>2022-02-23T16:18:10Z</time>
      </trkpt>
      <trkpt lat="47.65106" lon="6.19244">
        <ele>270.8</ele>
        <time>2022-02-23T16:18:14Z</time>
      </trkpt>
      <trkpt lat="47.65102" lon="6.19238">
        <ele>270.7</ele>
        <time>2022-02-23T16:18:16Z</time>
      </trkpt>
      <trkpt lat="47.65098" lon="6.19233">
        <ele>270.5</ele>
        <time>2022-02-23T16:18:17Z</time>
      </trkpt>
      <trkpt lat="47.65094" lon="6.19228">
        <ele>270.4</ele>
        <time>2022-02-23T16:18:18Z</time>
      </trkpt>
      <trkpt lat="47.65087" lon="6.19218">
        <ele>270.1</ele>
        <time>2022-02-23T16:18:20Z</time>
      </trkpt>
      <trkpt lat="47.65084" lon="6.19214">
        <ele>270</ele>
        <time>2022-02-23T16:18:20Z</time>
      </trkpt>
      <trkpt lat="47.6508" lon="6.19208">
        <ele>269.8</ele>
        <time>2022-02-23T16:18:21Z</time>
      </trkpt>
      <trkpt lat="47.65077" lon="6.19203">
        <ele>269.7</ele>
        <time>2022-02-23T16:18:23Z</time>
      </trkpt>
      <trkpt lat="47.65072" lon="6.19195">
        <ele>269.6</ele>
        <time>2022-02-23T16:18:24Z</time>
      </trkpt>
      <trkpt lat="47.65068" lon="6.19189">
        <ele>269.5</ele>
        <time>2022-02-23T16:18:25Z</time>
      </trkpt>
      <trkpt lat="47.65064" lon="6.19183">
        <ele>269.6</ele>
        <time>2022-02-23T16:18:27Z</time>
      </trkpt>
      <trkpt lat="47.65061" lon="6.19178">
        <ele>269.7</ele>
        <time>2022-02-23T16:18:28Z</time>
      </trkpt>
      <trkpt lat="47.65057" lon="6.19173">
        <ele>269.8</ele>
        <time>2022-02-23T16:18:29Z</time>
      </trkpt>
      <trkpt lat="47.65053" lon="6.19167">
        <ele>269.8</ele>
        <time>2022-02-23T16:18:30Z</time>
      </trkpt>
      <trkpt lat="47.65049" lon="6.19161">
        <ele>269.6</ele>
        <time>2022-02-23T16:18:31Z</time>
      </trkpt>
      <trkpt lat="47.65045" lon="6.19153">
        <ele>269.4</ele>
        <time>2022-02-23T16:18:33Z</time>
      </trkpt>
      <trkpt lat="47.65041" lon="6.19148">
        <ele>269.3</ele>
        <time>2022-02-23T16:18:35Z</time>
      </trkpt>
      <trkpt lat="47.65037" lon="6.19141">
        <ele>269.3</ele>
        <time>2022-02-23T16:18:36Z</time>
      </trkpt>
      <trkpt lat="47.65033" lon="6.19132">
        <ele>269.2</ele>
        <time>2022-02-23T16:18:38Z</time>
      </trkpt>
      <trkpt lat="47.65029" lon="6.19126">
        <ele>269</ele>
        <time>2022-02-23T16:18:40Z</time>
      </trkpt>
      <trkpt lat="47.6503" lon="6.19119">
        <ele>269.1</ele>
        <time>2022-02-23T16:18:42Z</time>
      </trkpt>
      <trkpt lat="47.65026" lon="6.19114">
        <ele>268.9</ele>
        <time>2022-02-23T16:18:43Z</time>
      </trkpt>
      <trkpt lat="47.65021" lon="6.19108">
        <ele>268.5</ele>
        <time>2022-02-23T16:18:45Z</time>
      </trkpt>
      <trkpt lat="47.65011" lon="6.19097">
        <ele>268.1</ele>
        <time>2022-02-23T16:18:47Z</time>
      </trkpt>
      <trkpt lat="47.65007" lon="6.1909">
        <ele>268.1</ele>
        <time>2022-02-23T16:18:49Z</time>
      </trkpt>
      <trkpt lat="47.65004" lon="6.19085">
        <ele>268.1</ele>
        <time>2022-02-23T16:18:50Z</time>
      </trkpt>
      <trkpt lat="47.64995" lon="6.1907">
        <ele>267.7</ele>
        <time>2022-02-23T16:18:53Z</time>
      </trkpt>
      <trkpt lat="47.64991" lon="6.19065">
        <ele>267.6</ele>
        <time>2022-02-23T16:18:54Z</time>
      </trkpt>
      <trkpt lat="47.64988" lon="6.1906">
        <ele>267.5</ele>
        <time>2022-02-23T16:18:55Z</time>
      </trkpt>
      <trkpt lat="47.64986" lon="6.19053">
        <ele>267.5</ele>
        <time>2022-02-23T16:18:57Z</time>
      </trkpt>
      <trkpt lat="47.64977" lon="6.19034">
        <ele>267.2</ele>
        <time>2022-02-23T16:19:01Z</time>
      </trkpt>
      <trkpt lat="47.64969" lon="6.19026">
        <ele>266.8</ele>
        <time>2022-02-23T16:19:06Z</time>
      </trkpt>
      <trkpt lat="47.64966" lon="6.19018">
        <ele>266.6</ele>
        <time>2022-02-23T16:19:09Z</time>
      </trkpt>
      <trkpt lat="47.64963" lon="6.19011">
        <ele>266.5</ele>
        <time>2022-02-23T16:19:10Z</time>
      </trkpt>
      <trkpt lat="47.64959" lon="6.19003">
        <ele>266.5</ele>
        <time>2022-02-23T16:19:13Z</time>
      </trkpt>
      <trkpt lat="47.64955" lon="6.18996">
        <ele>266.4</ele>
        <time>2022-02-23T16:19:14Z</time>
      </trkpt>
      <trkpt lat="47.64951" lon="6.18989">
        <ele>266.3</ele>
        <time>2022-02-23T16:19:16Z</time>
      </trkpt>
      <trkpt lat="47.64944" lon="6.18976">
        <ele>266</ele>
        <time>2022-02-23T16:19:19Z</time>
      </trkpt>
      <trkpt lat="47.64941" lon="6.18971">
        <ele>265.9</ele>
        <time>2022-02-23T16:19:20Z</time>
      </trkpt>
      <trkpt lat="47.64937" lon="6.18965">
        <ele>265.7</ele>
        <time>2022-02-23T16:19:22Z</time>
      </trkpt>
      <trkpt lat="47.64934" lon="6.18959">
        <ele>265.6</ele>
        <time>2022-02-23T16:19:23Z</time>
      </trkpt>
      <trkpt lat="47.6493" lon="6.18952">
        <ele>265.5</ele>
        <time>2022-02-23T16:19:24Z</time>
      </trkpt>
      <trkpt lat="47.64926" lon="6.18946">
        <ele>265.3</ele>
        <time>2022-02-23T16:19:25Z</time>
      </trkpt>
      <trkpt lat="47.64917" lon="6.18931">
        <ele>265</ele>
        <time>2022-02-23T16:19:28Z</time>
      </trkpt>
      <trkpt lat="47.64913" lon="6.18923">
        <ele>264.8</ele>
        <time>2022-02-23T16:19:30Z</time>
      </trkpt>
      <trkpt lat="47.64898" lon="6.18898">
        <ele>264.6</ele>
        <time>2022-02-23T16:19:31Z</time>
      </trkpt>
      <trkpt lat="47.64892" lon="6.18886">
        <ele>264.2</ele>
        <time>2022-02-23T16:19:33Z</time>
      </trkpt>
      <trkpt lat="47.64889" lon="6.1888">
        <ele>264</ele>
        <time>2022-02-23T16:19:34Z</time>
      </trkpt>
      <trkpt lat="47.64886" lon="6.18874">
        <ele>263.9</ele>
        <time>2022-02-23T16:19:35Z</time>
      </trkpt>
      <trkpt lat="47.64883" lon="6.18868">
        <ele>263.7</ele>
        <time>2022-02-23T16:19:36Z</time>
      </trkpt>
      <trkpt lat="47.64881" lon="6.18862">
        <ele>263.7</ele>
        <time>2022-02-23T16:19:37Z</time>
      </trkpt>
      <trkpt lat="47.64878" lon="6.18856">
        <ele>263.6</ele>
        <time>2022-02-23T16:19:38Z</time>
      </trkpt>
      <trkpt lat="47.64875" lon="6.18851">
        <ele>263.5</ele>
        <time>2022-02-23T16:19:39Z</time>
      </trkpt>
      <trkpt lat="47.64873" lon="6.18845">
        <ele>263.4</ele>
        <time>2022-02-23T16:19:40Z</time>
      </trkpt>
      <trkpt lat="47.6487" lon="6.18839">
        <ele>263.3</ele>
        <time>2022-02-23T16:19:41Z</time>
      </trkpt>
      <trkpt lat="47.64867" lon="6.18834">
        <ele>263.2</ele>
        <time>2022-02-23T16:19:42Z</time>
      </trkpt>
      <trkpt lat="47.64864" lon="6.18828">
        <ele>263.1</ele>
        <time>2022-02-23T16:19:43Z</time>
      </trkpt>
      <trkpt lat="47.64861" lon="6.18823">
        <ele>263</ele>
        <time>2022-02-23T16:19:44Z</time>
      </trkpt>
      <trkpt lat="47.64859" lon="6.18817">
        <ele>262.8</ele>
        <time>2022-02-23T16:19:45Z</time>
      </trkpt>
      <trkpt lat="47.64856" lon="6.18811">
        <ele>262.6</ele>
        <time>2022-02-23T16:19:46Z</time>
      </trkpt>
      <trkpt lat="47.64853" lon="6.18805">
        <ele>262.4</ele>
        <time>2022-02-23T16:19:47Z</time>
      </trkpt>
      <trkpt lat="47.6485" lon="6.18799">
        <ele>262.3</ele>
        <time>2022-02-23T16:19:48Z</time>
      </trkpt>
      <trkpt lat="47.64847" lon="6.18792">
        <ele>262.2</ele>
        <time>2022-02-23T16:19:49Z</time>
      </trkpt>
      <trkpt lat="47.64844" lon="6.18786">
        <ele>262.2</ele>
        <time>2022-02-23T16:19:50Z</time>
      </trkpt>
      <trkpt lat="47.64841" lon="6.1878">
        <ele>262.2</ele>
        <time>2022-02-23T16:19:51Z</time>
      </trkpt>
      <trkpt lat="47.64838" lon="6.18773">
        <ele>262.2</ele>
        <time>2022-02-23T16:19:52Z</time>
      </trkpt>
      <trkpt lat="47.64835" lon="6.18767">
        <ele>262.1</ele>
        <time>2022-02-23T16:19:53Z</time>
      </trkpt>
      <trkpt lat="47.64832" lon="6.1876">
        <ele>261.9</ele>
        <time>2022-02-23T16:19:54Z</time>
      </trkpt>
      <trkpt lat="47.6483" lon="6.18754">
        <ele>261.7</ele>
        <time>2022-02-23T16:19:55Z</time>
      </trkpt>
      <trkpt lat="47.64827" lon="6.18748">
        <ele>261.5</ele>
        <time>2022-02-23T16:19:56Z</time>
      </trkpt>
      <trkpt lat="47.64824" lon="6.18741">
        <ele>261.3</ele>
        <time>2022-02-23T16:19:57Z</time>
      </trkpt>
      <trkpt lat="47.64821" lon="6.18734">
        <ele>261.1</ele>
        <time>2022-02-23T16:19:58Z</time>
      </trkpt>
      <trkpt lat="47.64818" lon="6.18728">
        <ele>260.9</ele>
        <time>2022-02-23T16:19:59Z</time>
      </trkpt>
      <trkpt lat="47.64814" lon="6.18722">
        <ele>260.6</ele>
        <time>2022-02-23T16:20:00Z</time>
      </trkpt>
      <trkpt lat="47.64811" lon="6.18715">
        <ele>260.4</ele>
        <time>2022-02-23T16:20:01Z</time>
      </trkpt>
      <trkpt lat="47.64807" lon="6.18708">
        <ele>260.1</ele>
        <time>2022-02-23T16:20:02Z</time>
      </trkpt>
      <trkpt lat="47.64803" lon="6.18701">
        <ele>259.8</ele>
        <time>2022-02-23T16:20:03Z</time>
      </trkpt>
      <trkpt lat="47.648" lon="6.18694">
        <ele>259.6</ele>
        <time>2022-02-23T16:20:04Z</time>
      </trkpt>
      <trkpt lat="47.64795" lon="6.18686">
        <ele>259.3</ele>
        <time>2022-02-23T16:20:05Z</time>
      </trkpt>
      <trkpt lat="47.64791" lon="6.18679">
        <ele>259</ele>
        <time>2022-02-23T16:20:06Z</time>
      </trkpt>
      <trkpt lat="47.64787" lon="6.18672">
        <ele>258.7</ele>
        <time>2022-02-23T16:20:07Z</time>
      </trkpt>
      <trkpt lat="47.64783" lon="6.18665">
        <ele>258.4</ele>
        <time>2022-02-23T16:20:08Z</time>
      </trkpt>
      <trkpt lat="47.64779" lon="6.18657">
        <ele>258.4</ele>
        <time>2022-02-23T16:20:09Z</time>
      </trkpt>
      <trkpt lat="47.64775" lon="6.1865">
        <ele>258.3</ele>
        <time>2022-02-23T16:20:10Z</time>
      </trkpt>
      <trkpt lat="47.64771" lon="6.18642">
        <ele>258.2</ele>
        <time>2022-02-23T16:20:11Z</time>
      </trkpt>
      <trkpt lat="47.64767" lon="6.18635">
        <ele>257.9</ele>
        <time>2022-02-23T16:20:12Z</time>
      </trkpt>
      <trkpt lat="47.64764" lon="6.18628">
        <ele>257.7</ele>
        <time>2022-02-23T16:20:13Z</time>
      </trkpt>
      <trkpt lat="47.6476" lon="6.18621">
        <ele>257.5</ele>
        <time>2022-02-23T16:20:14Z</time>
      </trkpt>
      <trkpt lat="47.64757" lon="6.18613">
        <ele>257.4</ele>
        <time>2022-02-23T16:20:15Z</time>
      </trkpt>
      <trkpt lat="47.64754" lon="6.18607">
        <ele>257.4</ele>
        <time>2022-02-23T16:20:16Z</time>
      </trkpt>
      <trkpt lat="47.6475" lon="6.186">
        <ele>257.4</ele>
        <time>2022-02-23T16:20:17Z</time>
      </trkpt>
      <trkpt lat="47.64747" lon="6.18594">
        <ele>257.3</ele>
        <time>2022-02-23T16:20:18Z</time>
      </trkpt>
      <trkpt lat="47.64743" lon="6.18587">
        <ele>257.3</ele>
        <time>2022-02-23T16:20:19Z</time>
      </trkpt>
      <trkpt lat="47.6474" lon="6.18581">
        <ele>257.4</ele>
        <time>2022-02-23T16:20:20Z</time>
      </trkpt>
      <trkpt lat="47.64736" lon="6.18575">
        <ele>257.3</ele>
        <time>2022-02-23T16:20:21Z</time>
      </trkpt>
      <trkpt lat="47.64733" lon="6.18569">
        <ele>257.3</ele>
        <time>2022-02-23T16:20:22Z</time>
      </trkpt>
      <trkpt lat="47.64729" lon="6.18562">
        <ele>257.3</ele>
        <time>2022-02-23T16:20:23Z</time>
      </trkpt>
      <trkpt lat="47.64726" lon="6.18556">
        <ele>257.2</ele>
        <time>2022-02-23T16:20:24Z</time>
      </trkpt>
      <trkpt lat="47.64722" lon="6.18549">
        <ele>257.2</ele>
        <time>2022-02-23T16:20:25Z</time>
      </trkpt>
      <trkpt lat="47.64718" lon="6.18542">
        <ele>257.2</ele>
        <time>2022-02-23T16:20:26Z</time>
      </trkpt>
      <trkpt lat="47.64715" lon="6.18535">
        <ele>257.2</ele>
        <time>2022-02-23T16:20:27Z</time>
      </trkpt>
      <trkpt lat="47.64712" lon="6.18528">
        <ele>257.2</ele>
        <time>2022-02-23T16:20:28Z</time>
      </trkpt>
      <trkpt lat="47.64708" lon="6.18522">
        <ele>257.2</ele>
        <time>2022-02-23T16:20:29Z</time>
      </trkpt>
      <trkpt lat="47.64705" lon="6.18516">
        <ele>257.2</ele>
        <time>2022-02-23T16:20:30Z</time>
      </trkpt>
      <trkpt lat="47.64702" lon="6.1851">
        <ele>257.2</ele>
        <time>2022-02-23T16:20:31Z</time>
      </trkpt>
      <trkpt lat="47.64699" lon="6.18505">
        <ele>257.1</ele>
        <time>2022-02-23T16:20:32Z</time>
      </trkpt>
      <trkpt lat="47.64695" lon="6.185">
        <ele>257.1</ele>
        <time>2022-02-23T16:20:33Z</time>
      </trkpt>
      <trkpt lat="47.64692" lon="6.18495">
        <ele>257</ele>
        <time>2022-02-23T16:20:34Z</time>
      </trkpt>
      <trkpt lat="47.64686" lon="6.18486">
        <ele>256.9</ele>
        <time>2022-02-23T16:20:36Z</time>
      </trkpt>
      <trkpt lat="47.64681" lon="6.18476">
        <ele>256.9</ele>
        <time>2022-02-23T16:20:38Z</time>
      </trkpt>
      <trkpt lat="47.64678" lon="6.18472">
        <ele>256.8</ele>
        <time>2022-02-23T16:20:39Z</time>
      </trkpt>
      <trkpt lat="47.64674" lon="6.18466">
        <ele>256.7</ele>
        <time>2022-02-23T16:20:40Z</time>
      </trkpt>
      <trkpt lat="47.64671" lon="6.18461">
        <ele>256.7</ele>
        <time>2022-02-23T16:20:41Z</time>
      </trkpt>
      <trkpt lat="47.64667" lon="6.18456">
        <ele>256.6</ele>
        <time>2022-02-23T16:20:42Z</time>
      </trkpt>
      <trkpt lat="47.64663" lon="6.18451">
        <ele>256.6</ele>
        <time>2022-02-23T16:20:43Z</time>
      </trkpt>
      <trkpt lat="47.64659" lon="6.18447">
        <ele>256.6</ele>
        <time>2022-02-23T16:20:44Z</time>
      </trkpt>
      <trkpt lat="47.64656" lon="6.18442">
        <ele>256.7</ele>
        <time>2022-02-23T16:20:45Z</time>
      </trkpt>
      <trkpt lat="47.6465" lon="6.18435">
        <ele>256.7</ele>
        <time>2022-02-23T16:20:47Z</time>
      </trkpt>
      <trkpt lat="47.64646" lon="6.18427">
        <ele>256.9</ele>
        <time>2022-02-23T16:20:50Z</time>
      </trkpt>
      <trkpt lat="47.6464" lon="6.1842">
        <ele>256.9</ele>
        <time>2022-02-23T16:20:54Z</time>
      </trkpt>
      <trkpt lat="47.6463" lon="6.18408">
        <ele>256.5</ele>
        <time>2022-02-23T16:20:57Z</time>
      </trkpt>
      <trkpt lat="47.64626" lon="6.18402">
        <ele>256.3</ele>
        <time>2022-02-23T16:20:58Z</time>
      </trkpt>
      <trkpt lat="47.64616" lon="6.1839">
        <ele>256.2</ele>
        <time>2022-02-23T16:21:02Z</time>
      </trkpt>
      <trkpt lat="47.64611" lon="6.18384">
        <ele>256.2</ele>
        <time>2022-02-23T16:21:03Z</time>
      </trkpt>
      <trkpt lat="47.64602" lon="6.18373">
        <ele>255.9</ele>
        <time>2022-02-23T16:21:06Z</time>
      </trkpt>
      <trkpt lat="47.64598" lon="6.18368">
        <ele>255.8</ele>
        <time>2022-02-23T16:21:08Z</time>
      </trkpt>
      <trkpt lat="47.64595" lon="6.18361">
        <ele>255.8</ele>
        <time>2022-02-23T16:21:09Z</time>
      </trkpt>
      <trkpt lat="47.64592" lon="6.18354">
        <ele>255.6</ele>
        <time>2022-02-23T16:21:10Z</time>
      </trkpt>
      <trkpt lat="47.64588" lon="6.18346">
        <ele>255.4</ele>
        <time>2022-02-23T16:21:12Z</time>
      </trkpt>
      <trkpt lat="47.64585" lon="6.18338">
        <ele>255.1</ele>
        <time>2022-02-23T16:21:14Z</time>
      </trkpt>
      <trkpt lat="47.64581" lon="6.18329">
        <ele>254.5</ele>
        <time>2022-02-23T16:21:15Z</time>
      </trkpt>
      <trkpt lat="47.64578" lon="6.18323">
        <ele>253.9</ele>
        <time>2022-02-23T16:21:17Z</time>
      </trkpt>
      <trkpt lat="47.64574" lon="6.18314">
        <ele>252.9</ele>
        <time>2022-02-23T16:21:18Z</time>
      </trkpt>
      <trkpt lat="47.6457" lon="6.18308">
        <ele>252.2</ele>
        <time>2022-02-23T16:21:20Z</time>
      </trkpt>
      <trkpt lat="47.64567" lon="6.18302">
        <ele>251.4</ele>
        <time>2022-02-23T16:21:21Z</time>
      </trkpt>
      <trkpt lat="47.6456" lon="6.18289">
        <ele>249.6</ele>
        <time>2022-02-23T16:21:23Z</time>
      </trkpt>
      <trkpt lat="47.64557" lon="6.18283">
        <ele>248.7</ele>
        <time>2022-02-23T16:21:25Z</time>
      </trkpt>
      <trkpt lat="47.64554" lon="6.18275">
        <ele>247.4</ele>
        <time>2022-02-23T16:21:26Z</time>
      </trkpt>
      <trkpt lat="47.64551" lon="6.18265">
        <ele>246.3</ele>
        <time>2022-02-23T16:21:28Z</time>
      </trkpt>
      <trkpt lat="47.64551" lon="6.18255">
        <ele>245.8</ele>
        <time>2022-02-23T16:21:30Z</time>
      </trkpt>
      <trkpt lat="47.64552" lon="6.18231">
        <ele>243.6</ele>
        <time>2022-02-23T16:21:33Z</time>
      </trkpt>
      <trkpt lat="47.64555" lon="6.1819">
        <ele>240.2</ele>
        <time>2022-02-23T16:21:35Z</time>
      </trkpt>
      <trkpt lat="47.64558" lon="6.18185">
        <ele>240.6</ele>
        <time>2022-02-23T16:21:39Z</time>
      </trkpt>
      <trkpt lat="47.6456" lon="6.18169">
        <ele>239.4</ele>
        <time>2022-02-23T16:21:42Z</time>
      </trkpt>
      <trkpt lat="47.64562" lon="6.18159">
        <ele>238.9</ele>
        <time>2022-02-23T16:21:44Z</time>
      </trkpt>
      <trkpt lat="47.64564" lon="6.1815">
        <ele>238.7</ele>
        <time>2022-02-23T16:21:46Z</time>
      </trkpt>
      <trkpt lat="47.64562" lon="6.18142">
        <ele>237.8</ele>
        <time>2022-02-23T16:21:48Z</time>
      </trkpt>
      <trkpt lat="47.64561" lon="6.18134">
        <ele>236.9</ele>
        <time>2022-02-23T16:21:50Z</time>
      </trkpt>
      <trkpt lat="47.6456" lon="6.18127">
        <ele>236.2</ele>
        <time>2022-02-23T16:21:52Z</time>
      </trkpt>
      <trkpt lat="47.64557" lon="6.18122">
        <ele>235</ele>
        <time>2022-02-23T16:21:55Z</time>
      </trkpt>
      <trkpt lat="47.64549" lon="6.18109">
        <ele>232.6</ele>
        <time>2022-02-23T16:21:59Z</time>
      </trkpt>
      <trkpt lat="47.64545" lon="6.18105">
        <ele>231.4</ele>
        <time>2022-02-23T16:22:01Z</time>
      </trkpt>
      <trkpt lat="47.64545" lon="6.18106">
        <ele>231.4</ele>
        <time>2022-02-23T16:22:07Z</time>
      </trkpt>
      <trkpt lat="47.64545" lon="6.18113">
        <ele>231.8</ele>
        <time>2022-02-23T16:22:54Z</time>
      </trkpt>
      <trkpt lat="47.64545" lon="6.18105">
        <ele>231.6</ele>
        <time>2022-02-23T16:23:41Z</time>
      </trkpt>
      <trkpt lat="47.64545" lon="6.18096">
        <ele>231.2</ele>
        <time>2022-02-23T16:23:43Z</time>
      </trkpt>
      <trkpt lat="47.64545" lon="6.18088">
        <ele>230.8</ele>
        <time>2022-02-23T16:23:44Z</time>
      </trkpt>
      <trkpt lat="47.64544" lon="6.18078">
        <ele>230.2</ele>
        <time>2022-02-23T16:23:45Z</time>
      </trkpt>
      <trkpt lat="47.64543" lon="6.18069">
        <ele>229.5</ele>
        <time>2022-02-23T16:23:47Z</time>
      </trkpt>
      <trkpt lat="47.64539" lon="6.1805">
        <ele>227.8</ele>
        <time>2022-02-23T16:23:49Z</time>
      </trkpt>
      <trkpt lat="47.64538" lon="6.18042">
        <ele>227.1</ele>
        <time>2022-02-23T16:23:50Z</time>
      </trkpt>
      <trkpt lat="47.6453" lon="6.18029">
        <ele>225.3</ele>
        <time>2022-02-23T16:23:54Z</time>
      </trkpt>
      <trkpt lat="47.64525" lon="6.18032">
        <ele>224.9</ele>
        <time>2022-02-23T16:23:55Z</time>
      </trkpt>
      <trkpt lat="47.64518" lon="6.18038">
        <ele>224.6</ele>
        <time>2022-02-23T16:23:58Z</time>
      </trkpt>
      <trkpt lat="47.64504" lon="6.18044">
        <ele>223.9</ele>
        <time>2022-02-23T16:24:01Z</time>
      </trkpt>
      <trkpt lat="47.64489" lon="6.18042">
        <ele>223.3</ele>
        <time>2022-02-23T16:24:02Z</time>
      </trkpt>
      <trkpt lat="47.64485" lon="6.18039">
        <ele>223.2</ele>
        <time>2022-02-23T16:24:03Z</time>
      </trkpt>
      <trkpt lat="47.6448" lon="6.18035">
        <ele>223.1</ele>
        <time>2022-02-23T16:24:04Z</time>
      </trkpt>
      <trkpt lat="47.64476" lon="6.18031">
        <ele>223</ele>
        <time>2022-02-23T16:24:05Z</time>
      </trkpt>
      <trkpt lat="47.64471" lon="6.18028">
        <ele>223</ele>
        <time>2022-02-23T16:24:06Z</time>
      </trkpt>
      <trkpt lat="47.64467" lon="6.18024">
        <ele>223</ele>
        <time>2022-02-23T16:24:07Z</time>
      </trkpt>
      <trkpt lat="47.64463" lon="6.18021">
        <ele>223</ele>
        <time>2022-02-23T16:24:08Z</time>
      </trkpt>
      <trkpt lat="47.6446" lon="6.18016">
        <ele>223</ele>
        <time>2022-02-23T16:24:09Z</time>
      </trkpt>
      <trkpt lat="47.64453" lon="6.18007">
        <ele>223</ele>
        <time>2022-02-23T16:24:11Z</time>
      </trkpt>
      <trkpt lat="47.6445" lon="6.18002">
        <ele>223</ele>
        <time>2022-02-23T16:24:12Z</time>
      </trkpt>
      <trkpt lat="47.64449" lon="6.17995">
        <ele>222.8</ele>
        <time>2022-02-23T16:24:16Z</time>
      </trkpt>
      <trkpt lat="47.64447" lon="6.17989">
        <ele>222.6</ele>
        <time>2022-02-23T16:24:17Z</time>
      </trkpt>
      <trkpt lat="47.64444" lon="6.17995">
        <ele>222.8</ele>
        <time>2022-02-23T16:24:23Z</time>
      </trkpt>
      <trkpt lat="47.64452" lon="6.18006">
        <ele>223</ele>
        <time>2022-02-23T16:24:25Z</time>
      </trkpt>
      <trkpt lat="47.64457" lon="6.18012">
        <ele>223</ele>
        <time>2022-02-23T16:24:27Z</time>
      </trkpt>
      <trkpt lat="47.64462" lon="6.18019">
        <ele>223</ele>
        <time>2022-02-23T16:24:29Z</time>
      </trkpt>
      <trkpt lat="47.64466" lon="6.18024">
        <ele>223</ele>
        <time>2022-02-23T16:24:31Z</time>
      </trkpt>
      <trkpt lat="47.6447" lon="6.18027">
        <ele>223</ele>
        <time>2022-02-23T16:24:34Z</time>
      </trkpt>
      <trkpt lat="47.64476" lon="6.18029">
        <ele>223</ele>
        <time>2022-02-23T16:24:38Z</time>
      </trkpt>
      <trkpt lat="47.6448" lon="6.18032">
        <ele>223</ele>
        <time>2022-02-23T16:24:41Z</time>
      </trkpt>
      <trkpt lat="47.64485" lon="6.18036">
        <ele>223.1</ele>
        <time>2022-02-23T16:24:44Z</time>
      </trkpt>
      <trkpt lat="47.6449" lon="6.18037">
        <ele>223.2</ele>
        <time>2022-02-23T16:24:47Z</time>
      </trkpt>
      <trkpt lat="47.64495" lon="6.18038">
        <ele>223.3</ele>
        <time>2022-02-23T16:24:50Z</time>
      </trkpt>
      <trkpt lat="47.64499" lon="6.18042">
        <ele>223.5</ele>
        <time>2022-02-23T16:24:53Z</time>
      </trkpt>
      <trkpt lat="47.64504" lon="6.18047">
        <ele>224</ele>
        <time>2022-02-23T16:24:56Z</time>
      </trkpt>
      <trkpt lat="47.64509" lon="6.1805">
        <ele>224.4</ele>
        <time>2022-02-23T16:25:00Z</time>
      </trkpt>
      <trkpt lat="47.64513" lon="6.18055">
        <ele>224.9</ele>
        <time>2022-02-23T16:25:03Z</time>
      </trkpt>
      <trkpt lat="47.64515" lon="6.18063">
        <ele>225.1</ele>
        <time>2022-02-23T16:25:07Z</time>
      </trkpt>
      <trkpt lat="47.64513" lon="6.1807">
        <ele>224.9</ele>
        <time>2022-02-23T16:25:09Z</time>
      </trkpt>
      <trkpt lat="47.6451" lon="6.18081">
        <ele>224.5</ele>
        <time>2022-02-23T16:25:10Z</time>
      </trkpt>
      <trkpt lat="47.64508" lon="6.18092">
        <ele>224.2</ele>
        <time>2022-02-23T16:25:12Z</time>
      </trkpt>
      <trkpt lat="47.64505" lon="6.18102">
        <ele>223.8</ele>
        <time>2022-02-23T16:25:14Z</time>
      </trkpt>
      <trkpt lat="47.64502" lon="6.18114">
        <ele>223.3</ele>
        <time>2022-02-23T16:25:16Z</time>
      </trkpt>
      <trkpt lat="47.645" lon="6.18124">
        <ele>223</ele>
        <time>2022-02-23T16:25:18Z</time>
      </trkpt>
      <trkpt lat="47.64498" lon="6.18135">
        <ele>223</ele>
        <time>2022-02-23T16:25:20Z</time>
      </trkpt>
      <trkpt lat="47.64498" lon="6.18144">
        <ele>223</ele>
        <time>2022-02-23T16:25:25Z</time>
      </trkpt>
      <trkpt lat="47.64498" lon="6.1816">
        <ele>223</ele>
        <time>2022-02-23T16:25:27Z</time>
      </trkpt>
      <trkpt lat="47.64503" lon="6.18179">
        <ele>224.1</ele>
        <time>2022-02-23T16:25:31Z</time>
      </trkpt>
      <trkpt lat="47.64501" lon="6.18197">
        <ele>224.6</ele>
        <time>2022-02-23T16:25:31Z</time>
      </trkpt>
      <trkpt lat="47.64499" lon="6.18203">
        <ele>224.5</ele>
        <time>2022-02-23T16:25:33Z</time>
      </trkpt>
      <trkpt lat="47.64496" lon="6.18211">
        <ele>224.9</ele>
        <time>2022-02-23T16:25:36Z</time>
      </trkpt>
      <trkpt lat="47.64495" lon="6.18218">
        <ele>225.1</ele>
        <time>2022-02-23T16:25:38Z</time>
      </trkpt>
      <trkpt lat="47.64492" lon="6.18224">
        <ele>225.2</ele>
        <time>2022-02-23T16:25:40Z</time>
      </trkpt>
      <trkpt lat="47.64488" lon="6.18232">
        <ele>225.3</ele>
        <time>2022-02-23T16:25:42Z</time>
      </trkpt>
      <trkpt lat="47.64484" lon="6.18242">
        <ele>225.2</ele>
        <time>2022-02-23T16:25:44Z</time>
      </trkpt>
      <trkpt lat="47.6448" lon="6.18252">
        <ele>224.9</ele>
        <time>2022-02-23T16:25:46Z</time>
      </trkpt>
      <trkpt lat="47.64475" lon="6.1826">
        <ele>224.4</ele>
        <time>2022-02-23T16:25:48Z</time>
      </trkpt>
      <trkpt lat="47.64471" lon="6.18266">
        <ele>224.1</ele>
        <time>2022-02-23T16:25:50Z</time>
      </trkpt>
      <trkpt lat="47.64466" lon="6.18272">
        <ele>224.2</ele>
        <time>2022-02-23T16:25:52Z</time>
      </trkpt>
      <trkpt lat="47.64462" lon="6.18277">
        <ele>224.2</ele>
        <time>2022-02-23T16:25:54Z</time>
      </trkpt>
      <trkpt lat="47.64458" lon="6.18282">
        <ele>224.2</ele>
        <time>2022-02-23T16:25:56Z</time>
      </trkpt>
      <trkpt lat="47.64454" lon="6.18287">
        <ele>224.2</ele>
        <time>2022-02-23T16:26:02Z</time>
      </trkpt>
      <trkpt lat="47.6445" lon="6.18291">
        <ele>224.1</ele>
        <time>2022-02-23T16:26:03Z</time>
      </trkpt>
      <trkpt lat="47.64441" lon="6.18306">
        <ele>223.9</ele>
        <time>2022-02-23T16:26:05Z</time>
      </trkpt>
      <trkpt lat="47.64445" lon="6.18312">
        <ele>224.5</ele>
        <time>2022-02-23T16:26:34Z</time>
      </trkpt>
      <trkpt lat="47.64444" lon="6.18321">
        <ele>225.1</ele>
        <time>2022-02-23T16:26:38Z</time>
      </trkpt>
      <trkpt lat="47.64441" lon="6.18329">
        <ele>225.4</ele>
        <time>2022-02-23T16:26:41Z</time>
      </trkpt>
      <trkpt lat="47.64443" lon="6.18335">
        <ele>226.1</ele>
        <time>2022-02-23T16:26:59Z</time>
      </trkpt>
      <trkpt lat="47.64448" lon="6.18338">
        <ele>227.1</ele>
        <time>2022-02-23T16:27:11Z</time>
      </trkpt>
      <trkpt lat="47.64456" lon="6.1834">
        <ele>228.9</ele>
        <time>2022-02-23T16:27:14Z</time>
      </trkpt>
      <trkpt lat="47.64461" lon="6.18343">
        <ele>230</ele>
        <time>2022-02-23T16:27:16Z</time>
      </trkpt>
      <trkpt lat="47.64461" lon="6.18336">
        <ele>229.3</ele>
        <time>2022-02-23T16:28:52Z</time>
      </trkpt>
      <trkpt lat="47.64457" lon="6.18333">
        <ele>228.2</ele>
        <time>2022-02-23T16:29:19Z</time>
      </trkpt>
      <trkpt lat="47.64453" lon="6.18331">
        <ele>227.3</ele>
        <time>2022-02-23T16:30:04Z</time>
      </trkpt>
    </trkseg>
  </trk>
</gpx>